<?xml version="1.0" encoding="UTF-8" standalone="no" ?>
<gpx xmlns="http://www.topografix.com/GPX/1/1" xmlns:xsi="http://www.w3.org/2001/XMLSchema-instance" xsi:schemaLocation="http://www.topografix.com/GPX/1/1 http://www.topografix.com/GPX/1/1/gpx.xsd" version="1.1" creator="VisuGPX - https://www.visugpx.com">
  <metadata>
    <name>Parcours Andrée Gapin</name>
    <desc><![CDATA[Les environs de Bussières et Néronde. Sans difficultés notables.]]></desc>
  </metadata>
  <trk>
    <name><![CDATA[20180910203047-qKLpP]]></name>
    <trkseg>
      <trkpt lat="45.83711" lon="4.26762">
        <ele>641.135</ele>
        <time>2018-09-10T11:58:13Z</time>
      </trkpt>
      <trkpt lat="45.83711" lon="4.26762">
        <ele>641.171</ele>
        <time>2018-09-10T11:58:18Z</time>
      </trkpt>
      <trkpt lat="45.83717" lon="4.26758">
        <ele>637.353</ele>
        <time>2018-09-10T12:04:43Z</time>
      </trkpt>
      <trkpt lat="45.8372" lon="4.26753">
        <ele>641.996</ele>
        <time>2018-09-10T12:04:49Z</time>
      </trkpt>
      <trkpt lat="45.83722" lon="4.26748">
        <ele>646.374</ele>
        <time>2018-09-10T12:04:54Z</time>
      </trkpt>
      <trkpt lat="45.83729" lon="4.26743">
        <ele>643.793</ele>
        <time>2018-09-10T12:05:00Z</time>
      </trkpt>
      <trkpt lat="45.83728" lon="4.2673">
        <ele>642.791</ele>
        <time>2018-09-10T12:05:06Z</time>
      </trkpt>
      <trkpt lat="45.83728" lon="4.2673">
        <ele>642.642</ele>
        <time>2018-09-10T12:05:11Z</time>
      </trkpt>
      <trkpt lat="45.83733" lon="4.2672">
        <ele>642.399</ele>
        <time>2018-09-10T12:05:16Z</time>
      </trkpt>
      <trkpt lat="45.83736" lon="4.26716">
        <ele>641.991</ele>
        <time>2018-09-10T12:05:21Z</time>
      </trkpt>
      <trkpt lat="45.83738" lon="4.26712">
        <ele>641.958</ele>
        <time>2018-09-10T12:05:26Z</time>
      </trkpt>
      <trkpt lat="45.83736" lon="4.26707">
        <ele>642.244</ele>
        <time>2018-09-10T12:05:31Z</time>
      </trkpt>
      <trkpt lat="45.83736" lon="4.267">
        <ele>642.105</ele>
        <time>2018-09-10T12:05:37Z</time>
      </trkpt>
      <trkpt lat="45.83734" lon="4.26691">
        <ele>641.517</ele>
        <time>2018-09-10T12:05:43Z</time>
      </trkpt>
      <trkpt lat="45.83735" lon="4.26682">
        <ele>640.979</ele>
        <time>2018-09-10T12:05:49Z</time>
      </trkpt>
      <trkpt lat="45.83741" lon="4.26674">
        <ele>640.675</ele>
        <time>2018-09-10T12:05:55Z</time>
      </trkpt>
      <trkpt lat="45.83748" lon="4.2667">
        <ele>640.492</ele>
        <time>2018-09-10T12:06:01Z</time>
      </trkpt>
      <trkpt lat="45.83751" lon="4.26666">
        <ele>640.788</ele>
        <time>2018-09-10T12:06:08Z</time>
      </trkpt>
      <trkpt lat="45.83755" lon="4.26664">
        <ele>641.178</ele>
        <time>2018-09-10T12:06:13Z</time>
      </trkpt>
      <trkpt lat="45.83761" lon="4.2666">
        <ele>641.293</ele>
        <time>2018-09-10T12:06:18Z</time>
      </trkpt>
      <trkpt lat="45.83765" lon="4.26655">
        <ele>641.484</ele>
        <time>2018-09-10T12:06:24Z</time>
      </trkpt>
      <trkpt lat="45.83771" lon="4.26651">
        <ele>641.116</ele>
        <time>2018-09-10T12:06:29Z</time>
      </trkpt>
      <trkpt lat="45.83775" lon="4.26649">
        <ele>641.052</ele>
        <time>2018-09-10T12:06:35Z</time>
      </trkpt>
      <trkpt lat="45.83781" lon="4.26654">
        <ele>640.71</ele>
        <time>2018-09-10T12:06:41Z</time>
      </trkpt>
      <trkpt lat="45.83786" lon="4.26658">
        <ele>640.341</ele>
        <time>2018-09-10T12:06:46Z</time>
      </trkpt>
      <trkpt lat="45.83791" lon="4.26663">
        <ele>640.072</ele>
        <time>2018-09-10T12:06:51Z</time>
      </trkpt>
      <trkpt lat="45.83796" lon="4.26667">
        <ele>639.795</ele>
        <time>2018-09-10T12:06:56Z</time>
      </trkpt>
      <trkpt lat="45.83801" lon="4.2667">
        <ele>639.362</ele>
        <time>2018-09-10T12:07:02Z</time>
      </trkpt>
      <trkpt lat="45.83806" lon="4.26677">
        <ele>638.9</ele>
        <time>2018-09-10T12:07:09Z</time>
      </trkpt>
      <trkpt lat="45.8381" lon="4.26685">
        <ele>638.658</ele>
        <time>2018-09-10T12:07:14Z</time>
      </trkpt>
      <trkpt lat="45.83815" lon="4.26688">
        <ele>638.671</ele>
        <time>2018-09-10T12:07:20Z</time>
      </trkpt>
      <trkpt lat="45.83819" lon="4.26695">
        <ele>638.766</ele>
        <time>2018-09-10T12:07:26Z</time>
      </trkpt>
      <trkpt lat="45.83822" lon="4.26703">
        <ele>638.594</ele>
        <time>2018-09-10T12:07:32Z</time>
      </trkpt>
      <trkpt lat="45.83826" lon="4.26708">
        <ele>638.304</ele>
        <time>2018-09-10T12:07:38Z</time>
      </trkpt>
      <trkpt lat="45.83831" lon="4.26712">
        <ele>638.213</ele>
        <time>2018-09-10T12:07:44Z</time>
      </trkpt>
      <trkpt lat="45.83834" lon="4.26714">
        <ele>638.159</ele>
        <time>2018-09-10T12:07:49Z</time>
      </trkpt>
      <trkpt lat="45.8384" lon="4.26722">
        <ele>638.434</ele>
        <time>2018-09-10T12:07:55Z</time>
      </trkpt>
      <trkpt lat="45.83846" lon="4.26727">
        <ele>638.727</ele>
        <time>2018-09-10T12:08:01Z</time>
      </trkpt>
      <trkpt lat="45.8385" lon="4.26732">
        <ele>638.918</ele>
        <time>2018-09-10T12:08:07Z</time>
      </trkpt>
      <trkpt lat="45.83853" lon="4.26736">
        <ele>638.873</ele>
        <time>2018-09-10T12:08:12Z</time>
      </trkpt>
      <trkpt lat="45.83858" lon="4.26741">
        <ele>638.998</ele>
        <time>2018-09-10T12:08:18Z</time>
      </trkpt>
      <trkpt lat="45.83862" lon="4.26745">
        <ele>639.063</ele>
        <time>2018-09-10T12:08:23Z</time>
      </trkpt>
      <trkpt lat="45.83866" lon="4.2675">
        <ele>639.294</ele>
        <time>2018-09-10T12:08:28Z</time>
      </trkpt>
      <trkpt lat="45.83869" lon="4.26755">
        <ele>639.501</ele>
        <time>2018-09-10T12:08:34Z</time>
      </trkpt>
      <trkpt lat="45.83874" lon="4.26758">
        <ele>639.966</ele>
        <time>2018-09-10T12:08:40Z</time>
      </trkpt>
      <trkpt lat="45.83878" lon="4.26762">
        <ele>639.972</ele>
        <time>2018-09-10T12:08:45Z</time>
      </trkpt>
      <trkpt lat="45.83883" lon="4.26765">
        <ele>639.978</ele>
        <time>2018-09-10T12:08:50Z</time>
      </trkpt>
      <trkpt lat="45.83886" lon="4.26769">
        <ele>640.199</ele>
        <time>2018-09-10T12:08:55Z</time>
      </trkpt>
      <trkpt lat="45.83893" lon="4.26774">
        <ele>640.374</ele>
        <time>2018-09-10T12:09:01Z</time>
      </trkpt>
      <trkpt lat="45.83898" lon="4.26778">
        <ele>640.465</ele>
        <time>2018-09-10T12:09:07Z</time>
      </trkpt>
      <trkpt lat="45.83903" lon="4.26783">
        <ele>640.925</ele>
        <time>2018-09-10T12:09:13Z</time>
      </trkpt>
      <trkpt lat="45.83907" lon="4.26788">
        <ele>640.873</ele>
        <time>2018-09-10T12:09:19Z</time>
      </trkpt>
      <trkpt lat="45.83912" lon="4.26792">
        <ele>640.959</ele>
        <time>2018-09-10T12:09:25Z</time>
      </trkpt>
      <trkpt lat="45.83917" lon="4.26795">
        <ele>641.159</ele>
        <time>2018-09-10T12:09:31Z</time>
      </trkpt>
      <trkpt lat="45.83922" lon="4.26799">
        <ele>641.011</ele>
        <time>2018-09-10T12:09:36Z</time>
      </trkpt>
      <trkpt lat="45.83927" lon="4.26804">
        <ele>640.676</ele>
        <time>2018-09-10T12:09:42Z</time>
      </trkpt>
      <trkpt lat="45.83932" lon="4.26808">
        <ele>640.321</ele>
        <time>2018-09-10T12:09:47Z</time>
      </trkpt>
      <trkpt lat="45.83934" lon="4.26812">
        <ele>639.613</ele>
        <time>2018-09-10T12:09:52Z</time>
      </trkpt>
      <trkpt lat="45.83939" lon="4.26814">
        <ele>639.363</ele>
        <time>2018-09-10T12:09:57Z</time>
      </trkpt>
      <trkpt lat="45.83944" lon="4.2682">
        <ele>639.773</ele>
        <time>2018-09-10T12:10:03Z</time>
      </trkpt>
      <trkpt lat="45.8395" lon="4.26826">
        <ele>640.447</ele>
        <time>2018-09-10T12:10:09Z</time>
      </trkpt>
      <trkpt lat="45.83958" lon="4.26833">
        <ele>640.796</ele>
        <time>2018-09-10T12:10:15Z</time>
      </trkpt>
      <trkpt lat="45.83966" lon="4.26835">
        <ele>640.575</ele>
        <time>2018-09-10T12:10:20Z</time>
      </trkpt>
      <trkpt lat="45.83974" lon="4.26839">
        <ele>640.236</ele>
        <time>2018-09-10T12:10:26Z</time>
      </trkpt>
      <trkpt lat="45.83979" lon="4.26843">
        <ele>639.615</ele>
        <time>2018-09-10T12:10:31Z</time>
      </trkpt>
      <trkpt lat="45.83987" lon="4.26847">
        <ele>639.385</ele>
        <time>2018-09-10T12:10:37Z</time>
      </trkpt>
      <trkpt lat="45.83993" lon="4.26853">
        <ele>639.49</ele>
        <time>2018-09-10T12:10:42Z</time>
      </trkpt>
      <trkpt lat="45.83997" lon="4.26853">
        <ele>639.798</ele>
        <time>2018-09-10T12:10:48Z</time>
      </trkpt>
      <trkpt lat="45.83999" lon="4.26854">
        <ele>639.503</ele>
        <time>2018-09-10T12:10:53Z</time>
      </trkpt>
      <trkpt lat="45.84002" lon="4.26857">
        <ele>639.616</ele>
        <time>2018-09-10T12:10:59Z</time>
      </trkpt>
      <trkpt lat="45.84008" lon="4.26861">
        <ele>639.64</ele>
        <time>2018-09-10T12:11:04Z</time>
      </trkpt>
      <trkpt lat="45.84017" lon="4.26864">
        <ele>640.413</ele>
        <time>2018-09-10T12:11:10Z</time>
      </trkpt>
      <trkpt lat="45.84022" lon="4.26867">
        <ele>640.805</ele>
        <time>2018-09-10T12:11:15Z</time>
      </trkpt>
      <trkpt lat="45.84025" lon="4.2687">
        <ele>640.38</ele>
        <time>2018-09-10T12:11:21Z</time>
      </trkpt>
      <trkpt lat="45.84027" lon="4.26876">
        <ele>640.347</ele>
        <time>2018-09-10T12:11:26Z</time>
      </trkpt>
      <trkpt lat="45.84032" lon="4.26877">
        <ele>639.901</ele>
        <time>2018-09-10T12:11:32Z</time>
      </trkpt>
      <trkpt lat="45.84037" lon="4.26877">
        <ele>639.906</ele>
        <time>2018-09-10T12:11:37Z</time>
      </trkpt>
      <trkpt lat="45.84045" lon="4.26878">
        <ele>640.468</ele>
        <time>2018-09-10T12:11:43Z</time>
      </trkpt>
      <trkpt lat="45.8405" lon="4.2687">
        <ele>640.711</ele>
        <time>2018-09-10T12:11:48Z</time>
      </trkpt>
      <trkpt lat="45.84051" lon="4.26859">
        <ele>640.302</ele>
        <time>2018-09-10T12:11:54Z</time>
      </trkpt>
      <trkpt lat="45.84051" lon="4.26849">
        <ele>640.047</ele>
        <time>2018-09-10T12:11:59Z</time>
      </trkpt>
      <trkpt lat="45.84051" lon="4.26837">
        <ele>639.733</ele>
        <time>2018-09-10T12:12:05Z</time>
      </trkpt>
      <trkpt lat="45.8405" lon="4.26829">
        <ele>639.223</ele>
        <time>2018-09-10T12:12:10Z</time>
      </trkpt>
      <trkpt lat="45.84049" lon="4.2682">
        <ele>639.004</ele>
        <time>2018-09-10T12:12:15Z</time>
      </trkpt>
      <trkpt lat="45.84046" lon="4.26813">
        <ele>638.352</ele>
        <time>2018-09-10T12:12:21Z</time>
      </trkpt>
      <trkpt lat="45.84043" lon="4.26806">
        <ele>637.722</ele>
        <time>2018-09-10T12:12:27Z</time>
      </trkpt>
      <trkpt lat="45.84041" lon="4.268">
        <ele>637.411</ele>
        <time>2018-09-10T12:12:32Z</time>
      </trkpt>
      <trkpt lat="45.84039" lon="4.2679">
        <ele>636.68</ele>
        <time>2018-09-10T12:12:38Z</time>
      </trkpt>
      <trkpt lat="45.84037" lon="4.26783">
        <ele>636.066</ele>
        <time>2018-09-10T12:12:44Z</time>
      </trkpt>
      <trkpt lat="45.84037" lon="4.26776">
        <ele>635.839</ele>
        <time>2018-09-10T12:12:50Z</time>
      </trkpt>
      <trkpt lat="45.84035" lon="4.26769">
        <ele>636.319</ele>
        <time>2018-09-10T12:12:56Z</time>
      </trkpt>
      <trkpt lat="45.84032" lon="4.26765">
        <ele>635.991</ele>
        <time>2018-09-10T12:13:01Z</time>
      </trkpt>
      <trkpt lat="45.84032" lon="4.26756">
        <ele>635.42</ele>
        <time>2018-09-10T12:13:06Z</time>
      </trkpt>
      <trkpt lat="45.84031" lon="4.26746">
        <ele>634.87</ele>
        <time>2018-09-10T12:13:12Z</time>
      </trkpt>
      <trkpt lat="45.84029" lon="4.2674">
        <ele>634.18</ele>
        <time>2018-09-10T12:13:17Z</time>
      </trkpt>
      <trkpt lat="45.84025" lon="4.26733">
        <ele>633.107</ele>
        <time>2018-09-10T12:13:23Z</time>
      </trkpt>
      <trkpt lat="45.84023" lon="4.26726">
        <ele>632.199</ele>
        <time>2018-09-10T12:13:28Z</time>
      </trkpt>
      <trkpt lat="45.84019" lon="4.26718">
        <ele>631.17</ele>
        <time>2018-09-10T12:13:34Z</time>
      </trkpt>
      <trkpt lat="45.8402" lon="4.26707">
        <ele>630.05</ele>
        <time>2018-09-10T12:13:40Z</time>
      </trkpt>
      <trkpt lat="45.84025" lon="4.26701">
        <ele>629.365</ele>
        <time>2018-09-10T12:13:46Z</time>
      </trkpt>
      <trkpt lat="45.84024" lon="4.26692">
        <ele>628.986</ele>
        <time>2018-09-10T12:13:51Z</time>
      </trkpt>
      <trkpt lat="45.84023" lon="4.26684">
        <ele>628.564</ele>
        <time>2018-09-10T12:13:57Z</time>
      </trkpt>
      <trkpt lat="45.8402" lon="4.26681">
        <ele>628.293</ele>
        <time>2018-09-10T12:14:02Z</time>
      </trkpt>
      <trkpt lat="45.84016" lon="4.26686">
        <ele>627.642</ele>
        <time>2018-09-10T12:14:07Z</time>
      </trkpt>
      <trkpt lat="45.84011" lon="4.2669">
        <ele>626.917</ele>
        <time>2018-09-10T12:14:13Z</time>
      </trkpt>
      <trkpt lat="45.84005" lon="4.26694">
        <ele>626.279</ele>
        <time>2018-09-10T12:14:19Z</time>
      </trkpt>
      <trkpt lat="45.84" lon="4.267">
        <ele>625.18</ele>
        <time>2018-09-10T12:14:24Z</time>
      </trkpt>
      <trkpt lat="45.83995" lon="4.26704">
        <ele>623.979</ele>
        <time>2018-09-10T12:14:30Z</time>
      </trkpt>
      <trkpt lat="45.83988" lon="4.26705">
        <ele>623.073</ele>
        <time>2018-09-10T12:14:36Z</time>
      </trkpt>
      <trkpt lat="45.83982" lon="4.26707">
        <ele>622.985</ele>
        <time>2018-09-10T12:14:41Z</time>
      </trkpt>
      <trkpt lat="45.83977" lon="4.26706">
        <ele>622.49</ele>
        <time>2018-09-10T12:14:46Z</time>
      </trkpt>
      <trkpt lat="45.8397" lon="4.26703">
        <ele>622.321</ele>
        <time>2018-09-10T12:14:52Z</time>
      </trkpt>
      <trkpt lat="45.83962" lon="4.26697">
        <ele>622.779</ele>
        <time>2018-09-10T12:14:58Z</time>
      </trkpt>
      <trkpt lat="45.8396" lon="4.26688">
        <ele>622.999</ele>
        <time>2018-09-10T12:15:04Z</time>
      </trkpt>
      <trkpt lat="45.83963" lon="4.2668">
        <ele>623.202</ele>
        <time>2018-09-10T12:15:09Z</time>
      </trkpt>
      <trkpt lat="45.83967" lon="4.26673">
        <ele>622.86</ele>
        <time>2018-09-10T12:15:15Z</time>
      </trkpt>
      <trkpt lat="45.8397" lon="4.26667">
        <ele>622.403</ele>
        <time>2018-09-10T12:15:20Z</time>
      </trkpt>
      <trkpt lat="45.83974" lon="4.2666">
        <ele>621.722</ele>
        <time>2018-09-10T12:15:26Z</time>
      </trkpt>
      <trkpt lat="45.83978" lon="4.26655">
        <ele>621.332</ele>
        <time>2018-09-10T12:15:32Z</time>
      </trkpt>
      <trkpt lat="45.83983" lon="4.2665">
        <ele>621.061</ele>
        <time>2018-09-10T12:15:37Z</time>
      </trkpt>
      <trkpt lat="45.83985" lon="4.26643">
        <ele>620.741</ele>
        <time>2018-09-10T12:15:43Z</time>
      </trkpt>
      <trkpt lat="45.83985" lon="4.26632">
        <ele>620.289</ele>
        <time>2018-09-10T12:15:49Z</time>
      </trkpt>
      <trkpt lat="45.83981" lon="4.2662">
        <ele>620.118</ele>
        <time>2018-09-10T12:15:54Z</time>
      </trkpt>
      <trkpt lat="45.8398" lon="4.26615">
        <ele>619.756</ele>
        <time>2018-09-10T12:15:59Z</time>
      </trkpt>
      <trkpt lat="45.83977" lon="4.26604">
        <ele>619.696</ele>
        <time>2018-09-10T12:16:05Z</time>
      </trkpt>
      <trkpt lat="45.83973" lon="4.26598">
        <ele>619.658</ele>
        <time>2018-09-10T12:16:11Z</time>
      </trkpt>
      <trkpt lat="45.83973" lon="4.2659">
        <ele>619.579</ele>
        <time>2018-09-10T12:16:17Z</time>
      </trkpt>
      <trkpt lat="45.83973" lon="4.26585">
        <ele>619.112</ele>
        <time>2018-09-10T12:16:22Z</time>
      </trkpt>
      <trkpt lat="45.83971" lon="4.26577">
        <ele>619.065</ele>
        <time>2018-09-10T12:16:28Z</time>
      </trkpt>
      <trkpt lat="45.83971" lon="4.26571">
        <ele>619.147</ele>
        <time>2018-09-10T12:16:33Z</time>
      </trkpt>
      <trkpt lat="45.8397" lon="4.2656">
        <ele>619.049</ele>
        <time>2018-09-10T12:16:39Z</time>
      </trkpt>
      <trkpt lat="45.8397" lon="4.26556">
        <ele>618.951</ele>
        <time>2018-09-10T12:16:44Z</time>
      </trkpt>
      <trkpt lat="45.8397" lon="4.26545">
        <ele>618.433</ele>
        <time>2018-09-10T12:16:50Z</time>
      </trkpt>
      <trkpt lat="45.83971" lon="4.26539">
        <ele>618.283</ele>
        <time>2018-09-10T12:16:56Z</time>
      </trkpt>
      <trkpt lat="45.83972" lon="4.26534">
        <ele>617.84</ele>
        <time>2018-09-10T12:17:02Z</time>
      </trkpt>
      <trkpt lat="45.83972" lon="4.26528">
        <ele>617.41</ele>
        <time>2018-09-10T12:17:07Z</time>
      </trkpt>
      <trkpt lat="45.83971" lon="4.26519">
        <ele>616.965</ele>
        <time>2018-09-10T12:17:13Z</time>
      </trkpt>
      <trkpt lat="45.83969" lon="4.26509">
        <ele>616.617</ele>
        <time>2018-09-10T12:17:18Z</time>
      </trkpt>
      <trkpt lat="45.83969" lon="4.26499">
        <ele>616.623</ele>
        <time>2018-09-10T12:17:24Z</time>
      </trkpt>
      <trkpt lat="45.83974" lon="4.26493">
        <ele>616.933</ele>
        <time>2018-09-10T12:17:29Z</time>
      </trkpt>
      <trkpt lat="45.83978" lon="4.2649">
        <ele>617.471</ele>
        <time>2018-09-10T12:17:34Z</time>
      </trkpt>
      <trkpt lat="45.83983" lon="4.26488">
        <ele>618</ele>
        <time>2018-09-10T12:17:40Z</time>
      </trkpt>
      <trkpt lat="45.83987" lon="4.26486">
        <ele>618.33</ele>
        <time>2018-09-10T12:17:45Z</time>
      </trkpt>
      <trkpt lat="45.83992" lon="4.26483">
        <ele>618.458</ele>
        <time>2018-09-10T12:17:51Z</time>
      </trkpt>
      <trkpt lat="45.83994" lon="4.26481">
        <ele>619.185</ele>
        <time>2018-09-10T12:17:56Z</time>
      </trkpt>
      <trkpt lat="45.83998" lon="4.26476">
        <ele>620</ele>
        <time>2018-09-10T12:18:02Z</time>
      </trkpt>
      <trkpt lat="45.84001" lon="4.26475">
        <ele>620.809</ele>
        <time>2018-09-10T12:18:07Z</time>
      </trkpt>
      <trkpt lat="45.84007" lon="4.2647">
        <ele>621.689</ele>
        <time>2018-09-10T12:18:13Z</time>
      </trkpt>
      <trkpt lat="45.84014" lon="4.26468">
        <ele>622.646</ele>
        <time>2018-09-10T12:18:18Z</time>
      </trkpt>
      <trkpt lat="45.8402" lon="4.26469">
        <ele>623.98</ele>
        <time>2018-09-10T12:18:25Z</time>
      </trkpt>
      <trkpt lat="45.84018" lon="4.26464">
        <ele>624.92</ele>
        <time>2018-09-10T12:18:31Z</time>
      </trkpt>
      <trkpt lat="45.84023" lon="4.26456">
        <ele>625.416</ele>
        <time>2018-09-10T12:18:36Z</time>
      </trkpt>
      <trkpt lat="45.84028" lon="4.26452">
        <ele>626.409</ele>
        <time>2018-09-10T12:18:41Z</time>
      </trkpt>
      <trkpt lat="45.84034" lon="4.26448">
        <ele>627.454</ele>
        <time>2018-09-10T12:18:46Z</time>
      </trkpt>
      <trkpt lat="45.84038" lon="4.26444">
        <ele>628.354</ele>
        <time>2018-09-10T12:18:52Z</time>
      </trkpt>
      <trkpt lat="45.84039" lon="4.26441">
        <ele>629.059</ele>
        <time>2018-09-10T12:18:57Z</time>
      </trkpt>
      <trkpt lat="45.84041" lon="4.26439">
        <ele>629.962</ele>
        <time>2018-09-10T12:19:02Z</time>
      </trkpt>
      <trkpt lat="45.84043" lon="4.26436">
        <ele>630.653</ele>
        <time>2018-09-10T12:19:08Z</time>
      </trkpt>
      <trkpt lat="45.84047" lon="4.26433">
        <ele>631.634</ele>
        <time>2018-09-10T12:19:14Z</time>
      </trkpt>
      <trkpt lat="45.84053" lon="4.26429">
        <ele>632.37</ele>
        <time>2018-09-10T12:19:19Z</time>
      </trkpt>
      <trkpt lat="45.84058" lon="4.26425">
        <ele>633.409</ele>
        <time>2018-09-10T12:19:25Z</time>
      </trkpt>
      <trkpt lat="45.84063" lon="4.26421">
        <ele>634.097</ele>
        <time>2018-09-10T12:19:30Z</time>
      </trkpt>
      <trkpt lat="45.84067" lon="4.2642">
        <ele>634.958</ele>
        <time>2018-09-10T12:19:35Z</time>
      </trkpt>
      <trkpt lat="45.84071" lon="4.26417">
        <ele>635.681</ele>
        <time>2018-09-10T12:19:40Z</time>
      </trkpt>
      <trkpt lat="45.84074" lon="4.26413">
        <ele>636.75</ele>
        <time>2018-09-10T12:19:46Z</time>
      </trkpt>
      <trkpt lat="45.84077" lon="4.26408">
        <ele>637.612</ele>
        <time>2018-09-10T12:19:51Z</time>
      </trkpt>
      <trkpt lat="45.84081" lon="4.26407">
        <ele>638.514</ele>
        <time>2018-09-10T12:19:56Z</time>
      </trkpt>
      <trkpt lat="45.84086" lon="4.26403">
        <ele>638.658</ele>
        <time>2018-09-10T12:20:02Z</time>
      </trkpt>
      <trkpt lat="45.8409" lon="4.26402">
        <ele>638.408</ele>
        <time>2018-09-10T12:20:07Z</time>
      </trkpt>
      <trkpt lat="45.84094" lon="4.26404">
        <ele>638.343</ele>
        <time>2018-09-10T12:20:12Z</time>
      </trkpt>
      <trkpt lat="45.84097" lon="4.26406">
        <ele>638.565</ele>
        <time>2018-09-10T12:20:18Z</time>
      </trkpt>
      <trkpt lat="45.84103" lon="4.26406">
        <ele>639.126</ele>
        <time>2018-09-10T12:20:23Z</time>
      </trkpt>
      <trkpt lat="45.84107" lon="4.26406">
        <ele>639.591</ele>
        <time>2018-09-10T12:20:28Z</time>
      </trkpt>
      <trkpt lat="45.84111" lon="4.26409">
        <ele>639.849</ele>
        <time>2018-09-10T12:20:33Z</time>
      </trkpt>
      <trkpt lat="45.84117" lon="4.2641">
        <ele>640.218</ele>
        <time>2018-09-10T12:20:39Z</time>
      </trkpt>
      <trkpt lat="45.84122" lon="4.26411">
        <ele>640.698</ele>
        <time>2018-09-10T12:20:44Z</time>
      </trkpt>
      <trkpt lat="45.84126" lon="4.26413">
        <ele>641.551</ele>
        <time>2018-09-10T12:20:50Z</time>
      </trkpt>
      <trkpt lat="45.84129" lon="4.26414">
        <ele>642.069</ele>
        <time>2018-09-10T12:20:55Z</time>
      </trkpt>
      <trkpt lat="45.84133" lon="4.26415">
        <ele>642.497</ele>
        <time>2018-09-10T12:21:00Z</time>
      </trkpt>
      <trkpt lat="45.84139" lon="4.26419">
        <ele>643.33</ele>
        <time>2018-09-10T12:21:06Z</time>
      </trkpt>
      <trkpt lat="45.84145" lon="4.26421">
        <ele>644.356</ele>
        <time>2018-09-10T12:21:11Z</time>
      </trkpt>
      <trkpt lat="45.84148" lon="4.26422">
        <ele>646.1</ele>
        <time>2018-09-10T12:21:17Z</time>
      </trkpt>
      <trkpt lat="45.84152" lon="4.26418">
        <ele>647.326</ele>
        <time>2018-09-10T12:21:23Z</time>
      </trkpt>
      <trkpt lat="45.84155" lon="4.26419">
        <ele>647.794</ele>
        <time>2018-09-10T12:21:28Z</time>
      </trkpt>
      <trkpt lat="45.84159" lon="4.2642">
        <ele>647.792</ele>
        <time>2018-09-10T12:21:33Z</time>
      </trkpt>
      <trkpt lat="45.8416" lon="4.26425">
        <ele>648.176</ele>
        <time>2018-09-10T12:21:39Z</time>
      </trkpt>
      <trkpt lat="45.84159" lon="4.26435">
        <ele>648.447</ele>
        <time>2018-09-10T12:21:45Z</time>
      </trkpt>
      <trkpt lat="45.84161" lon="4.26433">
        <ele>648.533</ele>
        <time>2018-09-10T12:21:51Z</time>
      </trkpt>
      <trkpt lat="45.8416" lon="4.26426">
        <ele>648.467</ele>
        <time>2018-09-10T12:21:57Z</time>
      </trkpt>
      <trkpt lat="45.84159" lon="4.26425">
        <ele>648.173</ele>
        <time>2018-09-10T12:22:03Z</time>
      </trkpt>
      <trkpt lat="45.84159" lon="4.26425">
        <ele>647.935</ele>
        <time>2018-09-10T12:22:09Z</time>
      </trkpt>
      <trkpt lat="45.84159" lon="4.26425">
        <ele>648.02</ele>
        <time>2018-09-10T12:22:15Z</time>
      </trkpt>
      <trkpt lat="45.84159" lon="4.26425">
        <ele>648.064</ele>
        <time>2018-09-10T12:22:21Z</time>
      </trkpt>
      <trkpt lat="45.84159" lon="4.26425">
        <ele>648.131</ele>
        <time>2018-09-10T12:22:26Z</time>
      </trkpt>
      <trkpt lat="45.84159" lon="4.26425">
        <ele>648.159</ele>
        <time>2018-09-10T12:22:32Z</time>
      </trkpt>
      <trkpt lat="45.84159" lon="4.26425">
        <ele>648.156</ele>
        <time>2018-09-10T12:22:37Z</time>
      </trkpt>
      <trkpt lat="45.84159" lon="4.26425">
        <ele>648.137</ele>
        <time>2018-09-10T12:22:43Z</time>
      </trkpt>
      <trkpt lat="45.84159" lon="4.26425">
        <ele>648.192</ele>
        <time>2018-09-10T12:22:48Z</time>
      </trkpt>
      <trkpt lat="45.84159" lon="4.26425">
        <ele>648.269</ele>
        <time>2018-09-10T12:22:53Z</time>
      </trkpt>
      <trkpt lat="45.84159" lon="4.26425">
        <ele>648.519</ele>
        <time>2018-09-10T12:22:59Z</time>
      </trkpt>
      <trkpt lat="45.84159" lon="4.26425">
        <ele>648.789</ele>
        <time>2018-09-10T12:23:05Z</time>
      </trkpt>
      <trkpt lat="45.84159" lon="4.26425">
        <ele>648.984</ele>
        <time>2018-09-10T12:23:11Z</time>
      </trkpt>
      <trkpt lat="45.84159" lon="4.26425">
        <ele>649.103</ele>
        <time>2018-09-10T12:23:16Z</time>
      </trkpt>
      <trkpt lat="45.84159" lon="4.26425">
        <ele>649.565</ele>
        <time>2018-09-10T12:23:22Z</time>
      </trkpt>
      <trkpt lat="45.84159" lon="4.26425">
        <ele>649.641</ele>
        <time>2018-09-10T12:23:27Z</time>
      </trkpt>
      <trkpt lat="45.8416" lon="4.26425">
        <ele>649.951</ele>
        <time>2018-09-10T12:23:33Z</time>
      </trkpt>
      <trkpt lat="45.84162" lon="4.26425">
        <ele>650.528</ele>
        <time>2018-09-10T12:23:39Z</time>
      </trkpt>
      <trkpt lat="45.84162" lon="4.26425">
        <ele>650.634</ele>
        <time>2018-09-10T12:23:44Z</time>
      </trkpt>
      <trkpt lat="45.84162" lon="4.26425">
        <ele>650.716</ele>
        <time>2018-09-10T12:23:50Z</time>
      </trkpt>
      <trkpt lat="45.84162" lon="4.26425">
        <ele>650.728</ele>
        <time>2018-09-10T12:23:56Z</time>
      </trkpt>
      <trkpt lat="45.84162" lon="4.26425">
        <ele>650.787</ele>
        <time>2018-09-10T12:24:02Z</time>
      </trkpt>
      <trkpt lat="45.84162" lon="4.26425">
        <ele>650.716</ele>
        <time>2018-09-10T12:24:07Z</time>
      </trkpt>
      <trkpt lat="45.84162" lon="4.26425">
        <ele>650.586</ele>
        <time>2018-09-10T12:24:13Z</time>
      </trkpt>
      <trkpt lat="45.84162" lon="4.26424">
        <ele>649.991</ele>
        <time>2018-09-10T12:24:19Z</time>
      </trkpt>
      <trkpt lat="45.84162" lon="4.26424">
        <ele>650.085</ele>
        <time>2018-09-10T12:24:25Z</time>
      </trkpt>
      <trkpt lat="45.84162" lon="4.26424">
        <ele>650.053</ele>
        <time>2018-09-10T12:24:31Z</time>
      </trkpt>
      <trkpt lat="45.84162" lon="4.26424">
        <ele>650.003</ele>
        <time>2018-09-10T12:24:37Z</time>
      </trkpt>
      <trkpt lat="45.84162" lon="4.26424">
        <ele>649.969</ele>
        <time>2018-09-10T12:24:42Z</time>
      </trkpt>
      <trkpt lat="45.84162" lon="4.26424">
        <ele>649.964</ele>
        <time>2018-09-10T12:24:48Z</time>
      </trkpt>
      <trkpt lat="45.84162" lon="4.26424">
        <ele>649.918</ele>
        <time>2018-09-10T12:24:54Z</time>
      </trkpt>
      <trkpt lat="45.84162" lon="4.26424">
        <ele>649.681</ele>
        <time>2018-09-10T12:25:00Z</time>
      </trkpt>
      <trkpt lat="45.84165" lon="4.26427">
        <ele>649.584</ele>
        <time>2018-09-10T12:25:06Z</time>
      </trkpt>
      <trkpt lat="45.84166" lon="4.26428">
        <ele>649.839</ele>
        <time>2018-09-10T12:25:11Z</time>
      </trkpt>
      <trkpt lat="45.84168" lon="4.2643">
        <ele>650.207</ele>
        <time>2018-09-10T12:25:17Z</time>
      </trkpt>
      <trkpt lat="45.84174" lon="4.26433">
        <ele>651.057</ele>
        <time>2018-09-10T12:25:22Z</time>
      </trkpt>
      <trkpt lat="45.84177" lon="4.26435">
        <ele>651.918</ele>
        <time>2018-09-10T12:25:27Z</time>
      </trkpt>
      <trkpt lat="45.8418" lon="4.26441">
        <ele>652.859</ele>
        <time>2018-09-10T12:25:32Z</time>
      </trkpt>
      <trkpt lat="45.84184" lon="4.26442">
        <ele>653.614</ele>
        <time>2018-09-10T12:25:37Z</time>
      </trkpt>
      <trkpt lat="45.84188" lon="4.26442">
        <ele>654.236</ele>
        <time>2018-09-10T12:25:42Z</time>
      </trkpt>
      <trkpt lat="45.84193" lon="4.26443">
        <ele>655.071</ele>
        <time>2018-09-10T12:25:48Z</time>
      </trkpt>
      <trkpt lat="45.84199" lon="4.26445">
        <ele>655.809</ele>
        <time>2018-09-10T12:25:54Z</time>
      </trkpt>
      <trkpt lat="45.84203" lon="4.26444">
        <ele>656.354</ele>
        <time>2018-09-10T12:26:00Z</time>
      </trkpt>
      <trkpt lat="45.84208" lon="4.26447">
        <ele>656.998</ele>
        <time>2018-09-10T12:26:05Z</time>
      </trkpt>
      <trkpt lat="45.84215" lon="4.2645">
        <ele>657.848</ele>
        <time>2018-09-10T12:26:11Z</time>
      </trkpt>
      <trkpt lat="45.84221" lon="4.2645">
        <ele>658.44</ele>
        <time>2018-09-10T12:26:16Z</time>
      </trkpt>
      <trkpt lat="45.84224" lon="4.26451">
        <ele>658.603</ele>
        <time>2018-09-10T12:26:21Z</time>
      </trkpt>
      <trkpt lat="45.8423" lon="4.26453">
        <ele>658.641</ele>
        <time>2018-09-10T12:26:27Z</time>
      </trkpt>
      <trkpt lat="45.84236" lon="4.26455">
        <ele>658.874</ele>
        <time>2018-09-10T12:26:33Z</time>
      </trkpt>
      <trkpt lat="45.84241" lon="4.26455">
        <ele>659.001</ele>
        <time>2018-09-10T12:26:39Z</time>
      </trkpt>
      <trkpt lat="45.84247" lon="4.26455">
        <ele>659.378</ele>
        <time>2018-09-10T12:26:45Z</time>
      </trkpt>
      <trkpt lat="45.84252" lon="4.26456">
        <ele>659.592</ele>
        <time>2018-09-10T12:26:50Z</time>
      </trkpt>
      <trkpt lat="45.8426" lon="4.26457">
        <ele>659.914</ele>
        <time>2018-09-10T12:26:56Z</time>
      </trkpt>
      <trkpt lat="45.84267" lon="4.26458">
        <ele>660.372</ele>
        <time>2018-09-10T12:27:02Z</time>
      </trkpt>
      <trkpt lat="45.84272" lon="4.26458">
        <ele>660.934</ele>
        <time>2018-09-10T12:27:08Z</time>
      </trkpt>
      <trkpt lat="45.84279" lon="4.2646">
        <ele>660.995</ele>
        <time>2018-09-10T12:27:14Z</time>
      </trkpt>
      <trkpt lat="45.84284" lon="4.2646">
        <ele>661.02</ele>
        <time>2018-09-10T12:27:19Z</time>
      </trkpt>
      <trkpt lat="45.84288" lon="4.26462">
        <ele>661.179</ele>
        <time>2018-09-10T12:27:24Z</time>
      </trkpt>
      <trkpt lat="45.84295" lon="4.26463">
        <ele>661.337</ele>
        <time>2018-09-10T12:27:30Z</time>
      </trkpt>
      <trkpt lat="45.84301" lon="4.26462">
        <ele>661.723</ele>
        <time>2018-09-10T12:27:36Z</time>
      </trkpt>
      <trkpt lat="45.84309" lon="4.2646">
        <ele>661.658</ele>
        <time>2018-09-10T12:27:42Z</time>
      </trkpt>
      <trkpt lat="45.84315" lon="4.26459">
        <ele>661.869</ele>
        <time>2018-09-10T12:27:48Z</time>
      </trkpt>
      <trkpt lat="45.84318" lon="4.26455">
        <ele>662.396</ele>
        <time>2018-09-10T12:27:53Z</time>
      </trkpt>
      <trkpt lat="45.84325" lon="4.26448">
        <ele>663.057</ele>
        <time>2018-09-10T12:27:59Z</time>
      </trkpt>
      <trkpt lat="45.84327" lon="4.26447">
        <ele>663.047</ele>
        <time>2018-09-10T12:28:04Z</time>
      </trkpt>
      <trkpt lat="45.84331" lon="4.26442">
        <ele>662.934</ele>
        <time>2018-09-10T12:28:10Z</time>
      </trkpt>
      <trkpt lat="45.84333" lon="4.26437">
        <ele>663.246</ele>
        <time>2018-09-10T12:28:15Z</time>
      </trkpt>
      <trkpt lat="45.84332" lon="4.2643">
        <ele>663.358</ele>
        <time>2018-09-10T12:28:21Z</time>
      </trkpt>
      <trkpt lat="45.84329" lon="4.26423">
        <ele>663.446</ele>
        <time>2018-09-10T12:28:26Z</time>
      </trkpt>
      <trkpt lat="45.84325" lon="4.26416">
        <ele>663.259</ele>
        <time>2018-09-10T12:28:32Z</time>
      </trkpt>
      <trkpt lat="45.84322" lon="4.26411">
        <ele>663.237</ele>
        <time>2018-09-10T12:28:37Z</time>
      </trkpt>
      <trkpt lat="45.84319" lon="4.26401">
        <ele>663.247</ele>
        <time>2018-09-10T12:28:43Z</time>
      </trkpt>
      <trkpt lat="45.84316" lon="4.2639">
        <ele>663.579</ele>
        <time>2018-09-10T12:28:49Z</time>
      </trkpt>
      <trkpt lat="45.84314" lon="4.26385">
        <ele>663.552</ele>
        <time>2018-09-10T12:28:54Z</time>
      </trkpt>
      <trkpt lat="45.8431" lon="4.26379">
        <ele>663.549</ele>
        <time>2018-09-10T12:29:00Z</time>
      </trkpt>
      <trkpt lat="45.84307" lon="4.26374">
        <ele>663.551</ele>
        <time>2018-09-10T12:29:05Z</time>
      </trkpt>
      <trkpt lat="45.84303" lon="4.26368">
        <ele>663.136</ele>
        <time>2018-09-10T12:29:11Z</time>
      </trkpt>
      <trkpt lat="45.84299" lon="4.26361">
        <ele>662.956</ele>
        <time>2018-09-10T12:29:16Z</time>
      </trkpt>
      <trkpt lat="45.84297" lon="4.26354">
        <ele>663.239</ele>
        <time>2018-09-10T12:29:22Z</time>
      </trkpt>
      <trkpt lat="45.84295" lon="4.26347">
        <ele>662.988</ele>
        <time>2018-09-10T12:29:27Z</time>
      </trkpt>
      <trkpt lat="45.84293" lon="4.2634">
        <ele>663.062</ele>
        <time>2018-09-10T12:29:32Z</time>
      </trkpt>
      <trkpt lat="45.8429" lon="4.26333">
        <ele>663.451</ele>
        <time>2018-09-10T12:29:38Z</time>
      </trkpt>
      <trkpt lat="45.84288" lon="4.26327">
        <ele>664.214</ele>
        <time>2018-09-10T12:29:43Z</time>
      </trkpt>
      <trkpt lat="45.84286" lon="4.26318">
        <ele>665.404</ele>
        <time>2018-09-10T12:29:49Z</time>
      </trkpt>
      <trkpt lat="45.84284" lon="4.26311">
        <ele>666.297</ele>
        <time>2018-09-10T12:29:54Z</time>
      </trkpt>
      <trkpt lat="45.84283" lon="4.26303">
        <ele>667.42</ele>
        <time>2018-09-10T12:30:00Z</time>
      </trkpt>
      <trkpt lat="45.84281" lon="4.26295">
        <ele>668.679</ele>
        <time>2018-09-10T12:30:05Z</time>
      </trkpt>
      <trkpt lat="45.84279" lon="4.26288">
        <ele>669.699</ele>
        <time>2018-09-10T12:30:10Z</time>
      </trkpt>
      <trkpt lat="45.84278" lon="4.26281">
        <ele>670.954</ele>
        <time>2018-09-10T12:30:15Z</time>
      </trkpt>
      <trkpt lat="45.84278" lon="4.26275">
        <ele>672.082</ele>
        <time>2018-09-10T12:30:21Z</time>
      </trkpt>
      <trkpt lat="45.84277" lon="4.26268">
        <ele>672.366</ele>
        <time>2018-09-10T12:30:26Z</time>
      </trkpt>
      <trkpt lat="45.84277" lon="4.26262">
        <ele>672.723</ele>
        <time>2018-09-10T12:30:31Z</time>
      </trkpt>
      <trkpt lat="45.84275" lon="4.26252">
        <ele>673.395</ele>
        <time>2018-09-10T12:30:37Z</time>
      </trkpt>
      <trkpt lat="45.84275" lon="4.26243">
        <ele>674.066</ele>
        <time>2018-09-10T12:30:43Z</time>
      </trkpt>
      <trkpt lat="45.84273" lon="4.26233">
        <ele>674.604</ele>
        <time>2018-09-10T12:30:49Z</time>
      </trkpt>
      <trkpt lat="45.84272" lon="4.26224">
        <ele>675.163</ele>
        <time>2018-09-10T12:30:55Z</time>
      </trkpt>
      <trkpt lat="45.84268" lon="4.26216">
        <ele>675.54</ele>
        <time>2018-09-10T12:31:01Z</time>
      </trkpt>
      <trkpt lat="45.84266" lon="4.26209">
        <ele>675.373</ele>
        <time>2018-09-10T12:31:07Z</time>
      </trkpt>
      <trkpt lat="45.84265" lon="4.26203">
        <ele>675.889</ele>
        <time>2018-09-10T12:31:13Z</time>
      </trkpt>
      <trkpt lat="45.84265" lon="4.26198">
        <ele>676.816</ele>
        <time>2018-09-10T12:31:19Z</time>
      </trkpt>
      <trkpt lat="45.84263" lon="4.26193">
        <ele>677.564</ele>
        <time>2018-09-10T12:31:24Z</time>
      </trkpt>
      <trkpt lat="45.8426" lon="4.26185">
        <ele>678.191</ele>
        <time>2018-09-10T12:31:30Z</time>
      </trkpt>
      <trkpt lat="45.84259" lon="4.26179">
        <ele>678.611</ele>
        <time>2018-09-10T12:31:36Z</time>
      </trkpt>
      <trkpt lat="45.84257" lon="4.2617">
        <ele>678.708</ele>
        <time>2018-09-10T12:31:41Z</time>
      </trkpt>
      <trkpt lat="45.84254" lon="4.26163">
        <ele>678.849</ele>
        <time>2018-09-10T12:31:47Z</time>
      </trkpt>
      <trkpt lat="45.84252" lon="4.26156">
        <ele>679.391</ele>
        <time>2018-09-10T12:31:53Z</time>
      </trkpt>
      <trkpt lat="45.84251" lon="4.26151">
        <ele>679.876</ele>
        <time>2018-09-10T12:31:58Z</time>
      </trkpt>
      <trkpt lat="45.8425" lon="4.26145">
        <ele>680.703</ele>
        <time>2018-09-10T12:32:04Z</time>
      </trkpt>
      <trkpt lat="45.84248" lon="4.26139">
        <ele>681.168</ele>
        <time>2018-09-10T12:32:09Z</time>
      </trkpt>
      <trkpt lat="45.84247" lon="4.2613">
        <ele>681.77</ele>
        <time>2018-09-10T12:32:15Z</time>
      </trkpt>
      <trkpt lat="45.84246" lon="4.26124">
        <ele>682.625</ele>
        <time>2018-09-10T12:32:21Z</time>
      </trkpt>
      <trkpt lat="45.84246" lon="4.26118">
        <ele>683.048</ele>
        <time>2018-09-10T12:32:26Z</time>
      </trkpt>
      <trkpt lat="45.84244" lon="4.2611">
        <ele>683.577</ele>
        <time>2018-09-10T12:32:32Z</time>
      </trkpt>
      <trkpt lat="45.84242" lon="4.26103">
        <ele>684.034</ele>
        <time>2018-09-10T12:32:38Z</time>
      </trkpt>
      <trkpt lat="45.84241" lon="4.26094">
        <ele>685.291</ele>
        <time>2018-09-10T12:32:44Z</time>
      </trkpt>
      <trkpt lat="45.84239" lon="4.26088">
        <ele>685.795</ele>
        <time>2018-09-10T12:32:49Z</time>
      </trkpt>
      <trkpt lat="45.84238" lon="4.26079">
        <ele>685.777</ele>
        <time>2018-09-10T12:32:55Z</time>
      </trkpt>
      <trkpt lat="45.84236" lon="4.2607">
        <ele>686.012</ele>
        <time>2018-09-10T12:33:01Z</time>
      </trkpt>
      <trkpt lat="45.84234" lon="4.26063">
        <ele>686.702</ele>
        <time>2018-09-10T12:33:07Z</time>
      </trkpt>
      <trkpt lat="45.84232" lon="4.26054">
        <ele>687.088</ele>
        <time>2018-09-10T12:33:13Z</time>
      </trkpt>
      <trkpt lat="45.8423" lon="4.26046">
        <ele>687.254</ele>
        <time>2018-09-10T12:33:18Z</time>
      </trkpt>
      <trkpt lat="45.84227" lon="4.2604">
        <ele>687.363</ele>
        <time>2018-09-10T12:33:24Z</time>
      </trkpt>
      <trkpt lat="45.84224" lon="4.26033">
        <ele>687.425</ele>
        <time>2018-09-10T12:33:30Z</time>
      </trkpt>
      <trkpt lat="45.84222" lon="4.26024">
        <ele>687.455</ele>
        <time>2018-09-10T12:33:36Z</time>
      </trkpt>
      <trkpt lat="45.84219" lon="4.26016">
        <ele>687.409</ele>
        <time>2018-09-10T12:33:42Z</time>
      </trkpt>
      <trkpt lat="45.84215" lon="4.26009">
        <ele>687.231</ele>
        <time>2018-09-10T12:33:47Z</time>
      </trkpt>
      <trkpt lat="45.84213" lon="4.26003">
        <ele>687.3</ele>
        <time>2018-09-10T12:33:52Z</time>
      </trkpt>
      <trkpt lat="45.84208" lon="4.25995">
        <ele>687.316</ele>
        <time>2018-09-10T12:33:58Z</time>
      </trkpt>
      <trkpt lat="45.84206" lon="4.2599">
        <ele>687.105</ele>
        <time>2018-09-10T12:34:04Z</time>
      </trkpt>
      <trkpt lat="45.84202" lon="4.25983">
        <ele>686.911</ele>
        <time>2018-09-10T12:34:10Z</time>
      </trkpt>
      <trkpt lat="45.84199" lon="4.25976">
        <ele>686.961</ele>
        <time>2018-09-10T12:34:15Z</time>
      </trkpt>
      <trkpt lat="45.84194" lon="4.25967">
        <ele>686.884</ele>
        <time>2018-09-10T12:34:21Z</time>
      </trkpt>
      <trkpt lat="45.84191" lon="4.25962">
        <ele>686.853</ele>
        <time>2018-09-10T12:34:27Z</time>
      </trkpt>
      <trkpt lat="45.84185" lon="4.25955">
        <ele>686.636</ele>
        <time>2018-09-10T12:34:32Z</time>
      </trkpt>
      <trkpt lat="45.8418" lon="4.25946">
        <ele>686.424</ele>
        <time>2018-09-10T12:34:38Z</time>
      </trkpt>
      <trkpt lat="45.84175" lon="4.2594">
        <ele>686.593</ele>
        <time>2018-09-10T12:34:43Z</time>
      </trkpt>
      <trkpt lat="45.84171" lon="4.25934">
        <ele>686.695</ele>
        <time>2018-09-10T12:34:49Z</time>
      </trkpt>
      <trkpt lat="45.84167" lon="4.25929">
        <ele>686.585</ele>
        <time>2018-09-10T12:34:54Z</time>
      </trkpt>
      <trkpt lat="45.84162" lon="4.25923">
        <ele>686.697</ele>
        <time>2018-09-10T12:35:00Z</time>
      </trkpt>
      <trkpt lat="45.84158" lon="4.25918">
        <ele>686.997</ele>
        <time>2018-09-10T12:35:06Z</time>
      </trkpt>
      <trkpt lat="45.84153" lon="4.25914">
        <ele>687.373</ele>
        <time>2018-09-10T12:35:12Z</time>
      </trkpt>
      <trkpt lat="45.84149" lon="4.25909">
        <ele>687.156</ele>
        <time>2018-09-10T12:35:18Z</time>
      </trkpt>
      <trkpt lat="45.84145" lon="4.25907">
        <ele>686.864</ele>
        <time>2018-09-10T12:35:23Z</time>
      </trkpt>
      <trkpt lat="45.84142" lon="4.25904">
        <ele>686.099</ele>
        <time>2018-09-10T12:35:29Z</time>
      </trkpt>
      <trkpt lat="45.84137" lon="4.259">
        <ele>685.3</ele>
        <time>2018-09-10T12:35:35Z</time>
      </trkpt>
      <trkpt lat="45.84133" lon="4.25896">
        <ele>684.536</ele>
        <time>2018-09-10T12:35:41Z</time>
      </trkpt>
      <trkpt lat="45.84129" lon="4.25891">
        <ele>684.052</ele>
        <time>2018-09-10T12:35:46Z</time>
      </trkpt>
      <trkpt lat="45.84125" lon="4.25887">
        <ele>683.566</ele>
        <time>2018-09-10T12:35:51Z</time>
      </trkpt>
      <trkpt lat="45.8412" lon="4.25879">
        <ele>682.851</ele>
        <time>2018-09-10T12:35:57Z</time>
      </trkpt>
      <trkpt lat="45.84115" lon="4.25871">
        <ele>682.285</ele>
        <time>2018-09-10T12:36:03Z</time>
      </trkpt>
      <trkpt lat="45.84112" lon="4.25864">
        <ele>681.499</ele>
        <time>2018-09-10T12:36:09Z</time>
      </trkpt>
      <trkpt lat="45.84111" lon="4.25858">
        <ele>680.758</ele>
        <time>2018-09-10T12:36:14Z</time>
      </trkpt>
      <trkpt lat="45.84108" lon="4.25851">
        <ele>680.055</ele>
        <time>2018-09-10T12:36:19Z</time>
      </trkpt>
      <trkpt lat="45.84105" lon="4.25844">
        <ele>679.702</ele>
        <time>2018-09-10T12:36:24Z</time>
      </trkpt>
      <trkpt lat="45.84102" lon="4.25839">
        <ele>679.324</ele>
        <time>2018-09-10T12:36:30Z</time>
      </trkpt>
      <trkpt lat="45.841" lon="4.25833">
        <ele>678.759</ele>
        <time>2018-09-10T12:36:35Z</time>
      </trkpt>
      <trkpt lat="45.84098" lon="4.25826">
        <ele>678.192</ele>
        <time>2018-09-10T12:36:40Z</time>
      </trkpt>
      <trkpt lat="45.84096" lon="4.25817">
        <ele>677.842</ele>
        <time>2018-09-10T12:36:46Z</time>
      </trkpt>
      <trkpt lat="45.84095" lon="4.25809">
        <ele>677.554</ele>
        <time>2018-09-10T12:36:51Z</time>
      </trkpt>
      <trkpt lat="45.84094" lon="4.25799">
        <ele>677.081</ele>
        <time>2018-09-10T12:36:57Z</time>
      </trkpt>
      <trkpt lat="45.84093" lon="4.2579">
        <ele>676.874</ele>
        <time>2018-09-10T12:37:03Z</time>
      </trkpt>
      <trkpt lat="45.84093" lon="4.25783">
        <ele>676.658</ele>
        <time>2018-09-10T12:37:08Z</time>
      </trkpt>
      <trkpt lat="45.84092" lon="4.25773">
        <ele>676.328</ele>
        <time>2018-09-10T12:37:13Z</time>
      </trkpt>
      <trkpt lat="45.84092" lon="4.25764">
        <ele>675.913</ele>
        <time>2018-09-10T12:37:19Z</time>
      </trkpt>
      <trkpt lat="45.84093" lon="4.25756">
        <ele>675.581</ele>
        <time>2018-09-10T12:37:24Z</time>
      </trkpt>
      <trkpt lat="45.84095" lon="4.25749">
        <ele>675.11</ele>
        <time>2018-09-10T12:37:30Z</time>
      </trkpt>
      <trkpt lat="45.84095" lon="4.25741">
        <ele>674.738</ele>
        <time>2018-09-10T12:37:36Z</time>
      </trkpt>
      <trkpt lat="45.84096" lon="4.25735">
        <ele>674.457</ele>
        <time>2018-09-10T12:37:41Z</time>
      </trkpt>
      <trkpt lat="45.84096" lon="4.25727">
        <ele>674.048</ele>
        <time>2018-09-10T12:37:47Z</time>
      </trkpt>
      <trkpt lat="45.84099" lon="4.25719">
        <ele>673.578</ele>
        <time>2018-09-10T12:37:53Z</time>
      </trkpt>
      <trkpt lat="45.841" lon="4.25711">
        <ele>673.13</ele>
        <time>2018-09-10T12:37:58Z</time>
      </trkpt>
      <trkpt lat="45.84101" lon="4.25704">
        <ele>672.478</ele>
        <time>2018-09-10T12:38:04Z</time>
      </trkpt>
      <trkpt lat="45.84103" lon="4.25698">
        <ele>671.819</ele>
        <time>2018-09-10T12:38:09Z</time>
      </trkpt>
      <trkpt lat="45.84106" lon="4.25692">
        <ele>671.456</ele>
        <time>2018-09-10T12:38:14Z</time>
      </trkpt>
      <trkpt lat="45.84108" lon="4.25686">
        <ele>670.897</ele>
        <time>2018-09-10T12:38:20Z</time>
      </trkpt>
      <trkpt lat="45.8411" lon="4.25678">
        <ele>670.004</ele>
        <time>2018-09-10T12:38:26Z</time>
      </trkpt>
      <trkpt lat="45.84112" lon="4.25671">
        <ele>669.208</ele>
        <time>2018-09-10T12:38:31Z</time>
      </trkpt>
      <trkpt lat="45.84114" lon="4.25664">
        <ele>668.163</ele>
        <time>2018-09-10T12:38:37Z</time>
      </trkpt>
      <trkpt lat="45.84115" lon="4.25657">
        <ele>667.334</ele>
        <time>2018-09-10T12:38:43Z</time>
      </trkpt>
      <trkpt lat="45.84117" lon="4.25652">
        <ele>666.583</ele>
        <time>2018-09-10T12:38:49Z</time>
      </trkpt>
      <trkpt lat="45.84118" lon="4.25644">
        <ele>665.791</ele>
        <time>2018-09-10T12:38:55Z</time>
      </trkpt>
      <trkpt lat="45.84119" lon="4.25636">
        <ele>665.301</ele>
        <time>2018-09-10T12:39:01Z</time>
      </trkpt>
      <trkpt lat="45.84121" lon="4.2563">
        <ele>664.941</ele>
        <time>2018-09-10T12:39:06Z</time>
      </trkpt>
      <trkpt lat="45.84121" lon="4.2562">
        <ele>664.191</ele>
        <time>2018-09-10T12:39:12Z</time>
      </trkpt>
      <trkpt lat="45.84122" lon="4.25608">
        <ele>663.116</ele>
        <time>2018-09-10T12:39:18Z</time>
      </trkpt>
      <trkpt lat="45.84121" lon="4.25602">
        <ele>662.554</ele>
        <time>2018-09-10T12:39:23Z</time>
      </trkpt>
      <trkpt lat="45.84118" lon="4.25593">
        <ele>661.943</ele>
        <time>2018-09-10T12:39:29Z</time>
      </trkpt>
      <trkpt lat="45.84115" lon="4.25583">
        <ele>661.272</ele>
        <time>2018-09-10T12:39:35Z</time>
      </trkpt>
      <trkpt lat="45.84113" lon="4.25574">
        <ele>660.919</ele>
        <time>2018-09-10T12:39:40Z</time>
      </trkpt>
      <trkpt lat="45.8411" lon="4.25567">
        <ele>661.063</ele>
        <time>2018-09-10T12:39:46Z</time>
      </trkpt>
      <trkpt lat="45.84106" lon="4.2556">
        <ele>661.129</ele>
        <time>2018-09-10T12:39:52Z</time>
      </trkpt>
      <trkpt lat="45.84101" lon="4.25554">
        <ele>661.089</ele>
        <time>2018-09-10T12:39:57Z</time>
      </trkpt>
      <trkpt lat="45.84097" lon="4.25548">
        <ele>661.091</ele>
        <time>2018-09-10T12:40:03Z</time>
      </trkpt>
      <trkpt lat="45.84096" lon="4.25543">
        <ele>660.741</ele>
        <time>2018-09-10T12:40:09Z</time>
      </trkpt>
      <trkpt lat="45.84095" lon="4.25541">
        <ele>660.453</ele>
        <time>2018-09-10T12:40:15Z</time>
      </trkpt>
      <trkpt lat="45.84095" lon="4.25541">
        <ele>660.178</ele>
        <time>2018-09-10T12:40:21Z</time>
      </trkpt>
      <trkpt lat="45.84095" lon="4.25542">
        <ele>659.758</ele>
        <time>2018-09-10T12:40:26Z</time>
      </trkpt>
      <trkpt lat="45.84094" lon="4.25542">
        <ele>659.653</ele>
        <time>2018-09-10T12:40:32Z</time>
      </trkpt>
      <trkpt lat="45.84093" lon="4.25541">
        <ele>659.633</ele>
        <time>2018-09-10T12:40:38Z</time>
      </trkpt>
      <trkpt lat="45.84091" lon="4.25541">
        <ele>659.822</ele>
        <time>2018-09-10T12:40:43Z</time>
      </trkpt>
      <trkpt lat="45.84091" lon="4.25541">
        <ele>659.849</ele>
        <time>2018-09-10T12:40:49Z</time>
      </trkpt>
      <trkpt lat="45.84091" lon="4.25542">
        <ele>659.39</ele>
        <time>2018-09-10T12:40:54Z</time>
      </trkpt>
      <trkpt lat="45.84092" lon="4.25542">
        <ele>658.687</ele>
        <time>2018-09-10T12:41:00Z</time>
      </trkpt>
      <trkpt lat="45.84093" lon="4.25542">
        <ele>658.344</ele>
        <time>2018-09-10T12:41:05Z</time>
      </trkpt>
      <trkpt lat="45.84094" lon="4.25544">
        <ele>658.363</ele>
        <time>2018-09-10T12:41:11Z</time>
      </trkpt>
      <trkpt lat="45.84093" lon="4.25543">
        <ele>658.158</ele>
        <time>2018-09-10T12:41:16Z</time>
      </trkpt>
      <trkpt lat="45.84093" lon="4.25544">
        <ele>658.144</ele>
        <time>2018-09-10T12:41:22Z</time>
      </trkpt>
      <trkpt lat="45.84093" lon="4.25544">
        <ele>658.227</ele>
        <time>2018-09-10T12:41:27Z</time>
      </trkpt>
      <trkpt lat="45.84093" lon="4.25543">
        <ele>658.222</ele>
        <time>2018-09-10T12:41:33Z</time>
      </trkpt>
      <trkpt lat="45.84094" lon="4.25543">
        <ele>658.533</ele>
        <time>2018-09-10T12:41:39Z</time>
      </trkpt>
      <trkpt lat="45.84093" lon="4.25542">
        <ele>659.178</ele>
        <time>2018-09-10T12:41:45Z</time>
      </trkpt>
      <trkpt lat="45.84091" lon="4.25541">
        <ele>659.8</ele>
        <time>2018-09-10T12:41:51Z</time>
      </trkpt>
      <trkpt lat="45.84092" lon="4.2554">
        <ele>660.146</ele>
        <time>2018-09-10T12:41:56Z</time>
      </trkpt>
      <trkpt lat="45.84093" lon="4.2554">
        <ele>660.728</ele>
        <time>2018-09-10T12:42:02Z</time>
      </trkpt>
      <trkpt lat="45.84093" lon="4.2554">
        <ele>661.095</ele>
        <time>2018-09-10T12:42:07Z</time>
      </trkpt>
      <trkpt lat="45.84093" lon="4.25541">
        <ele>661.437</ele>
        <time>2018-09-10T12:42:13Z</time>
      </trkpt>
      <trkpt lat="45.84092" lon="4.25541">
        <ele>661.336</ele>
        <time>2018-09-10T12:42:19Z</time>
      </trkpt>
      <trkpt lat="45.84091" lon="4.25541">
        <ele>661.346</ele>
        <time>2018-09-10T12:42:24Z</time>
      </trkpt>
      <trkpt lat="45.84089" lon="4.2554">
        <ele>661.808</ele>
        <time>2018-09-10T12:42:30Z</time>
      </trkpt>
      <trkpt lat="45.84089" lon="4.2554">
        <ele>662.022</ele>
        <time>2018-09-10T12:42:35Z</time>
      </trkpt>
      <trkpt lat="45.8409" lon="4.2554">
        <ele>661.857</ele>
        <time>2018-09-10T12:42:41Z</time>
      </trkpt>
      <trkpt lat="45.84092" lon="4.25539">
        <ele>661.866</ele>
        <time>2018-09-10T12:42:46Z</time>
      </trkpt>
      <trkpt lat="45.84092" lon="4.25542">
        <ele>661.794</ele>
        <time>2018-09-10T12:42:52Z</time>
      </trkpt>
      <trkpt lat="45.84093" lon="4.25542">
        <ele>661.59</ele>
        <time>2018-09-10T12:42:57Z</time>
      </trkpt>
      <trkpt lat="45.84093" lon="4.2554">
        <ele>661.446</ele>
        <time>2018-09-10T12:43:02Z</time>
      </trkpt>
      <trkpt lat="45.84094" lon="4.25539">
        <ele>660.792</ele>
        <time>2018-09-10T12:43:08Z</time>
      </trkpt>
      <trkpt lat="45.84093" lon="4.2554">
        <ele>660.651</ele>
        <time>2018-09-10T12:43:13Z</time>
      </trkpt>
      <trkpt lat="45.84093" lon="4.2554">
        <ele>659.553</ele>
        <time>2018-09-10T12:43:18Z</time>
      </trkpt>
      <trkpt lat="45.84094" lon="4.25542">
        <ele>658.845</ele>
        <time>2018-09-10T12:43:24Z</time>
      </trkpt>
      <trkpt lat="45.84096" lon="4.25542">
        <ele>658.127</ele>
        <time>2018-09-10T12:43:30Z</time>
      </trkpt>
      <trkpt lat="45.84096" lon="4.25543">
        <ele>657.521</ele>
        <time>2018-09-10T12:43:36Z</time>
      </trkpt>
      <trkpt lat="45.84096" lon="4.25544">
        <ele>657.257</ele>
        <time>2018-09-10T12:43:41Z</time>
      </trkpt>
      <trkpt lat="45.84094" lon="4.25546">
        <ele>656.754</ele>
        <time>2018-09-10T12:43:47Z</time>
      </trkpt>
      <trkpt lat="45.84093" lon="4.25548">
        <ele>656.476</ele>
        <time>2018-09-10T12:43:52Z</time>
      </trkpt>
      <trkpt lat="45.84094" lon="4.25549">
        <ele>656.156</ele>
        <time>2018-09-10T12:43:58Z</time>
      </trkpt>
      <trkpt lat="45.84093" lon="4.25546">
        <ele>656.177</ele>
        <time>2018-09-10T12:44:04Z</time>
      </trkpt>
      <trkpt lat="45.84093" lon="4.25546">
        <ele>656.042</ele>
        <time>2018-09-10T12:44:10Z</time>
      </trkpt>
      <trkpt lat="45.84092" lon="4.25546">
        <ele>656.119</ele>
        <time>2018-09-10T12:44:15Z</time>
      </trkpt>
      <trkpt lat="45.84093" lon="4.25546">
        <ele>656.465</ele>
        <time>2018-09-10T12:44:20Z</time>
      </trkpt>
      <trkpt lat="45.84092" lon="4.25545">
        <ele>656.563</ele>
        <time>2018-09-10T12:44:26Z</time>
      </trkpt>
      <trkpt lat="45.8409" lon="4.25544">
        <ele>656.638</ele>
        <time>2018-09-10T12:44:31Z</time>
      </trkpt>
      <trkpt lat="45.8409" lon="4.25543">
        <ele>656.861</ele>
        <time>2018-09-10T12:44:36Z</time>
      </trkpt>
      <trkpt lat="45.8409" lon="4.25543">
        <ele>657.113</ele>
        <time>2018-09-10T12:44:42Z</time>
      </trkpt>
      <trkpt lat="45.8409" lon="4.25543">
        <ele>657.13</ele>
        <time>2018-09-10T12:44:47Z</time>
      </trkpt>
      <trkpt lat="45.8409" lon="4.25543">
        <ele>657.132</ele>
        <time>2018-09-10T12:44:52Z</time>
      </trkpt>
      <trkpt lat="45.8409" lon="4.25543">
        <ele>657.149</ele>
        <time>2018-09-10T12:44:58Z</time>
      </trkpt>
      <trkpt lat="45.8409" lon="4.25543">
        <ele>657.162</ele>
        <time>2018-09-10T12:45:04Z</time>
      </trkpt>
      <trkpt lat="45.8409" lon="4.25543">
        <ele>657.122</ele>
        <time>2018-09-10T12:45:10Z</time>
      </trkpt>
      <trkpt lat="45.8409" lon="4.25543">
        <ele>657.054</ele>
        <time>2018-09-10T12:45:16Z</time>
      </trkpt>
      <trkpt lat="45.8409" lon="4.25543">
        <ele>656.976</ele>
        <time>2018-09-10T12:45:22Z</time>
      </trkpt>
      <trkpt lat="45.8409" lon="4.25543">
        <ele>656.932</ele>
        <time>2018-09-10T12:45:27Z</time>
      </trkpt>
      <trkpt lat="45.8409" lon="4.25543">
        <ele>656.903</ele>
        <time>2018-09-10T12:45:33Z</time>
      </trkpt>
      <trkpt lat="45.8409" lon="4.25543">
        <ele>656.91</ele>
        <time>2018-09-10T12:45:39Z</time>
      </trkpt>
      <trkpt lat="45.8409" lon="4.25543">
        <ele>656.962</ele>
        <time>2018-09-10T12:45:45Z</time>
      </trkpt>
      <trkpt lat="45.8409" lon="4.25543">
        <ele>657.048</ele>
        <time>2018-09-10T12:45:51Z</time>
      </trkpt>
      <trkpt lat="45.84088" lon="4.25541">
        <ele>657.363</ele>
        <time>2018-09-10T12:45:56Z</time>
      </trkpt>
      <trkpt lat="45.84086" lon="4.25533">
        <ele>657.878</ele>
        <time>2018-09-10T12:46:02Z</time>
      </trkpt>
      <trkpt lat="45.84083" lon="4.25528">
        <ele>657.817</ele>
        <time>2018-09-10T12:46:07Z</time>
      </trkpt>
      <trkpt lat="45.84081" lon="4.25522">
        <ele>657.264</ele>
        <time>2018-09-10T12:46:13Z</time>
      </trkpt>
      <trkpt lat="45.8408" lon="4.25521">
        <ele>657.01</ele>
        <time>2018-09-10T12:46:18Z</time>
      </trkpt>
      <trkpt lat="45.84077" lon="4.25515">
        <ele>656.547</ele>
        <time>2018-09-10T12:46:24Z</time>
      </trkpt>
      <trkpt lat="45.84073" lon="4.25509">
        <ele>656.285</ele>
        <time>2018-09-10T12:46:30Z</time>
      </trkpt>
      <trkpt lat="45.84071" lon="4.25504">
        <ele>656.015</ele>
        <time>2018-09-10T12:46:36Z</time>
      </trkpt>
      <trkpt lat="45.8407" lon="4.255">
        <ele>655.397</ele>
        <time>2018-09-10T12:46:41Z</time>
      </trkpt>
      <trkpt lat="45.84066" lon="4.25493">
        <ele>654.664</ele>
        <time>2018-09-10T12:46:47Z</time>
      </trkpt>
      <trkpt lat="45.84063" lon="4.25488">
        <ele>653.823</ele>
        <time>2018-09-10T12:46:52Z</time>
      </trkpt>
      <trkpt lat="45.84058" lon="4.25482">
        <ele>652.89</ele>
        <time>2018-09-10T12:46:58Z</time>
      </trkpt>
      <trkpt lat="45.84055" lon="4.25474">
        <ele>652.007</ele>
        <time>2018-09-10T12:47:03Z</time>
      </trkpt>
      <trkpt lat="45.8405" lon="4.25467">
        <ele>650.876</ele>
        <time>2018-09-10T12:47:09Z</time>
      </trkpt>
      <trkpt lat="45.84046" lon="4.25461">
        <ele>649.965</ele>
        <time>2018-09-10T12:47:15Z</time>
      </trkpt>
      <trkpt lat="45.84043" lon="4.25455">
        <ele>649.023</ele>
        <time>2018-09-10T12:47:21Z</time>
      </trkpt>
      <trkpt lat="45.84039" lon="4.25448">
        <ele>648.08</ele>
        <time>2018-09-10T12:47:26Z</time>
      </trkpt>
      <trkpt lat="45.84034" lon="4.25439">
        <ele>647.229</ele>
        <time>2018-09-10T12:47:32Z</time>
      </trkpt>
      <trkpt lat="45.8403" lon="4.25431">
        <ele>646.56</ele>
        <time>2018-09-10T12:47:38Z</time>
      </trkpt>
      <trkpt lat="45.84026" lon="4.25426">
        <ele>646.05</ele>
        <time>2018-09-10T12:47:43Z</time>
      </trkpt>
      <trkpt lat="45.84022" lon="4.2542">
        <ele>645.42</ele>
        <time>2018-09-10T12:47:48Z</time>
      </trkpt>
      <trkpt lat="45.84018" lon="4.25414">
        <ele>644.753</ele>
        <time>2018-09-10T12:47:54Z</time>
      </trkpt>
      <trkpt lat="45.84014" lon="4.25408">
        <ele>643.885</ele>
        <time>2018-09-10T12:48:00Z</time>
      </trkpt>
      <trkpt lat="45.84009" lon="4.25403">
        <ele>642.797</ele>
        <time>2018-09-10T12:48:06Z</time>
      </trkpt>
      <trkpt lat="45.84006" lon="4.25398">
        <ele>641.977</ele>
        <time>2018-09-10T12:48:11Z</time>
      </trkpt>
      <trkpt lat="45.84" lon="4.25389">
        <ele>641.297</ele>
        <time>2018-09-10T12:48:17Z</time>
      </trkpt>
      <trkpt lat="45.83997" lon="4.25383">
        <ele>640.344</ele>
        <time>2018-09-10T12:48:23Z</time>
      </trkpt>
      <trkpt lat="45.83993" lon="4.25378">
        <ele>639.715</ele>
        <time>2018-09-10T12:48:29Z</time>
      </trkpt>
      <trkpt lat="45.8399" lon="4.25372">
        <ele>638.966</ele>
        <time>2018-09-10T12:48:34Z</time>
      </trkpt>
      <trkpt lat="45.83986" lon="4.25366">
        <ele>638.373</ele>
        <time>2018-09-10T12:48:39Z</time>
      </trkpt>
      <trkpt lat="45.83981" lon="4.25357">
        <ele>637.582</ele>
        <time>2018-09-10T12:48:45Z</time>
      </trkpt>
      <trkpt lat="45.83978" lon="4.25351">
        <ele>637.04</ele>
        <time>2018-09-10T12:48:51Z</time>
      </trkpt>
      <trkpt lat="45.83975" lon="4.25346">
        <ele>636.676</ele>
        <time>2018-09-10T12:48:56Z</time>
      </trkpt>
      <trkpt lat="45.83971" lon="4.25335">
        <ele>636.545</ele>
        <time>2018-09-10T12:49:02Z</time>
      </trkpt>
      <trkpt lat="45.83967" lon="4.25324">
        <ele>636.442</ele>
        <time>2018-09-10T12:49:08Z</time>
      </trkpt>
      <trkpt lat="45.83965" lon="4.25318">
        <ele>636.475</ele>
        <time>2018-09-10T12:49:13Z</time>
      </trkpt>
      <trkpt lat="45.83961" lon="4.2531">
        <ele>636.319</ele>
        <time>2018-09-10T12:49:19Z</time>
      </trkpt>
      <trkpt lat="45.83959" lon="4.25305">
        <ele>636.236</ele>
        <time>2018-09-10T12:49:24Z</time>
      </trkpt>
      <trkpt lat="45.83955" lon="4.25295">
        <ele>635.706</ele>
        <time>2018-09-10T12:49:30Z</time>
      </trkpt>
      <trkpt lat="45.83953" lon="4.25287">
        <ele>635.1</ele>
        <time>2018-09-10T12:49:35Z</time>
      </trkpt>
      <trkpt lat="45.8395" lon="4.25277">
        <ele>634.284</ele>
        <time>2018-09-10T12:49:41Z</time>
      </trkpt>
      <trkpt lat="45.83948" lon="4.2527">
        <ele>633.525</ele>
        <time>2018-09-10T12:49:46Z</time>
      </trkpt>
      <trkpt lat="45.83946" lon="4.25263">
        <ele>632.868</ele>
        <time>2018-09-10T12:49:51Z</time>
      </trkpt>
      <trkpt lat="45.83943" lon="4.25253">
        <ele>632.353</ele>
        <time>2018-09-10T12:49:57Z</time>
      </trkpt>
      <trkpt lat="45.83941" lon="4.25247">
        <ele>631.964</ele>
        <time>2018-09-10T12:50:02Z</time>
      </trkpt>
      <trkpt lat="45.8394" lon="4.2524">
        <ele>631.58</ele>
        <time>2018-09-10T12:50:07Z</time>
      </trkpt>
      <trkpt lat="45.83939" lon="4.25231">
        <ele>631.379</ele>
        <time>2018-09-10T12:50:13Z</time>
      </trkpt>
      <trkpt lat="45.83938" lon="4.25222">
        <ele>631.447</ele>
        <time>2018-09-10T12:50:18Z</time>
      </trkpt>
      <trkpt lat="45.83938" lon="4.25212">
        <ele>631.627</ele>
        <time>2018-09-10T12:50:24Z</time>
      </trkpt>
      <trkpt lat="45.83938" lon="4.25204">
        <ele>631.101</ele>
        <time>2018-09-10T12:50:30Z</time>
      </trkpt>
      <trkpt lat="45.83939" lon="4.25195">
        <ele>630.672</ele>
        <time>2018-09-10T12:50:36Z</time>
      </trkpt>
      <trkpt lat="45.83939" lon="4.25188">
        <ele>630.462</ele>
        <time>2018-09-10T12:50:41Z</time>
      </trkpt>
      <trkpt lat="45.83938" lon="4.25176">
        <ele>630.571</ele>
        <time>2018-09-10T12:50:47Z</time>
      </trkpt>
      <trkpt lat="45.83938" lon="4.25165">
        <ele>630.929</ele>
        <time>2018-09-10T12:50:52Z</time>
      </trkpt>
      <trkpt lat="45.83937" lon="4.25154">
        <ele>631.715</ele>
        <time>2018-09-10T12:50:58Z</time>
      </trkpt>
      <trkpt lat="45.83937" lon="4.25146">
        <ele>632.079</ele>
        <time>2018-09-10T12:51:03Z</time>
      </trkpt>
      <trkpt lat="45.83937" lon="4.25137">
        <ele>632.482</ele>
        <time>2018-09-10T12:51:09Z</time>
      </trkpt>
      <trkpt lat="45.83937" lon="4.25131">
        <ele>632.461</ele>
        <time>2018-09-10T12:51:14Z</time>
      </trkpt>
      <trkpt lat="45.83937" lon="4.25121">
        <ele>632.42</ele>
        <time>2018-09-10T12:51:20Z</time>
      </trkpt>
      <trkpt lat="45.83935" lon="4.25113">
        <ele>632.314</ele>
        <time>2018-09-10T12:51:25Z</time>
      </trkpt>
      <trkpt lat="45.83932" lon="4.25105">
        <ele>632.176</ele>
        <time>2018-09-10T12:51:31Z</time>
      </trkpt>
      <trkpt lat="45.83929" lon="4.251">
        <ele>631.981</ele>
        <time>2018-09-10T12:51:36Z</time>
      </trkpt>
      <trkpt lat="45.83925" lon="4.25093">
        <ele>631.582</ele>
        <time>2018-09-10T12:51:42Z</time>
      </trkpt>
      <trkpt lat="45.83919" lon="4.25087">
        <ele>631.238</ele>
        <time>2018-09-10T12:51:48Z</time>
      </trkpt>
      <trkpt lat="45.83914" lon="4.25083">
        <ele>630.521</ele>
        <time>2018-09-10T12:51:54Z</time>
      </trkpt>
      <trkpt lat="45.83908" lon="4.25078">
        <ele>630.252</ele>
        <time>2018-09-10T12:51:59Z</time>
      </trkpt>
      <trkpt lat="45.83903" lon="4.25073">
        <ele>630.073</ele>
        <time>2018-09-10T12:52:05Z</time>
      </trkpt>
      <trkpt lat="45.839" lon="4.2507">
        <ele>630.088</ele>
        <time>2018-09-10T12:52:10Z</time>
      </trkpt>
      <trkpt lat="45.83896" lon="4.25066">
        <ele>629.91</ele>
        <time>2018-09-10T12:52:15Z</time>
      </trkpt>
      <trkpt lat="45.83891" lon="4.2506">
        <ele>629.738</ele>
        <time>2018-09-10T12:52:21Z</time>
      </trkpt>
      <trkpt lat="45.83886" lon="4.25055">
        <ele>629.575</ele>
        <time>2018-09-10T12:52:26Z</time>
      </trkpt>
      <trkpt lat="45.8388" lon="4.25049">
        <ele>629.834</ele>
        <time>2018-09-10T12:52:32Z</time>
      </trkpt>
      <trkpt lat="45.83875" lon="4.25045">
        <ele>629.744</ele>
        <time>2018-09-10T12:52:37Z</time>
      </trkpt>
      <trkpt lat="45.83871" lon="4.25038">
        <ele>629.736</ele>
        <time>2018-09-10T12:52:43Z</time>
      </trkpt>
      <trkpt lat="45.83866" lon="4.25035">
        <ele>629.826</ele>
        <time>2018-09-10T12:52:48Z</time>
      </trkpt>
      <trkpt lat="45.83862" lon="4.25028">
        <ele>629.817</ele>
        <time>2018-09-10T12:52:53Z</time>
      </trkpt>
      <trkpt lat="45.83856" lon="4.25023">
        <ele>629.711</ele>
        <time>2018-09-10T12:52:59Z</time>
      </trkpt>
      <trkpt lat="45.83852" lon="4.25016">
        <ele>629.428</ele>
        <time>2018-09-10T12:53:05Z</time>
      </trkpt>
      <trkpt lat="45.83848" lon="4.25009">
        <ele>629.446</ele>
        <time>2018-09-10T12:53:10Z</time>
      </trkpt>
      <trkpt lat="45.83843" lon="4.25002">
        <ele>629.479</ele>
        <time>2018-09-10T12:53:16Z</time>
      </trkpt>
      <trkpt lat="45.8384" lon="4.24996">
        <ele>629.434</ele>
        <time>2018-09-10T12:53:21Z</time>
      </trkpt>
      <trkpt lat="45.83836" lon="4.24987">
        <ele>629.565</ele>
        <time>2018-09-10T12:53:27Z</time>
      </trkpt>
      <trkpt lat="45.83832" lon="4.24978">
        <ele>629.366</ele>
        <time>2018-09-10T12:53:33Z</time>
      </trkpt>
      <trkpt lat="45.83829" lon="4.24968">
        <ele>629.335</ele>
        <time>2018-09-10T12:53:39Z</time>
      </trkpt>
      <trkpt lat="45.83827" lon="4.24961">
        <ele>629.16</ele>
        <time>2018-09-10T12:53:45Z</time>
      </trkpt>
      <trkpt lat="45.83824" lon="4.24952">
        <ele>629.069</ele>
        <time>2018-09-10T12:53:51Z</time>
      </trkpt>
      <trkpt lat="45.83822" lon="4.24941">
        <ele>628.658</ele>
        <time>2018-09-10T12:53:57Z</time>
      </trkpt>
      <trkpt lat="45.8382" lon="4.24934">
        <ele>628.419</ele>
        <time>2018-09-10T12:54:02Z</time>
      </trkpt>
      <trkpt lat="45.83818" lon="4.24924">
        <ele>628.186</ele>
        <time>2018-09-10T12:54:08Z</time>
      </trkpt>
      <trkpt lat="45.83815" lon="4.24917">
        <ele>627.831</ele>
        <time>2018-09-10T12:54:14Z</time>
      </trkpt>
      <trkpt lat="45.83813" lon="4.24908">
        <ele>627.427</ele>
        <time>2018-09-10T12:54:19Z</time>
      </trkpt>
      <trkpt lat="45.83812" lon="4.24898">
        <ele>626.944</ele>
        <time>2018-09-10T12:54:25Z</time>
      </trkpt>
      <trkpt lat="45.8381" lon="4.24888">
        <ele>626.701</ele>
        <time>2018-09-10T12:54:31Z</time>
      </trkpt>
      <trkpt lat="45.83809" lon="4.24879">
        <ele>626.548</ele>
        <time>2018-09-10T12:54:36Z</time>
      </trkpt>
      <trkpt lat="45.83807" lon="4.24872">
        <ele>626.379</ele>
        <time>2018-09-10T12:54:41Z</time>
      </trkpt>
      <trkpt lat="45.83806" lon="4.2487">
        <ele>626.121</ele>
        <time>2018-09-10T12:54:47Z</time>
      </trkpt>
      <trkpt lat="45.83802" lon="4.24865">
        <ele>625.606</ele>
        <time>2018-09-10T12:54:52Z</time>
      </trkpt>
      <trkpt lat="45.838" lon="4.24857">
        <ele>625.497</ele>
        <time>2018-09-10T12:54:57Z</time>
      </trkpt>
      <trkpt lat="45.83796" lon="4.24845">
        <ele>625.669</ele>
        <time>2018-09-10T12:55:03Z</time>
      </trkpt>
      <trkpt lat="45.83793" lon="4.24838">
        <ele>625.868</ele>
        <time>2018-09-10T12:55:09Z</time>
      </trkpt>
      <trkpt lat="45.83789" lon="4.24831">
        <ele>625.746</ele>
        <time>2018-09-10T12:55:15Z</time>
      </trkpt>
      <trkpt lat="45.83786" lon="4.24825">
        <ele>625.563</ele>
        <time>2018-09-10T12:55:21Z</time>
      </trkpt>
      <trkpt lat="45.83785" lon="4.24825">
        <ele>625.502</ele>
        <time>2018-09-10T12:55:26Z</time>
      </trkpt>
      <trkpt lat="45.83786" lon="4.24824">
        <ele>625.554</ele>
        <time>2018-09-10T12:55:31Z</time>
      </trkpt>
      <trkpt lat="45.83787" lon="4.24824">
        <ele>625.88</ele>
        <time>2018-09-10T12:55:37Z</time>
      </trkpt>
      <trkpt lat="45.83788" lon="4.24824">
        <ele>626.105</ele>
        <time>2018-09-10T12:55:43Z</time>
      </trkpt>
      <trkpt lat="45.83787" lon="4.24823">
        <ele>626.322</ele>
        <time>2018-09-10T12:55:49Z</time>
      </trkpt>
      <trkpt lat="45.83786" lon="4.24818">
        <ele>626.464</ele>
        <time>2018-09-10T12:55:55Z</time>
      </trkpt>
      <trkpt lat="45.83782" lon="4.24812">
        <ele>626.358</ele>
        <time>2018-09-10T12:56:00Z</time>
      </trkpt>
      <trkpt lat="45.83779" lon="4.24806">
        <ele>626.3</ele>
        <time>2018-09-10T12:56:05Z</time>
      </trkpt>
      <trkpt lat="45.83777" lon="4.24797">
        <ele>625.641</ele>
        <time>2018-09-10T12:56:11Z</time>
      </trkpt>
      <trkpt lat="45.83772" lon="4.24789">
        <ele>625.083</ele>
        <time>2018-09-10T12:56:16Z</time>
      </trkpt>
      <trkpt lat="45.83768" lon="4.24775">
        <ele>624.608</ele>
        <time>2018-09-10T12:56:22Z</time>
      </trkpt>
      <trkpt lat="45.83765" lon="4.24767">
        <ele>624.163</ele>
        <time>2018-09-10T12:56:28Z</time>
      </trkpt>
      <trkpt lat="45.83762" lon="4.24762">
        <ele>623.562</ele>
        <time>2018-09-10T12:56:33Z</time>
      </trkpt>
      <trkpt lat="45.8376" lon="4.24753">
        <ele>622.755</ele>
        <time>2018-09-10T12:56:38Z</time>
      </trkpt>
      <trkpt lat="45.83758" lon="4.24744">
        <ele>621.828</ele>
        <time>2018-09-10T12:56:44Z</time>
      </trkpt>
      <trkpt lat="45.83756" lon="4.2474">
        <ele>621.221</ele>
        <time>2018-09-10T12:56:49Z</time>
      </trkpt>
      <trkpt lat="45.83753" lon="4.24731">
        <ele>620.627</ele>
        <time>2018-09-10T12:56:55Z</time>
      </trkpt>
      <trkpt lat="45.83751" lon="4.24722">
        <ele>619.777</ele>
        <time>2018-09-10T12:57:01Z</time>
      </trkpt>
      <trkpt lat="45.83748" lon="4.24713">
        <ele>618.346</ele>
        <time>2018-09-10T12:57:07Z</time>
      </trkpt>
      <trkpt lat="45.83748" lon="4.24705">
        <ele>617.415</ele>
        <time>2018-09-10T12:57:12Z</time>
      </trkpt>
      <trkpt lat="45.83745" lon="4.24698">
        <ele>616.724</ele>
        <time>2018-09-10T12:57:18Z</time>
      </trkpt>
      <trkpt lat="45.83744" lon="4.24691">
        <ele>616.066</ele>
        <time>2018-09-10T12:57:23Z</time>
      </trkpt>
      <trkpt lat="45.8374" lon="4.24683">
        <ele>614.989</ele>
        <time>2018-09-10T12:57:29Z</time>
      </trkpt>
      <trkpt lat="45.83737" lon="4.24675">
        <ele>614.428</ele>
        <time>2018-09-10T12:57:35Z</time>
      </trkpt>
      <trkpt lat="45.83736" lon="4.24669">
        <ele>614.105</ele>
        <time>2018-09-10T12:57:40Z</time>
      </trkpt>
      <trkpt lat="45.83733" lon="4.24657">
        <ele>613.637</ele>
        <time>2018-09-10T12:57:46Z</time>
      </trkpt>
      <trkpt lat="45.83734" lon="4.24651">
        <ele>613.008</ele>
        <time>2018-09-10T12:57:52Z</time>
      </trkpt>
      <trkpt lat="45.83733" lon="4.24642">
        <ele>612.904</ele>
        <time>2018-09-10T12:57:57Z</time>
      </trkpt>
      <trkpt lat="45.83732" lon="4.24632">
        <ele>612.469</ele>
        <time>2018-09-10T12:58:03Z</time>
      </trkpt>
      <trkpt lat="45.83732" lon="4.24625">
        <ele>612.016</ele>
        <time>2018-09-10T12:58:08Z</time>
      </trkpt>
      <trkpt lat="45.83733" lon="4.24614">
        <ele>611.234</ele>
        <time>2018-09-10T12:58:14Z</time>
      </trkpt>
      <trkpt lat="45.83734" lon="4.24606">
        <ele>610.796</ele>
        <time>2018-09-10T12:58:20Z</time>
      </trkpt>
      <trkpt lat="45.83733" lon="4.24599">
        <ele>610.422</ele>
        <time>2018-09-10T12:58:25Z</time>
      </trkpt>
      <trkpt lat="45.83733" lon="4.24592">
        <ele>610.024</ele>
        <time>2018-09-10T12:58:30Z</time>
      </trkpt>
      <trkpt lat="45.83733" lon="4.24583">
        <ele>609.795</ele>
        <time>2018-09-10T12:58:36Z</time>
      </trkpt>
      <trkpt lat="45.83733" lon="4.24574">
        <ele>609.242</ele>
        <time>2018-09-10T12:58:41Z</time>
      </trkpt>
      <trkpt lat="45.83734" lon="4.24562">
        <ele>608.532</ele>
        <time>2018-09-10T12:58:47Z</time>
      </trkpt>
      <trkpt lat="45.83735" lon="4.24556">
        <ele>607.717</ele>
        <time>2018-09-10T12:58:52Z</time>
      </trkpt>
      <trkpt lat="45.83736" lon="4.24552">
        <ele>607.197</ele>
        <time>2018-09-10T12:58:58Z</time>
      </trkpt>
      <trkpt lat="45.83736" lon="4.24552">
        <ele>606.448</ele>
        <time>2018-09-10T12:59:04Z</time>
      </trkpt>
      <trkpt lat="45.8374" lon="4.24545">
        <ele>606.029</ele>
        <time>2018-09-10T12:59:10Z</time>
      </trkpt>
      <trkpt lat="45.83742" lon="4.24537">
        <ele>605.679</ele>
        <time>2018-09-10T12:59:15Z</time>
      </trkpt>
      <trkpt lat="45.83744" lon="4.24529">
        <ele>605.372</ele>
        <time>2018-09-10T12:59:21Z</time>
      </trkpt>
      <trkpt lat="45.83745" lon="4.24526">
        <ele>604.803</ele>
        <time>2018-09-10T12:59:26Z</time>
      </trkpt>
      <trkpt lat="45.83746" lon="4.24517">
        <ele>604.317</ele>
        <time>2018-09-10T12:59:32Z</time>
      </trkpt>
      <trkpt lat="45.83747" lon="4.24508">
        <ele>603.762</ele>
        <time>2018-09-10T12:59:38Z</time>
      </trkpt>
      <trkpt lat="45.83748" lon="4.24502">
        <ele>603.526</ele>
        <time>2018-09-10T12:59:44Z</time>
      </trkpt>
      <trkpt lat="45.83749" lon="4.24497">
        <ele>603.412</ele>
        <time>2018-09-10T12:59:50Z</time>
      </trkpt>
      <trkpt lat="45.83748" lon="4.24495">
        <ele>603.299</ele>
        <time>2018-09-10T12:59:56Z</time>
      </trkpt>
      <trkpt lat="45.83746" lon="4.24495">
        <ele>602.472</ele>
        <time>2018-09-10T13:00:02Z</time>
      </trkpt>
      <trkpt lat="45.83745" lon="4.24497">
        <ele>602.192</ele>
        <time>2018-09-10T13:00:07Z</time>
      </trkpt>
      <trkpt lat="45.83745" lon="4.24497">
        <ele>602.131</ele>
        <time>2018-09-10T13:00:12Z</time>
      </trkpt>
      <trkpt lat="45.83747" lon="4.24495">
        <ele>602.124</ele>
        <time>2018-09-10T13:00:17Z</time>
      </trkpt>
      <trkpt lat="45.83747" lon="4.24493">
        <ele>602.095</ele>
        <time>2018-09-10T13:00:23Z</time>
      </trkpt>
      <trkpt lat="45.83747" lon="4.24491">
        <ele>602.421</ele>
        <time>2018-09-10T13:00:28Z</time>
      </trkpt>
      <trkpt lat="45.83746" lon="4.2449">
        <ele>602.666</ele>
        <time>2018-09-10T13:00:34Z</time>
      </trkpt>
      <trkpt lat="45.83747" lon="4.2449">
        <ele>602.553</ele>
        <time>2018-09-10T13:00:39Z</time>
      </trkpt>
      <trkpt lat="45.8375" lon="4.24492">
        <ele>602.415</ele>
        <time>2018-09-10T13:00:45Z</time>
      </trkpt>
      <trkpt lat="45.83751" lon="4.24493">
        <ele>602.919</ele>
        <time>2018-09-10T13:00:51Z</time>
      </trkpt>
      <trkpt lat="45.83751" lon="4.24491">
        <ele>603.093</ele>
        <time>2018-09-10T13:00:57Z</time>
      </trkpt>
      <trkpt lat="45.83749" lon="4.24492">
        <ele>602.796</ele>
        <time>2018-09-10T13:01:03Z</time>
      </trkpt>
      <trkpt lat="45.83749" lon="4.24491">
        <ele>602.442</ele>
        <time>2018-09-10T13:01:09Z</time>
      </trkpt>
      <trkpt lat="45.83749" lon="4.2449">
        <ele>602.017</ele>
        <time>2018-09-10T13:01:14Z</time>
      </trkpt>
      <trkpt lat="45.83749" lon="4.2449">
        <ele>601.564</ele>
        <time>2018-09-10T13:01:19Z</time>
      </trkpt>
      <trkpt lat="45.83749" lon="4.24489">
        <ele>601.161</ele>
        <time>2018-09-10T13:01:24Z</time>
      </trkpt>
      <trkpt lat="45.83749" lon="4.2449">
        <ele>600.861</ele>
        <time>2018-09-10T13:01:30Z</time>
      </trkpt>
      <trkpt lat="45.83749" lon="4.2449">
        <ele>600.768</ele>
        <time>2018-09-10T13:01:35Z</time>
      </trkpt>
      <trkpt lat="45.83749" lon="4.24492">
        <ele>600.369</ele>
        <time>2018-09-10T13:01:41Z</time>
      </trkpt>
      <trkpt lat="45.83746" lon="4.24495">
        <ele>600.44</ele>
        <time>2018-09-10T13:01:47Z</time>
      </trkpt>
      <trkpt lat="45.83745" lon="4.24499">
        <ele>600.592</ele>
        <time>2018-09-10T13:01:53Z</time>
      </trkpt>
      <trkpt lat="45.83743" lon="4.245">
        <ele>600.94</ele>
        <time>2018-09-10T13:01:58Z</time>
      </trkpt>
      <trkpt lat="45.83743" lon="4.24501">
        <ele>600.992</ele>
        <time>2018-09-10T13:02:04Z</time>
      </trkpt>
      <trkpt lat="45.83744" lon="4.24503">
        <ele>601.329</ele>
        <time>2018-09-10T13:02:09Z</time>
      </trkpt>
      <trkpt lat="45.83745" lon="4.24502">
        <ele>601.788</ele>
        <time>2018-09-10T13:02:15Z</time>
      </trkpt>
      <trkpt lat="45.83746" lon="4.245">
        <ele>601.787</ele>
        <time>2018-09-10T13:02:21Z</time>
      </trkpt>
      <trkpt lat="45.83746" lon="4.24499">
        <ele>601.798</ele>
        <time>2018-09-10T13:02:26Z</time>
      </trkpt>
      <trkpt lat="45.83747" lon="4.24496">
        <ele>601.743</ele>
        <time>2018-09-10T13:02:31Z</time>
      </trkpt>
      <trkpt lat="45.83747" lon="4.24495">
        <ele>601.743</ele>
        <time>2018-09-10T13:02:37Z</time>
      </trkpt>
      <trkpt lat="45.83746" lon="4.24496">
        <ele>601.767</ele>
        <time>2018-09-10T13:02:42Z</time>
      </trkpt>
      <trkpt lat="45.83745" lon="4.24496">
        <ele>601.79</ele>
        <time>2018-09-10T13:02:47Z</time>
      </trkpt>
      <trkpt lat="45.83744" lon="4.24495">
        <ele>601.933</ele>
        <time>2018-09-10T13:02:53Z</time>
      </trkpt>
      <trkpt lat="45.83745" lon="4.24497">
        <ele>602.049</ele>
        <time>2018-09-10T13:02:58Z</time>
      </trkpt>
      <trkpt lat="45.83745" lon="4.24498">
        <ele>601.949</ele>
        <time>2018-09-10T13:03:05Z</time>
      </trkpt>
      <trkpt lat="45.83746" lon="4.24497">
        <ele>601.802</ele>
        <time>2018-09-10T13:03:11Z</time>
      </trkpt>
      <trkpt lat="45.83746" lon="4.24497">
        <ele>601.718</ele>
        <time>2018-09-10T13:03:17Z</time>
      </trkpt>
      <trkpt lat="45.83742" lon="4.24498">
        <ele>601.951</ele>
        <time>2018-09-10T13:03:22Z</time>
      </trkpt>
      <trkpt lat="45.83739" lon="4.24492">
        <ele>601.832</ele>
        <time>2018-09-10T13:03:28Z</time>
      </trkpt>
      <trkpt lat="45.83737" lon="4.24486">
        <ele>602.019</ele>
        <time>2018-09-10T13:03:33Z</time>
      </trkpt>
      <trkpt lat="45.83737" lon="4.24479">
        <ele>602.029</ele>
        <time>2018-09-10T13:03:39Z</time>
      </trkpt>
      <trkpt lat="45.83738" lon="4.2447">
        <ele>601.728</ele>
        <time>2018-09-10T13:03:45Z</time>
      </trkpt>
      <trkpt lat="45.8374" lon="4.24462">
        <ele>601.098</ele>
        <time>2018-09-10T13:03:51Z</time>
      </trkpt>
      <trkpt lat="45.8374" lon="4.24455">
        <ele>600.014</ele>
        <time>2018-09-10T13:03:56Z</time>
      </trkpt>
      <trkpt lat="45.83741" lon="4.24444">
        <ele>599.169</ele>
        <time>2018-09-10T13:04:01Z</time>
      </trkpt>
      <trkpt lat="45.83744" lon="4.24433">
        <ele>598.126</ele>
        <time>2018-09-10T13:04:07Z</time>
      </trkpt>
      <trkpt lat="45.83744" lon="4.24424">
        <ele>597.541</ele>
        <time>2018-09-10T13:04:12Z</time>
      </trkpt>
      <trkpt lat="45.83744" lon="4.24415">
        <ele>597.024</ele>
        <time>2018-09-10T13:04:18Z</time>
      </trkpt>
      <trkpt lat="45.83744" lon="4.24408">
        <ele>596.637</ele>
        <time>2018-09-10T13:04:23Z</time>
      </trkpt>
      <trkpt lat="45.83742" lon="4.24399">
        <ele>596.573</ele>
        <time>2018-09-10T13:04:29Z</time>
      </trkpt>
      <trkpt lat="45.83742" lon="4.24388">
        <ele>596.482</ele>
        <time>2018-09-10T13:04:35Z</time>
      </trkpt>
      <trkpt lat="45.83743" lon="4.2438">
        <ele>596.624</ele>
        <time>2018-09-10T13:04:40Z</time>
      </trkpt>
      <trkpt lat="45.83742" lon="4.24371">
        <ele>596.722</ele>
        <time>2018-09-10T13:04:46Z</time>
      </trkpt>
      <trkpt lat="45.8374" lon="4.24363">
        <ele>596.891</ele>
        <time>2018-09-10T13:04:52Z</time>
      </trkpt>
      <trkpt lat="45.83739" lon="4.24354">
        <ele>597.011</ele>
        <time>2018-09-10T13:04:58Z</time>
      </trkpt>
      <trkpt lat="45.83737" lon="4.24346">
        <ele>596.763</ele>
        <time>2018-09-10T13:05:04Z</time>
      </trkpt>
      <trkpt lat="45.83734" lon="4.24339">
        <ele>596.092</ele>
        <time>2018-09-10T13:05:10Z</time>
      </trkpt>
      <trkpt lat="45.8373" lon="4.24329">
        <ele>595.951</ele>
        <time>2018-09-10T13:05:16Z</time>
      </trkpt>
      <trkpt lat="45.83728" lon="4.24322">
        <ele>596.043</ele>
        <time>2018-09-10T13:05:22Z</time>
      </trkpt>
      <trkpt lat="45.83727" lon="4.24312">
        <ele>596.005</ele>
        <time>2018-09-10T13:05:27Z</time>
      </trkpt>
      <trkpt lat="45.83727" lon="4.24302">
        <ele>595.933</ele>
        <time>2018-09-10T13:05:32Z</time>
      </trkpt>
      <trkpt lat="45.83727" lon="4.24295">
        <ele>595.848</ele>
        <time>2018-09-10T13:05:38Z</time>
      </trkpt>
      <trkpt lat="45.83727" lon="4.2429">
        <ele>595.269</ele>
        <time>2018-09-10T13:05:44Z</time>
      </trkpt>
      <trkpt lat="45.83727" lon="4.24281">
        <ele>594.535</ele>
        <time>2018-09-10T13:05:50Z</time>
      </trkpt>
      <trkpt lat="45.83726" lon="4.24271">
        <ele>593.881</ele>
        <time>2018-09-10T13:05:55Z</time>
      </trkpt>
      <trkpt lat="45.83724" lon="4.24256">
        <ele>593.68</ele>
        <time>2018-09-10T13:06:01Z</time>
      </trkpt>
      <trkpt lat="45.83726" lon="4.24244">
        <ele>593.905</ele>
        <time>2018-09-10T13:06:07Z</time>
      </trkpt>
      <trkpt lat="45.83725" lon="4.24235">
        <ele>593.997</ele>
        <time>2018-09-10T13:06:12Z</time>
      </trkpt>
      <trkpt lat="45.83726" lon="4.24222">
        <ele>594.229</ele>
        <time>2018-09-10T13:06:18Z</time>
      </trkpt>
      <trkpt lat="45.83725" lon="4.24212">
        <ele>594.611</ele>
        <time>2018-09-10T13:06:23Z</time>
      </trkpt>
      <trkpt lat="45.83724" lon="4.24205">
        <ele>595.147</ele>
        <time>2018-09-10T13:06:29Z</time>
      </trkpt>
      <trkpt lat="45.83723" lon="4.24198">
        <ele>595.473</ele>
        <time>2018-09-10T13:06:34Z</time>
      </trkpt>
      <trkpt lat="45.8372" lon="4.24186">
        <ele>595.571</ele>
        <time>2018-09-10T13:06:40Z</time>
      </trkpt>
      <trkpt lat="45.83717" lon="4.24177">
        <ele>595.991</ele>
        <time>2018-09-10T13:06:46Z</time>
      </trkpt>
      <trkpt lat="45.83716" lon="4.24168">
        <ele>596.174</ele>
        <time>2018-09-10T13:06:51Z</time>
      </trkpt>
      <trkpt lat="45.83714" lon="4.2416">
        <ele>596.02</ele>
        <time>2018-09-10T13:06:56Z</time>
      </trkpt>
      <trkpt lat="45.83713" lon="4.24151">
        <ele>595.926</ele>
        <time>2018-09-10T13:07:02Z</time>
      </trkpt>
      <trkpt lat="45.83711" lon="4.24145">
        <ele>595.974</ele>
        <time>2018-09-10T13:07:07Z</time>
      </trkpt>
      <trkpt lat="45.83707" lon="4.2414">
        <ele>595.712</ele>
        <time>2018-09-10T13:07:12Z</time>
      </trkpt>
      <trkpt lat="45.837" lon="4.24137">
        <ele>595.218</ele>
        <time>2018-09-10T13:07:18Z</time>
      </trkpt>
      <trkpt lat="45.83693" lon="4.24142">
        <ele>594.33</ele>
        <time>2018-09-10T13:07:24Z</time>
      </trkpt>
      <trkpt lat="45.83687" lon="4.24148">
        <ele>592.96</ele>
        <time>2018-09-10T13:07:30Z</time>
      </trkpt>
      <trkpt lat="45.83684" lon="4.24155">
        <ele>592.107</ele>
        <time>2018-09-10T13:07:35Z</time>
      </trkpt>
      <trkpt lat="45.8368" lon="4.2416">
        <ele>591.624</ele>
        <time>2018-09-10T13:07:41Z</time>
      </trkpt>
      <trkpt lat="45.83678" lon="4.24165">
        <ele>591.762</ele>
        <time>2018-09-10T13:07:46Z</time>
      </trkpt>
      <trkpt lat="45.83673" lon="4.24175">
        <ele>592.251</ele>
        <time>2018-09-10T13:07:52Z</time>
      </trkpt>
      <trkpt lat="45.8367" lon="4.24184">
        <ele>593.056</ele>
        <time>2018-09-10T13:07:57Z</time>
      </trkpt>
      <trkpt lat="45.83665" lon="4.24187">
        <ele>593.117</ele>
        <time>2018-09-10T13:08:02Z</time>
      </trkpt>
      <trkpt lat="45.83652" lon="4.24188">
        <ele>592.155</ele>
        <time>2018-09-10T13:08:08Z</time>
      </trkpt>
      <trkpt lat="45.83643" lon="4.24193">
        <ele>591.623</ele>
        <time>2018-09-10T13:08:14Z</time>
      </trkpt>
      <trkpt lat="45.83638" lon="4.24198">
        <ele>591.157</ele>
        <time>2018-09-10T13:08:19Z</time>
      </trkpt>
      <trkpt lat="45.83632" lon="4.24201">
        <ele>590.871</ele>
        <time>2018-09-10T13:08:25Z</time>
      </trkpt>
      <trkpt lat="45.83628" lon="4.24203">
        <ele>590.583</ele>
        <time>2018-09-10T13:08:30Z</time>
      </trkpt>
      <trkpt lat="45.83623" lon="4.24207">
        <ele>590.179</ele>
        <time>2018-09-10T13:08:35Z</time>
      </trkpt>
      <trkpt lat="45.83615" lon="4.24214">
        <ele>589.475</ele>
        <time>2018-09-10T13:08:41Z</time>
      </trkpt>
      <trkpt lat="45.83609" lon="4.2422">
        <ele>588.597</ele>
        <time>2018-09-10T13:08:47Z</time>
      </trkpt>
      <trkpt lat="45.83603" lon="4.24225">
        <ele>587.934</ele>
        <time>2018-09-10T13:08:53Z</time>
      </trkpt>
      <trkpt lat="45.83597" lon="4.24231">
        <ele>587.371</ele>
        <time>2018-09-10T13:08:59Z</time>
      </trkpt>
      <trkpt lat="45.83591" lon="4.24234">
        <ele>587.101</ele>
        <time>2018-09-10T13:09:04Z</time>
      </trkpt>
      <trkpt lat="45.83583" lon="4.24238">
        <ele>586.63</ele>
        <time>2018-09-10T13:09:10Z</time>
      </trkpt>
      <trkpt lat="45.83577" lon="4.24238">
        <ele>586.248</ele>
        <time>2018-09-10T13:09:15Z</time>
      </trkpt>
      <trkpt lat="45.83571" lon="4.24242">
        <ele>586.005</ele>
        <time>2018-09-10T13:09:21Z</time>
      </trkpt>
      <trkpt lat="45.83567" lon="4.24246">
        <ele>585.763</ele>
        <time>2018-09-10T13:09:26Z</time>
      </trkpt>
      <trkpt lat="45.83559" lon="4.2425">
        <ele>585.651</ele>
        <time>2018-09-10T13:09:31Z</time>
      </trkpt>
      <trkpt lat="45.83553" lon="4.24256">
        <ele>585.248</ele>
        <time>2018-09-10T13:09:37Z</time>
      </trkpt>
      <trkpt lat="45.8355" lon="4.24262">
        <ele>584.713</ele>
        <time>2018-09-10T13:09:42Z</time>
      </trkpt>
      <trkpt lat="45.83551" lon="4.24262">
        <ele>583.787</ele>
        <time>2018-09-10T13:09:48Z</time>
      </trkpt>
      <trkpt lat="45.83551" lon="4.2426">
        <ele>583.609</ele>
        <time>2018-09-10T13:09:54Z</time>
      </trkpt>
      <trkpt lat="45.83551" lon="4.24262">
        <ele>583.144</ele>
        <time>2018-09-10T13:09:59Z</time>
      </trkpt>
      <trkpt lat="45.83552" lon="4.24268">
        <ele>582.533</ele>
        <time>2018-09-10T13:10:04Z</time>
      </trkpt>
      <trkpt lat="45.83556" lon="4.24278">
        <ele>581.968</ele>
        <time>2018-09-10T13:10:10Z</time>
      </trkpt>
      <trkpt lat="45.83553" lon="4.24286">
        <ele>581.506</ele>
        <time>2018-09-10T13:10:17Z</time>
      </trkpt>
      <trkpt lat="45.83549" lon="4.24292">
        <ele>580.761</ele>
        <time>2018-09-10T13:10:22Z</time>
      </trkpt>
      <trkpt lat="45.83542" lon="4.24297">
        <ele>579.673</ele>
        <time>2018-09-10T13:10:28Z</time>
      </trkpt>
      <trkpt lat="45.83535" lon="4.243">
        <ele>579.064</ele>
        <time>2018-09-10T13:10:34Z</time>
      </trkpt>
      <trkpt lat="45.8353" lon="4.24302">
        <ele>578.599</ele>
        <time>2018-09-10T13:10:40Z</time>
      </trkpt>
      <trkpt lat="45.83524" lon="4.24305">
        <ele>578.27</ele>
        <time>2018-09-10T13:10:45Z</time>
      </trkpt>
      <trkpt lat="45.83518" lon="4.24309">
        <ele>578.295</ele>
        <time>2018-09-10T13:10:51Z</time>
      </trkpt>
      <trkpt lat="45.83513" lon="4.24313">
        <ele>578.051</ele>
        <time>2018-09-10T13:10:56Z</time>
      </trkpt>
      <trkpt lat="45.83509" lon="4.24315">
        <ele>577.661</ele>
        <time>2018-09-10T13:11:02Z</time>
      </trkpt>
      <trkpt lat="45.83503" lon="4.24319">
        <ele>576.773</ele>
        <time>2018-09-10T13:11:08Z</time>
      </trkpt>
      <trkpt lat="45.83499" lon="4.2432">
        <ele>575.924</ele>
        <time>2018-09-10T13:11:13Z</time>
      </trkpt>
      <trkpt lat="45.83494" lon="4.24323">
        <ele>574.607</ele>
        <time>2018-09-10T13:11:19Z</time>
      </trkpt>
      <trkpt lat="45.83491" lon="4.24326">
        <ele>573.771</ele>
        <time>2018-09-10T13:11:24Z</time>
      </trkpt>
      <trkpt lat="45.83485" lon="4.2433">
        <ele>572.64</ele>
        <time>2018-09-10T13:11:30Z</time>
      </trkpt>
      <trkpt lat="45.83478" lon="4.24333">
        <ele>571.808</ele>
        <time>2018-09-10T13:11:36Z</time>
      </trkpt>
      <trkpt lat="45.83476" lon="4.24334">
        <ele>571.294</ele>
        <time>2018-09-10T13:11:41Z</time>
      </trkpt>
      <trkpt lat="45.83472" lon="4.24336">
        <ele>570.565</ele>
        <time>2018-09-10T13:11:46Z</time>
      </trkpt>
      <trkpt lat="45.83469" lon="4.24338">
        <ele>569.795</ele>
        <time>2018-09-10T13:11:52Z</time>
      </trkpt>
      <trkpt lat="45.83465" lon="4.24339">
        <ele>569.158</ele>
        <time>2018-09-10T13:11:57Z</time>
      </trkpt>
      <trkpt lat="45.83459" lon="4.24342">
        <ele>568.44</ele>
        <time>2018-09-10T13:12:03Z</time>
      </trkpt>
      <trkpt lat="45.83451" lon="4.24347">
        <ele>567.774</ele>
        <time>2018-09-10T13:12:09Z</time>
      </trkpt>
      <trkpt lat="45.83448" lon="4.24349">
        <ele>567.137</ele>
        <time>2018-09-10T13:12:14Z</time>
      </trkpt>
      <trkpt lat="45.83443" lon="4.24352">
        <ele>566.126</ele>
        <time>2018-09-10T13:12:20Z</time>
      </trkpt>
      <trkpt lat="45.83438" lon="4.24355">
        <ele>565.361</ele>
        <time>2018-09-10T13:12:25Z</time>
      </trkpt>
      <trkpt lat="45.83434" lon="4.24358">
        <ele>564.548</ele>
        <time>2018-09-10T13:12:31Z</time>
      </trkpt>
      <trkpt lat="45.8343" lon="4.24361">
        <ele>564.002</ele>
        <time>2018-09-10T13:12:36Z</time>
      </trkpt>
      <trkpt lat="45.83427" lon="4.24364">
        <ele>563.632</ele>
        <time>2018-09-10T13:12:41Z</time>
      </trkpt>
      <trkpt lat="45.83426" lon="4.24369">
        <ele>563.007</ele>
        <time>2018-09-10T13:12:47Z</time>
      </trkpt>
      <trkpt lat="45.83426" lon="4.24376">
        <ele>561.861</ele>
        <time>2018-09-10T13:12:52Z</time>
      </trkpt>
      <trkpt lat="45.83414" lon="4.24389">
        <ele>560.662</ele>
        <time>2018-09-10T13:12:58Z</time>
      </trkpt>
      <trkpt lat="45.83404" lon="4.24392">
        <ele>559.555</ele>
        <time>2018-09-10T13:13:04Z</time>
      </trkpt>
      <trkpt lat="45.83396" lon="4.24391">
        <ele>559.106</ele>
        <time>2018-09-10T13:13:09Z</time>
      </trkpt>
      <trkpt lat="45.8339" lon="4.24389">
        <ele>558.681</ele>
        <time>2018-09-10T13:13:15Z</time>
      </trkpt>
      <trkpt lat="45.83386" lon="4.24389">
        <ele>558.49</ele>
        <time>2018-09-10T13:13:20Z</time>
      </trkpt>
      <trkpt lat="45.8338" lon="4.24387">
        <ele>558.426</ele>
        <time>2018-09-10T13:13:26Z</time>
      </trkpt>
      <trkpt lat="45.83376" lon="4.24388">
        <ele>558.014</ele>
        <time>2018-09-10T13:13:31Z</time>
      </trkpt>
      <trkpt lat="45.83372" lon="4.24388">
        <ele>557.187</ele>
        <time>2018-09-10T13:13:37Z</time>
      </trkpt>
      <trkpt lat="45.83366" lon="4.24391">
        <ele>556.752</ele>
        <time>2018-09-10T13:13:42Z</time>
      </trkpt>
      <trkpt lat="45.83359" lon="4.24395">
        <ele>555.83</ele>
        <time>2018-09-10T13:13:48Z</time>
      </trkpt>
      <trkpt lat="45.83352" lon="4.24399">
        <ele>554.935</ele>
        <time>2018-09-10T13:13:54Z</time>
      </trkpt>
      <trkpt lat="45.83347" lon="4.24401">
        <ele>554.467</ele>
        <time>2018-09-10T13:13:59Z</time>
      </trkpt>
      <trkpt lat="45.83343" lon="4.24404">
        <ele>554.272</ele>
        <time>2018-09-10T13:14:05Z</time>
      </trkpt>
      <trkpt lat="45.83336" lon="4.24405">
        <ele>553.964</ele>
        <time>2018-09-10T13:14:10Z</time>
      </trkpt>
      <trkpt lat="45.83331" lon="4.24408">
        <ele>553.413</ele>
        <time>2018-09-10T13:14:16Z</time>
      </trkpt>
      <trkpt lat="45.83327" lon="4.24407">
        <ele>552.687</ele>
        <time>2018-09-10T13:14:21Z</time>
      </trkpt>
      <trkpt lat="45.83326" lon="4.24406">
        <ele>552.31</ele>
        <time>2018-09-10T13:14:26Z</time>
      </trkpt>
      <trkpt lat="45.83324" lon="4.24408">
        <ele>551.535</ele>
        <time>2018-09-10T13:14:32Z</time>
      </trkpt>
      <trkpt lat="45.83322" lon="4.24407">
        <ele>550.8</ele>
        <time>2018-09-10T13:14:38Z</time>
      </trkpt>
      <trkpt lat="45.83322" lon="4.24405">
        <ele>550.503</ele>
        <time>2018-09-10T13:14:43Z</time>
      </trkpt>
      <trkpt lat="45.83322" lon="4.24403">
        <ele>550.363</ele>
        <time>2018-09-10T13:14:48Z</time>
      </trkpt>
      <trkpt lat="45.83324" lon="4.24402">
        <ele>548.76</ele>
        <time>2018-09-10T13:14:54Z</time>
      </trkpt>
      <trkpt lat="45.83326" lon="4.24401">
        <ele>548.079</ele>
        <time>2018-09-10T13:15:00Z</time>
      </trkpt>
      <trkpt lat="45.83326" lon="4.24401">
        <ele>547.634</ele>
        <time>2018-09-10T13:15:05Z</time>
      </trkpt>
      <trkpt lat="45.83326" lon="4.24401">
        <ele>547.547</ele>
        <time>2018-09-10T13:15:10Z</time>
      </trkpt>
      <trkpt lat="45.83326" lon="4.24401">
        <ele>547.149</ele>
        <time>2018-09-10T13:15:16Z</time>
      </trkpt>
      <trkpt lat="45.83326" lon="4.24401">
        <ele>547.231</ele>
        <time>2018-09-10T13:15:21Z</time>
      </trkpt>
      <trkpt lat="45.83326" lon="4.24401">
        <ele>547.273</ele>
        <time>2018-09-10T13:15:27Z</time>
      </trkpt>
      <trkpt lat="45.83328" lon="4.244">
        <ele>546.703</ele>
        <time>2018-09-10T13:15:33Z</time>
      </trkpt>
      <trkpt lat="45.83328" lon="4.244">
        <ele>546.509</ele>
        <time>2018-09-10T13:15:39Z</time>
      </trkpt>
      <trkpt lat="45.83327" lon="4.244">
        <ele>546.43</ele>
        <time>2018-09-10T13:15:45Z</time>
      </trkpt>
      <trkpt lat="45.83327" lon="4.24401">
        <ele>546.388</ele>
        <time>2018-09-10T13:15:51Z</time>
      </trkpt>
      <trkpt lat="45.83327" lon="4.24401">
        <ele>546.186</ele>
        <time>2018-09-10T13:15:57Z</time>
      </trkpt>
      <trkpt lat="45.83327" lon="4.24401">
        <ele>546.308</ele>
        <time>2018-09-10T13:16:03Z</time>
      </trkpt>
      <trkpt lat="45.83327" lon="4.24401">
        <ele>546.432</ele>
        <time>2018-09-10T13:16:08Z</time>
      </trkpt>
      <trkpt lat="45.83327" lon="4.24401">
        <ele>546.549</ele>
        <time>2018-09-10T13:16:13Z</time>
      </trkpt>
      <trkpt lat="45.83327" lon="4.24401">
        <ele>546.547</ele>
        <time>2018-09-10T13:16:19Z</time>
      </trkpt>
      <trkpt lat="45.83327" lon="4.24401">
        <ele>546.455</ele>
        <time>2018-09-10T13:16:24Z</time>
      </trkpt>
      <trkpt lat="45.83327" lon="4.24401">
        <ele>546.492</ele>
        <time>2018-09-10T13:16:30Z</time>
      </trkpt>
      <trkpt lat="45.83327" lon="4.24401">
        <ele>546.585</ele>
        <time>2018-09-10T13:16:35Z</time>
      </trkpt>
      <trkpt lat="45.83327" lon="4.24401">
        <ele>546.764</ele>
        <time>2018-09-10T13:16:41Z</time>
      </trkpt>
      <trkpt lat="45.83327" lon="4.24401">
        <ele>546.888</ele>
        <time>2018-09-10T13:16:46Z</time>
      </trkpt>
      <trkpt lat="45.83327" lon="4.24401">
        <ele>547.013</ele>
        <time>2018-09-10T13:16:52Z</time>
      </trkpt>
      <trkpt lat="45.83327" lon="4.24401">
        <ele>547.079</ele>
        <time>2018-09-10T13:16:57Z</time>
      </trkpt>
      <trkpt lat="45.83327" lon="4.24401">
        <ele>547.05</ele>
        <time>2018-09-10T13:17:02Z</time>
      </trkpt>
      <trkpt lat="45.83327" lon="4.24401">
        <ele>546.977</ele>
        <time>2018-09-10T13:17:08Z</time>
      </trkpt>
      <trkpt lat="45.83327" lon="4.24401">
        <ele>546.917</ele>
        <time>2018-09-10T13:17:14Z</time>
      </trkpt>
      <trkpt lat="45.83327" lon="4.24401">
        <ele>546.898</ele>
        <time>2018-09-10T13:17:19Z</time>
      </trkpt>
      <trkpt lat="45.83327" lon="4.24401">
        <ele>546.913</ele>
        <time>2018-09-10T13:17:24Z</time>
      </trkpt>
      <trkpt lat="45.83327" lon="4.24401">
        <ele>546.932</ele>
        <time>2018-09-10T13:17:30Z</time>
      </trkpt>
      <trkpt lat="45.83327" lon="4.24401">
        <ele>546.8</ele>
        <time>2018-09-10T13:17:35Z</time>
      </trkpt>
      <trkpt lat="45.83327" lon="4.24401">
        <ele>546.743</ele>
        <time>2018-09-10T13:17:41Z</time>
      </trkpt>
      <trkpt lat="45.83327" lon="4.24401">
        <ele>546.595</ele>
        <time>2018-09-10T13:17:46Z</time>
      </trkpt>
      <trkpt lat="45.83327" lon="4.24401">
        <ele>546.532</ele>
        <time>2018-09-10T13:17:51Z</time>
      </trkpt>
      <trkpt lat="45.83327" lon="4.24401">
        <ele>546.365</ele>
        <time>2018-09-10T13:17:57Z</time>
      </trkpt>
      <trkpt lat="45.83327" lon="4.24401">
        <ele>546.174</ele>
        <time>2018-09-10T13:18:03Z</time>
      </trkpt>
      <trkpt lat="45.83327" lon="4.24401">
        <ele>546.01</ele>
        <time>2018-09-10T13:18:09Z</time>
      </trkpt>
      <trkpt lat="45.83327" lon="4.24401">
        <ele>545.624</ele>
        <time>2018-09-10T13:18:15Z</time>
      </trkpt>
      <trkpt lat="45.83327" lon="4.24401">
        <ele>545.516</ele>
        <time>2018-09-10T13:18:21Z</time>
      </trkpt>
      <trkpt lat="45.83327" lon="4.24401">
        <ele>545.531</ele>
        <time>2018-09-10T13:18:26Z</time>
      </trkpt>
      <trkpt lat="45.83327" lon="4.24401">
        <ele>545.514</ele>
        <time>2018-09-10T13:18:32Z</time>
      </trkpt>
      <trkpt lat="45.83327" lon="4.24401">
        <ele>545.504</ele>
        <time>2018-09-10T13:18:37Z</time>
      </trkpt>
      <trkpt lat="45.83327" lon="4.24401">
        <ele>545.525</ele>
        <time>2018-09-10T13:18:43Z</time>
      </trkpt>
      <trkpt lat="45.83325" lon="4.24401">
        <ele>545.7</ele>
        <time>2018-09-10T13:18:49Z</time>
      </trkpt>
      <trkpt lat="45.8332" lon="4.24405">
        <ele>545.418</ele>
        <time>2018-09-10T13:18:55Z</time>
      </trkpt>
      <trkpt lat="45.83315" lon="4.24408">
        <ele>545.286</ele>
        <time>2018-09-10T13:19:00Z</time>
      </trkpt>
      <trkpt lat="45.83311" lon="4.24414">
        <ele>544.742</ele>
        <time>2018-09-10T13:19:06Z</time>
      </trkpt>
      <trkpt lat="45.83308" lon="4.2442">
        <ele>544.134</ele>
        <time>2018-09-10T13:19:12Z</time>
      </trkpt>
      <trkpt lat="45.83304" lon="4.24426">
        <ele>543.817</ele>
        <time>2018-09-10T13:19:18Z</time>
      </trkpt>
      <trkpt lat="45.83301" lon="4.24431">
        <ele>543.598</ele>
        <time>2018-09-10T13:19:23Z</time>
      </trkpt>
      <trkpt lat="45.83297" lon="4.24437">
        <ele>543.228</ele>
        <time>2018-09-10T13:19:29Z</time>
      </trkpt>
      <trkpt lat="45.83292" lon="4.24442">
        <ele>543.073</ele>
        <time>2018-09-10T13:19:35Z</time>
      </trkpt>
      <trkpt lat="45.83287" lon="4.24446">
        <ele>543.466</ele>
        <time>2018-09-10T13:19:41Z</time>
      </trkpt>
      <trkpt lat="45.83278" lon="4.24447">
        <ele>543.777</ele>
        <time>2018-09-10T13:19:48Z</time>
      </trkpt>
      <trkpt lat="45.83275" lon="4.24446">
        <ele>544.131</ele>
        <time>2018-09-10T13:19:53Z</time>
      </trkpt>
      <trkpt lat="45.83266" lon="4.24442">
        <ele>544.491</ele>
        <time>2018-09-10T13:20:01Z</time>
      </trkpt>
      <trkpt lat="45.83262" lon="4.24439">
        <ele>544.609</ele>
        <time>2018-09-10T13:20:06Z</time>
      </trkpt>
      <trkpt lat="45.83257" lon="4.24433">
        <ele>544.835</ele>
        <time>2018-09-10T13:20:11Z</time>
      </trkpt>
      <trkpt lat="45.83251" lon="4.24428">
        <ele>545.623</ele>
        <time>2018-09-10T13:20:17Z</time>
      </trkpt>
      <trkpt lat="45.83246" lon="4.24424">
        <ele>546.373</ele>
        <time>2018-09-10T13:20:23Z</time>
      </trkpt>
      <trkpt lat="45.8324" lon="4.24421">
        <ele>547.032</ele>
        <time>2018-09-10T13:20:28Z</time>
      </trkpt>
      <trkpt lat="45.83237" lon="4.24416">
        <ele>547.829</ele>
        <time>2018-09-10T13:20:33Z</time>
      </trkpt>
      <trkpt lat="45.83235" lon="4.24411">
        <ele>548.731</ele>
        <time>2018-09-10T13:20:38Z</time>
      </trkpt>
      <trkpt lat="45.83231" lon="4.24405">
        <ele>549.512</ele>
        <time>2018-09-10T13:20:44Z</time>
      </trkpt>
      <trkpt lat="45.83226" lon="4.24398">
        <ele>549.631</ele>
        <time>2018-09-10T13:20:50Z</time>
      </trkpt>
      <trkpt lat="45.8322" lon="4.24391">
        <ele>550.01</ele>
        <time>2018-09-10T13:20:56Z</time>
      </trkpt>
      <trkpt lat="45.83216" lon="4.24388">
        <ele>550.607</ele>
        <time>2018-09-10T13:21:01Z</time>
      </trkpt>
      <trkpt lat="45.83209" lon="4.24383">
        <ele>551.068</ele>
        <time>2018-09-10T13:21:07Z</time>
      </trkpt>
      <trkpt lat="45.83203" lon="4.2438">
        <ele>551.518</ele>
        <time>2018-09-10T13:21:13Z</time>
      </trkpt>
      <trkpt lat="45.83197" lon="4.24378">
        <ele>551.49</ele>
        <time>2018-09-10T13:21:18Z</time>
      </trkpt>
      <trkpt lat="45.83188" lon="4.24372">
        <ele>551.28</ele>
        <time>2018-09-10T13:21:24Z</time>
      </trkpt>
      <trkpt lat="45.83182" lon="4.24367">
        <ele>551.673</ele>
        <time>2018-09-10T13:21:30Z</time>
      </trkpt>
      <trkpt lat="45.83174" lon="4.24361">
        <ele>551.98</ele>
        <time>2018-09-10T13:21:36Z</time>
      </trkpt>
      <trkpt lat="45.83168" lon="4.24356">
        <ele>551.803</ele>
        <time>2018-09-10T13:21:41Z</time>
      </trkpt>
      <trkpt lat="45.83161" lon="4.24353">
        <ele>551.909</ele>
        <time>2018-09-10T13:21:47Z</time>
      </trkpt>
      <trkpt lat="45.83157" lon="4.24353">
        <ele>551.925</ele>
        <time>2018-09-10T13:21:52Z</time>
      </trkpt>
      <trkpt lat="45.83151" lon="4.2435">
        <ele>551.813</ele>
        <time>2018-09-10T13:21:57Z</time>
      </trkpt>
      <trkpt lat="45.83145" lon="4.24344">
        <ele>551.389</ele>
        <time>2018-09-10T13:22:03Z</time>
      </trkpt>
      <trkpt lat="45.83138" lon="4.24339">
        <ele>551.112</ele>
        <time>2018-09-10T13:22:09Z</time>
      </trkpt>
      <trkpt lat="45.83132" lon="4.24336">
        <ele>551.133</ele>
        <time>2018-09-10T13:22:14Z</time>
      </trkpt>
      <trkpt lat="45.83126" lon="4.24331">
        <ele>551.203</ele>
        <time>2018-09-10T13:22:20Z</time>
      </trkpt>
      <trkpt lat="45.83119" lon="4.24327">
        <ele>550.747</ele>
        <time>2018-09-10T13:22:26Z</time>
      </trkpt>
      <trkpt lat="45.83114" lon="4.24324">
        <ele>550.669</ele>
        <time>2018-09-10T13:22:31Z</time>
      </trkpt>
      <trkpt lat="45.83107" lon="4.24319">
        <ele>550.74</ele>
        <time>2018-09-10T13:22:37Z</time>
      </trkpt>
      <trkpt lat="45.83101" lon="4.24315">
        <ele>550.865</ele>
        <time>2018-09-10T13:22:42Z</time>
      </trkpt>
      <trkpt lat="45.83094" lon="4.24311">
        <ele>551.231</ele>
        <time>2018-09-10T13:22:48Z</time>
      </trkpt>
      <trkpt lat="45.83089" lon="4.24308">
        <ele>551.6</ele>
        <time>2018-09-10T13:22:54Z</time>
      </trkpt>
      <trkpt lat="45.83084" lon="4.24302">
        <ele>551.737</ele>
        <time>2018-09-10T13:22:59Z</time>
      </trkpt>
      <trkpt lat="45.83078" lon="4.24297">
        <ele>551.701</ele>
        <time>2018-09-10T13:23:04Z</time>
      </trkpt>
      <trkpt lat="45.83071" lon="4.24293">
        <ele>551.606</ele>
        <time>2018-09-10T13:23:10Z</time>
      </trkpt>
      <trkpt lat="45.83066" lon="4.24289">
        <ele>551.652</ele>
        <time>2018-09-10T13:23:15Z</time>
      </trkpt>
      <trkpt lat="45.83061" lon="4.24283">
        <ele>551.62</ele>
        <time>2018-09-10T13:23:21Z</time>
      </trkpt>
      <trkpt lat="45.83055" lon="4.24279">
        <ele>551.876</ele>
        <time>2018-09-10T13:23:27Z</time>
      </trkpt>
      <trkpt lat="45.83049" lon="4.24278">
        <ele>551.964</ele>
        <time>2018-09-10T13:23:32Z</time>
      </trkpt>
      <trkpt lat="45.83041" lon="4.24278">
        <ele>552.182</ele>
        <time>2018-09-10T13:23:38Z</time>
      </trkpt>
      <trkpt lat="45.83034" lon="4.2428">
        <ele>552.395</ele>
        <time>2018-09-10T13:23:44Z</time>
      </trkpt>
      <trkpt lat="45.83028" lon="4.24282">
        <ele>552.856</ele>
        <time>2018-09-10T13:23:49Z</time>
      </trkpt>
      <trkpt lat="45.83024" lon="4.24283">
        <ele>553.355</ele>
        <time>2018-09-10T13:23:54Z</time>
      </trkpt>
      <trkpt lat="45.8302" lon="4.24286">
        <ele>553.606</ele>
        <time>2018-09-10T13:24:00Z</time>
      </trkpt>
      <trkpt lat="45.83017" lon="4.2429">
        <ele>553.733</ele>
        <time>2018-09-10T13:24:05Z</time>
      </trkpt>
      <trkpt lat="45.83012" lon="4.24289">
        <ele>553.493</ele>
        <time>2018-09-10T13:24:11Z</time>
      </trkpt>
      <trkpt lat="45.83012" lon="4.24289">
        <ele>553.386</ele>
        <time>2018-09-10T13:24:17Z</time>
      </trkpt>
      <trkpt lat="45.83012" lon="4.24289">
        <ele>553.442</ele>
        <time>2018-09-10T13:24:22Z</time>
      </trkpt>
      <trkpt lat="45.83013" lon="4.24288">
        <ele>553.713</ele>
        <time>2018-09-10T13:24:28Z</time>
      </trkpt>
      <trkpt lat="45.83014" lon="4.24289">
        <ele>553.752</ele>
        <time>2018-09-10T13:24:34Z</time>
      </trkpt>
      <trkpt lat="45.83013" lon="4.2429">
        <ele>553.71</ele>
        <time>2018-09-10T13:24:39Z</time>
      </trkpt>
      <trkpt lat="45.83012" lon="4.2429">
        <ele>553.601</ele>
        <time>2018-09-10T13:24:45Z</time>
      </trkpt>
      <trkpt lat="45.83011" lon="4.2429">
        <ele>553.56</ele>
        <time>2018-09-10T13:24:51Z</time>
      </trkpt>
      <trkpt lat="45.83011" lon="4.2429">
        <ele>553.531</ele>
        <time>2018-09-10T13:24:57Z</time>
      </trkpt>
      <trkpt lat="45.83011" lon="4.24291">
        <ele>553.63</ele>
        <time>2018-09-10T13:25:02Z</time>
      </trkpt>
      <trkpt lat="45.83011" lon="4.24292">
        <ele>553.601</ele>
        <time>2018-09-10T13:25:08Z</time>
      </trkpt>
      <trkpt lat="45.83011" lon="4.24292">
        <ele>553.523</ele>
        <time>2018-09-10T13:25:13Z</time>
      </trkpt>
      <trkpt lat="45.83012" lon="4.24292">
        <ele>553.523</ele>
        <time>2018-09-10T13:25:18Z</time>
      </trkpt>
      <trkpt lat="45.83011" lon="4.24293">
        <ele>553.593</ele>
        <time>2018-09-10T13:25:23Z</time>
      </trkpt>
      <trkpt lat="45.83011" lon="4.24292">
        <ele>553.991</ele>
        <time>2018-09-10T13:25:29Z</time>
      </trkpt>
      <trkpt lat="45.83011" lon="4.24292">
        <ele>554.208</ele>
        <time>2018-09-10T13:25:35Z</time>
      </trkpt>
      <trkpt lat="45.83011" lon="4.24294">
        <ele>554.518</ele>
        <time>2018-09-10T13:25:41Z</time>
      </trkpt>
      <trkpt lat="45.83011" lon="4.24295">
        <ele>554.328</ele>
        <time>2018-09-10T13:25:47Z</time>
      </trkpt>
      <trkpt lat="45.83011" lon="4.24295">
        <ele>553.621</ele>
        <time>2018-09-10T13:25:53Z</time>
      </trkpt>
      <trkpt lat="45.83013" lon="4.24293">
        <ele>553.355</ele>
        <time>2018-09-10T13:25:59Z</time>
      </trkpt>
      <trkpt lat="45.83014" lon="4.24292">
        <ele>553.343</ele>
        <time>2018-09-10T13:26:04Z</time>
      </trkpt>
      <trkpt lat="45.83013" lon="4.24293">
        <ele>553.873</ele>
        <time>2018-09-10T13:26:09Z</time>
      </trkpt>
      <trkpt lat="45.83011" lon="4.24295">
        <ele>554.117</ele>
        <time>2018-09-10T13:26:15Z</time>
      </trkpt>
      <trkpt lat="45.8301" lon="4.24293">
        <ele>554.588</ele>
        <time>2018-09-10T13:26:21Z</time>
      </trkpt>
      <trkpt lat="45.8301" lon="4.24293">
        <ele>554.678</ele>
        <time>2018-09-10T13:26:26Z</time>
      </trkpt>
      <trkpt lat="45.83011" lon="4.24293">
        <ele>554.657</ele>
        <time>2018-09-10T13:26:32Z</time>
      </trkpt>
      <trkpt lat="45.83012" lon="4.24292">
        <ele>554.663</ele>
        <time>2018-09-10T13:26:37Z</time>
      </trkpt>
      <trkpt lat="45.83011" lon="4.2429">
        <ele>554.693</ele>
        <time>2018-09-10T13:26:42Z</time>
      </trkpt>
      <trkpt lat="45.8301" lon="4.24291">
        <ele>554.804</ele>
        <time>2018-09-10T13:26:48Z</time>
      </trkpt>
      <trkpt lat="45.8301" lon="4.24293">
        <ele>554.841</ele>
        <time>2018-09-10T13:26:53Z</time>
      </trkpt>
      <trkpt lat="45.8301" lon="4.24293">
        <ele>554.992</ele>
        <time>2018-09-10T13:26:59Z</time>
      </trkpt>
      <trkpt lat="45.83009" lon="4.2429">
        <ele>554.779</ele>
        <time>2018-09-10T13:27:04Z</time>
      </trkpt>
      <trkpt lat="45.8301" lon="4.24291">
        <ele>554.59</ele>
        <time>2018-09-10T13:27:10Z</time>
      </trkpt>
      <trkpt lat="45.83011" lon="4.24291">
        <ele>554.663</ele>
        <time>2018-09-10T13:27:16Z</time>
      </trkpt>
      <trkpt lat="45.83012" lon="4.24294">
        <ele>554.585</ele>
        <time>2018-09-10T13:27:21Z</time>
      </trkpt>
      <trkpt lat="45.83012" lon="4.24294">
        <ele>554.429</ele>
        <time>2018-09-10T13:27:26Z</time>
      </trkpt>
      <trkpt lat="45.83011" lon="4.2429">
        <ele>554.59</ele>
        <time>2018-09-10T13:27:32Z</time>
      </trkpt>
      <trkpt lat="45.83011" lon="4.24289">
        <ele>554.708</ele>
        <time>2018-09-10T13:27:37Z</time>
      </trkpt>
      <trkpt lat="45.83013" lon="4.2429">
        <ele>554.208</ele>
        <time>2018-09-10T13:27:43Z</time>
      </trkpt>
      <trkpt lat="45.83013" lon="4.24288">
        <ele>553.718</ele>
        <time>2018-09-10T13:27:49Z</time>
      </trkpt>
      <trkpt lat="45.83013" lon="4.24286">
        <ele>553.855</ele>
        <time>2018-09-10T13:27:55Z</time>
      </trkpt>
      <trkpt lat="45.83013" lon="4.24286">
        <ele>553.943</ele>
        <time>2018-09-10T13:28:01Z</time>
      </trkpt>
      <trkpt lat="45.83012" lon="4.24287">
        <ele>553.948</ele>
        <time>2018-09-10T13:28:06Z</time>
      </trkpt>
      <trkpt lat="45.83011" lon="4.24287">
        <ele>554.08</ele>
        <time>2018-09-10T13:28:12Z</time>
      </trkpt>
      <trkpt lat="45.83011" lon="4.24288">
        <ele>554.252</ele>
        <time>2018-09-10T13:28:17Z</time>
      </trkpt>
      <trkpt lat="45.83011" lon="4.24285">
        <ele>554.241</ele>
        <time>2018-09-10T13:28:23Z</time>
      </trkpt>
      <trkpt lat="45.8301" lon="4.24283">
        <ele>554.422</ele>
        <time>2018-09-10T13:28:28Z</time>
      </trkpt>
      <trkpt lat="45.83006" lon="4.24289">
        <ele>554.343</ele>
        <time>2018-09-10T13:28:34Z</time>
      </trkpt>
      <trkpt lat="45.83002" lon="4.243">
        <ele>553.988</ele>
        <time>2018-09-10T13:28:40Z</time>
      </trkpt>
      <trkpt lat="45.83001" lon="4.24308">
        <ele>553.459</ele>
        <time>2018-09-10T13:28:45Z</time>
      </trkpt>
      <trkpt lat="45.82994" lon="4.24314">
        <ele>553.036</ele>
        <time>2018-09-10T13:28:51Z</time>
      </trkpt>
      <trkpt lat="45.82989" lon="4.24318">
        <ele>552.775</ele>
        <time>2018-09-10T13:28:57Z</time>
      </trkpt>
      <trkpt lat="45.82983" lon="4.2432">
        <ele>552.594</ele>
        <time>2018-09-10T13:29:02Z</time>
      </trkpt>
      <trkpt lat="45.82972" lon="4.24326">
        <ele>551.935</ele>
        <time>2018-09-10T13:29:08Z</time>
      </trkpt>
      <trkpt lat="45.82967" lon="4.24328">
        <ele>551.435</ele>
        <time>2018-09-10T13:29:13Z</time>
      </trkpt>
      <trkpt lat="45.82961" lon="4.24327">
        <ele>550.535</ele>
        <time>2018-09-10T13:29:19Z</time>
      </trkpt>
      <trkpt lat="45.82953" lon="4.24327">
        <ele>549.586</ele>
        <time>2018-09-10T13:29:25Z</time>
      </trkpt>
      <trkpt lat="45.82946" lon="4.2433">
        <ele>548.518</ele>
        <time>2018-09-10T13:29:31Z</time>
      </trkpt>
      <trkpt lat="45.82941" lon="4.24332">
        <ele>547.556</ele>
        <time>2018-09-10T13:29:37Z</time>
      </trkpt>
      <trkpt lat="45.82934" lon="4.24334">
        <ele>546.622</ele>
        <time>2018-09-10T13:29:43Z</time>
      </trkpt>
      <trkpt lat="45.82928" lon="4.24335">
        <ele>546.318</ele>
        <time>2018-09-10T13:29:49Z</time>
      </trkpt>
      <trkpt lat="45.82922" lon="4.24335">
        <ele>545.996</ele>
        <time>2018-09-10T13:29:55Z</time>
      </trkpt>
      <trkpt lat="45.82912" lon="4.24335">
        <ele>545.618</ele>
        <time>2018-09-10T13:30:01Z</time>
      </trkpt>
      <trkpt lat="45.82904" lon="4.24333">
        <ele>545.024</ele>
        <time>2018-09-10T13:30:07Z</time>
      </trkpt>
      <trkpt lat="45.829" lon="4.24332">
        <ele>544.157</ele>
        <time>2018-09-10T13:30:12Z</time>
      </trkpt>
      <trkpt lat="45.82892" lon="4.2433">
        <ele>543.056</ele>
        <time>2018-09-10T13:30:18Z</time>
      </trkpt>
      <trkpt lat="45.82886" lon="4.24325">
        <ele>541.91</ele>
        <time>2018-09-10T13:30:23Z</time>
      </trkpt>
      <trkpt lat="45.82882" lon="4.24319">
        <ele>540.903</ele>
        <time>2018-09-10T13:30:29Z</time>
      </trkpt>
      <trkpt lat="45.82879" lon="4.24319">
        <ele>540.461</ele>
        <time>2018-09-10T13:30:35Z</time>
      </trkpt>
      <trkpt lat="45.82878" lon="4.2432">
        <ele>540.394</ele>
        <time>2018-09-10T13:30:40Z</time>
      </trkpt>
      <trkpt lat="45.82877" lon="4.2432">
        <ele>539.228</ele>
        <time>2018-09-10T13:30:46Z</time>
      </trkpt>
      <trkpt lat="45.82876" lon="4.24317">
        <ele>538.739</ele>
        <time>2018-09-10T13:30:51Z</time>
      </trkpt>
      <trkpt lat="45.82875" lon="4.24314">
        <ele>537.953</ele>
        <time>2018-09-10T13:30:56Z</time>
      </trkpt>
      <trkpt lat="45.82875" lon="4.24306">
        <ele>537.265</ele>
        <time>2018-09-10T13:31:02Z</time>
      </trkpt>
      <trkpt lat="45.82875" lon="4.24299">
        <ele>536.118</ele>
        <time>2018-09-10T13:31:08Z</time>
      </trkpt>
      <trkpt lat="45.82876" lon="4.2429">
        <ele>535.064</ele>
        <time>2018-09-10T13:31:13Z</time>
      </trkpt>
      <trkpt lat="45.82874" lon="4.2428">
        <ele>533.643</ele>
        <time>2018-09-10T13:31:19Z</time>
      </trkpt>
      <trkpt lat="45.82874" lon="4.24275">
        <ele>531.996</ele>
        <time>2018-09-10T13:31:24Z</time>
      </trkpt>
      <trkpt lat="45.82874" lon="4.24271">
        <ele>530.505</ele>
        <time>2018-09-10T13:31:30Z</time>
      </trkpt>
      <trkpt lat="45.82873" lon="4.24267">
        <ele>529.078</ele>
        <time>2018-09-10T13:31:35Z</time>
      </trkpt>
      <trkpt lat="45.82873" lon="4.24261">
        <ele>527.532</ele>
        <time>2018-09-10T13:31:41Z</time>
      </trkpt>
      <trkpt lat="45.82872" lon="4.24249">
        <ele>526.754</ele>
        <time>2018-09-10T13:31:47Z</time>
      </trkpt>
      <trkpt lat="45.8287" lon="4.2424">
        <ele>526.019</ele>
        <time>2018-09-10T13:31:52Z</time>
      </trkpt>
      <trkpt lat="45.82869" lon="4.24229">
        <ele>524.818</ele>
        <time>2018-09-10T13:31:58Z</time>
      </trkpt>
      <trkpt lat="45.82869" lon="4.24214">
        <ele>523.476</ele>
        <time>2018-09-10T13:32:04Z</time>
      </trkpt>
      <trkpt lat="45.82867" lon="4.24204">
        <ele>522.272</ele>
        <time>2018-09-10T13:32:10Z</time>
      </trkpt>
      <trkpt lat="45.82865" lon="4.24196">
        <ele>521.401</ele>
        <time>2018-09-10T13:32:15Z</time>
      </trkpt>
      <trkpt lat="45.82862" lon="4.24194">
        <ele>520.335</ele>
        <time>2018-09-10T13:32:21Z</time>
      </trkpt>
      <trkpt lat="45.82857" lon="4.24191">
        <ele>519.49</ele>
        <time>2018-09-10T13:32:26Z</time>
      </trkpt>
      <trkpt lat="45.82849" lon="4.24187">
        <ele>518.126</ele>
        <time>2018-09-10T13:32:32Z</time>
      </trkpt>
      <trkpt lat="45.82845" lon="4.24184">
        <ele>515.933</ele>
        <time>2018-09-10T13:32:38Z</time>
      </trkpt>
      <trkpt lat="45.82842" lon="4.24181">
        <ele>514.979</ele>
        <time>2018-09-10T13:32:43Z</time>
      </trkpt>
      <trkpt lat="45.82838" lon="4.24176">
        <ele>514.063</ele>
        <time>2018-09-10T13:32:49Z</time>
      </trkpt>
      <trkpt lat="45.82833" lon="4.24171">
        <ele>513.502</ele>
        <time>2018-09-10T13:32:54Z</time>
      </trkpt>
      <trkpt lat="45.82832" lon="4.24165">
        <ele>513.076</ele>
        <time>2018-09-10T13:33:00Z</time>
      </trkpt>
      <trkpt lat="45.82828" lon="4.24158">
        <ele>513.114</ele>
        <time>2018-09-10T13:33:06Z</time>
      </trkpt>
      <trkpt lat="45.82825" lon="4.24155">
        <ele>513.43</ele>
        <time>2018-09-10T13:33:12Z</time>
      </trkpt>
      <trkpt lat="45.82822" lon="4.24152">
        <ele>513.927</ele>
        <time>2018-09-10T13:33:18Z</time>
      </trkpt>
      <trkpt lat="45.82819" lon="4.24145">
        <ele>514.166</ele>
        <time>2018-09-10T13:33:24Z</time>
      </trkpt>
      <trkpt lat="45.82813" lon="4.24136">
        <ele>514.089</ele>
        <time>2018-09-10T13:33:30Z</time>
      </trkpt>
      <trkpt lat="45.82811" lon="4.24129">
        <ele>513.767</ele>
        <time>2018-09-10T13:33:36Z</time>
      </trkpt>
      <trkpt lat="45.82809" lon="4.24119">
        <ele>513.667</ele>
        <time>2018-09-10T13:33:42Z</time>
      </trkpt>
      <trkpt lat="45.82806" lon="4.24113">
        <ele>513.611</ele>
        <time>2018-09-10T13:33:47Z</time>
      </trkpt>
      <trkpt lat="45.82804" lon="4.24103">
        <ele>513.938</ele>
        <time>2018-09-10T13:33:53Z</time>
      </trkpt>
      <trkpt lat="45.82801" lon="4.24099">
        <ele>514.323</ele>
        <time>2018-09-10T13:33:58Z</time>
      </trkpt>
      <trkpt lat="45.82798" lon="4.24093">
        <ele>514.852</ele>
        <time>2018-09-10T13:34:04Z</time>
      </trkpt>
      <trkpt lat="45.82792" lon="4.24088">
        <ele>515.105</ele>
        <time>2018-09-10T13:34:10Z</time>
      </trkpt>
      <trkpt lat="45.8279" lon="4.24084">
        <ele>515.216</ele>
        <time>2018-09-10T13:34:15Z</time>
      </trkpt>
      <trkpt lat="45.82788" lon="4.24075">
        <ele>515.692</ele>
        <time>2018-09-10T13:34:21Z</time>
      </trkpt>
      <trkpt lat="45.82785" lon="4.24069">
        <ele>515.995</ele>
        <time>2018-09-10T13:34:26Z</time>
      </trkpt>
      <trkpt lat="45.82781" lon="4.24063">
        <ele>516.104</ele>
        <time>2018-09-10T13:34:32Z</time>
      </trkpt>
      <trkpt lat="45.82775" lon="4.2406">
        <ele>516.546</ele>
        <time>2018-09-10T13:34:38Z</time>
      </trkpt>
      <trkpt lat="45.82769" lon="4.24064">
        <ele>517.389</ele>
        <time>2018-09-10T13:34:44Z</time>
      </trkpt>
      <trkpt lat="45.82763" lon="4.24065">
        <ele>517.946</ele>
        <time>2018-09-10T13:34:50Z</time>
      </trkpt>
      <trkpt lat="45.82759" lon="4.24063">
        <ele>518.689</ele>
        <time>2018-09-10T13:34:56Z</time>
      </trkpt>
      <trkpt lat="45.82756" lon="4.24061">
        <ele>519.119</ele>
        <time>2018-09-10T13:35:01Z</time>
      </trkpt>
      <trkpt lat="45.82753" lon="4.24059">
        <ele>519.086</ele>
        <time>2018-09-10T13:35:06Z</time>
      </trkpt>
      <trkpt lat="45.8275" lon="4.24059">
        <ele>519.657</ele>
        <time>2018-09-10T13:35:12Z</time>
      </trkpt>
      <trkpt lat="45.82744" lon="4.24057">
        <ele>520.139</ele>
        <time>2018-09-10T13:35:17Z</time>
      </trkpt>
      <trkpt lat="45.82739" lon="4.24056">
        <ele>520.658</ele>
        <time>2018-09-10T13:35:22Z</time>
      </trkpt>
      <trkpt lat="45.82733" lon="4.24056">
        <ele>521.249</ele>
        <time>2018-09-10T13:35:28Z</time>
      </trkpt>
      <trkpt lat="45.82728" lon="4.24058">
        <ele>522.032</ele>
        <time>2018-09-10T13:35:34Z</time>
      </trkpt>
      <trkpt lat="45.82724" lon="4.24059">
        <ele>523.041</ele>
        <time>2018-09-10T13:35:39Z</time>
      </trkpt>
      <trkpt lat="45.82721" lon="4.2406">
        <ele>524.409</ele>
        <time>2018-09-10T13:35:45Z</time>
      </trkpt>
      <trkpt lat="45.82718" lon="4.24059">
        <ele>525.258</ele>
        <time>2018-09-10T13:35:51Z</time>
      </trkpt>
      <trkpt lat="45.82713" lon="4.24059">
        <ele>526.616</ele>
        <time>2018-09-10T13:35:57Z</time>
      </trkpt>
      <trkpt lat="45.82709" lon="4.2406">
        <ele>527.153</ele>
        <time>2018-09-10T13:36:02Z</time>
      </trkpt>
      <trkpt lat="45.82705" lon="4.24058">
        <ele>527.762</ele>
        <time>2018-09-10T13:36:08Z</time>
      </trkpt>
      <trkpt lat="45.82704" lon="4.24056">
        <ele>528.029</ele>
        <time>2018-09-10T13:36:14Z</time>
      </trkpt>
      <trkpt lat="45.82702" lon="4.24057">
        <ele>527.902</ele>
        <time>2018-09-10T13:36:19Z</time>
      </trkpt>
      <trkpt lat="45.827" lon="4.24055">
        <ele>527.598</ele>
        <time>2018-09-10T13:36:25Z</time>
      </trkpt>
      <trkpt lat="45.82698" lon="4.24055">
        <ele>528.188</ele>
        <time>2018-09-10T13:36:30Z</time>
      </trkpt>
      <trkpt lat="45.82694" lon="4.24056">
        <ele>529.095</ele>
        <time>2018-09-10T13:36:36Z</time>
      </trkpt>
      <trkpt lat="45.8269" lon="4.24057">
        <ele>530.104</ele>
        <time>2018-09-10T13:36:41Z</time>
      </trkpt>
      <trkpt lat="45.82685" lon="4.24055">
        <ele>530.676</ele>
        <time>2018-09-10T13:36:46Z</time>
      </trkpt>
      <trkpt lat="45.82678" lon="4.24056">
        <ele>531.352</ele>
        <time>2018-09-10T13:36:52Z</time>
      </trkpt>
      <trkpt lat="45.82673" lon="4.24055">
        <ele>532.021</ele>
        <time>2018-09-10T13:36:57Z</time>
      </trkpt>
      <trkpt lat="45.82668" lon="4.24054">
        <ele>533.085</ele>
        <time>2018-09-10T13:37:03Z</time>
      </trkpt>
      <trkpt lat="45.82662" lon="4.24052">
        <ele>534.178</ele>
        <time>2018-09-10T13:37:08Z</time>
      </trkpt>
      <trkpt lat="45.82657" lon="4.24052">
        <ele>534.998</ele>
        <time>2018-09-10T13:37:13Z</time>
      </trkpt>
      <trkpt lat="45.82651" lon="4.2405">
        <ele>535.731</ele>
        <time>2018-09-10T13:37:18Z</time>
      </trkpt>
      <trkpt lat="45.82643" lon="4.24049">
        <ele>536.76</ele>
        <time>2018-09-10T13:37:24Z</time>
      </trkpt>
      <trkpt lat="45.82636" lon="4.24047">
        <ele>538.339</ele>
        <time>2018-09-10T13:37:30Z</time>
      </trkpt>
      <trkpt lat="45.82629" lon="4.24046">
        <ele>539.429</ele>
        <time>2018-09-10T13:37:36Z</time>
      </trkpt>
      <trkpt lat="45.82622" lon="4.24045">
        <ele>540.436</ele>
        <time>2018-09-10T13:37:42Z</time>
      </trkpt>
      <trkpt lat="45.82615" lon="4.24044">
        <ele>540.943</ele>
        <time>2018-09-10T13:37:47Z</time>
      </trkpt>
      <trkpt lat="45.82606" lon="4.24044">
        <ele>541.624</ele>
        <time>2018-09-10T13:37:53Z</time>
      </trkpt>
      <trkpt lat="45.82601" lon="4.24042">
        <ele>542.259</ele>
        <time>2018-09-10T13:37:58Z</time>
      </trkpt>
      <trkpt lat="45.82594" lon="4.24041">
        <ele>543.099</ele>
        <time>2018-09-10T13:38:04Z</time>
      </trkpt>
      <trkpt lat="45.82589" lon="4.24039">
        <ele>544.084</ele>
        <time>2018-09-10T13:38:09Z</time>
      </trkpt>
      <trkpt lat="45.82581" lon="4.24035">
        <ele>545.255</ele>
        <time>2018-09-10T13:38:15Z</time>
      </trkpt>
      <trkpt lat="45.82575" lon="4.24035">
        <ele>546.285</ele>
        <time>2018-09-10T13:38:20Z</time>
      </trkpt>
      <trkpt lat="45.82572" lon="4.24035">
        <ele>547.092</ele>
        <time>2018-09-10T13:38:26Z</time>
      </trkpt>
      <trkpt lat="45.8257" lon="4.24033">
        <ele>547.777</ele>
        <time>2018-09-10T13:38:31Z</time>
      </trkpt>
      <trkpt lat="45.82569" lon="4.24032">
        <ele>548.617</ele>
        <time>2018-09-10T13:38:36Z</time>
      </trkpt>
      <trkpt lat="45.82569" lon="4.24032">
        <ele>549.187</ele>
        <time>2018-09-10T13:38:42Z</time>
      </trkpt>
      <trkpt lat="45.82568" lon="4.24033">
        <ele>549.153</ele>
        <time>2018-09-10T13:38:48Z</time>
      </trkpt>
      <trkpt lat="45.82569" lon="4.24033">
        <ele>549.642</ele>
        <time>2018-09-10T13:38:54Z</time>
      </trkpt>
      <trkpt lat="45.82572" lon="4.24033">
        <ele>550.281</ele>
        <time>2018-09-10T13:39:00Z</time>
      </trkpt>
      <trkpt lat="45.82572" lon="4.24033">
        <ele>550.687</ele>
        <time>2018-09-10T13:39:05Z</time>
      </trkpt>
      <trkpt lat="45.82573" lon="4.24034">
        <ele>550.979</ele>
        <time>2018-09-10T13:39:10Z</time>
      </trkpt>
      <trkpt lat="45.82572" lon="4.24033">
        <ele>551.18</ele>
        <time>2018-09-10T13:39:16Z</time>
      </trkpt>
      <trkpt lat="45.82571" lon="4.24031">
        <ele>551.572</ele>
        <time>2018-09-10T13:39:22Z</time>
      </trkpt>
      <trkpt lat="45.82574" lon="4.24032">
        <ele>551.668</ele>
        <time>2018-09-10T13:39:28Z</time>
      </trkpt>
      <trkpt lat="45.82575" lon="4.24034">
        <ele>551.7</ele>
        <time>2018-09-10T13:39:33Z</time>
      </trkpt>
      <trkpt lat="45.82574" lon="4.24034">
        <ele>552.028</ele>
        <time>2018-09-10T13:39:39Z</time>
      </trkpt>
      <trkpt lat="45.82574" lon="4.24033">
        <ele>552.124</ele>
        <time>2018-09-10T13:39:44Z</time>
      </trkpt>
      <trkpt lat="45.82575" lon="4.24033">
        <ele>552.238</ele>
        <time>2018-09-10T13:39:50Z</time>
      </trkpt>
      <trkpt lat="45.82574" lon="4.24034">
        <ele>552.34</ele>
        <time>2018-09-10T13:39:56Z</time>
      </trkpt>
      <trkpt lat="45.82575" lon="4.24033">
        <ele>552.473</ele>
        <time>2018-09-10T13:40:02Z</time>
      </trkpt>
      <trkpt lat="45.82576" lon="4.24033">
        <ele>552.438</ele>
        <time>2018-09-10T13:40:07Z</time>
      </trkpt>
      <trkpt lat="45.82576" lon="4.24035">
        <ele>552.262</ele>
        <time>2018-09-10T13:40:12Z</time>
      </trkpt>
      <trkpt lat="45.82575" lon="4.24036">
        <ele>552.203</ele>
        <time>2018-09-10T13:40:18Z</time>
      </trkpt>
      <trkpt lat="45.82573" lon="4.24035">
        <ele>552.266</ele>
        <time>2018-09-10T13:40:24Z</time>
      </trkpt>
      <trkpt lat="45.82574" lon="4.24034">
        <ele>552.248</ele>
        <time>2018-09-10T13:40:29Z</time>
      </trkpt>
      <trkpt lat="45.82574" lon="4.24034">
        <ele>552.252</ele>
        <time>2018-09-10T13:40:34Z</time>
      </trkpt>
      <trkpt lat="45.82574" lon="4.24032">
        <ele>552.254</ele>
        <time>2018-09-10T13:40:40Z</time>
      </trkpt>
      <trkpt lat="45.82572" lon="4.24033">
        <ele>552.202</ele>
        <time>2018-09-10T13:40:46Z</time>
      </trkpt>
      <trkpt lat="45.82572" lon="4.24033">
        <ele>552.28</ele>
        <time>2018-09-10T13:40:51Z</time>
      </trkpt>
      <trkpt lat="45.82573" lon="4.24031">
        <ele>552.587</ele>
        <time>2018-09-10T13:40:57Z</time>
      </trkpt>
      <trkpt lat="45.82574" lon="4.24031">
        <ele>552.557</ele>
        <time>2018-09-10T13:41:02Z</time>
      </trkpt>
      <trkpt lat="45.82574" lon="4.24033">
        <ele>552.655</ele>
        <time>2018-09-10T13:41:07Z</time>
      </trkpt>
      <trkpt lat="45.82575" lon="4.24036">
        <ele>552.683</ele>
        <time>2018-09-10T13:41:13Z</time>
      </trkpt>
      <trkpt lat="45.82574" lon="4.24037">
        <ele>552.904</ele>
        <time>2018-09-10T13:41:19Z</time>
      </trkpt>
      <trkpt lat="45.82575" lon="4.24036">
        <ele>553.049</ele>
        <time>2018-09-10T13:41:25Z</time>
      </trkpt>
      <trkpt lat="45.82575" lon="4.24035">
        <ele>553.228</ele>
        <time>2018-09-10T13:41:30Z</time>
      </trkpt>
      <trkpt lat="45.82575" lon="4.24033">
        <ele>553.651</ele>
        <time>2018-09-10T13:41:35Z</time>
      </trkpt>
      <trkpt lat="45.82575" lon="4.24032">
        <ele>554.027</ele>
        <time>2018-09-10T13:41:41Z</time>
      </trkpt>
      <trkpt lat="45.82575" lon="4.24032">
        <ele>553.934</ele>
        <time>2018-09-10T13:41:46Z</time>
      </trkpt>
      <trkpt lat="45.82574" lon="4.24033">
        <ele>554.082</ele>
        <time>2018-09-10T13:41:52Z</time>
      </trkpt>
      <trkpt lat="45.82574" lon="4.24033">
        <ele>554.357</ele>
        <time>2018-09-10T13:41:57Z</time>
      </trkpt>
      <trkpt lat="45.82575" lon="4.24033">
        <ele>554.588</ele>
        <time>2018-09-10T13:42:03Z</time>
      </trkpt>
      <trkpt lat="45.82575" lon="4.24033">
        <ele>554.498</ele>
        <time>2018-09-10T13:42:08Z</time>
      </trkpt>
      <trkpt lat="45.82571" lon="4.24031">
        <ele>554.306</ele>
        <time>2018-09-10T13:42:13Z</time>
      </trkpt>
      <trkpt lat="45.82564" lon="4.24033">
        <ele>554.178</ele>
        <time>2018-09-10T13:42:19Z</time>
      </trkpt>
      <trkpt lat="45.82559" lon="4.24031">
        <ele>554.065</ele>
        <time>2018-09-10T13:42:24Z</time>
      </trkpt>
      <trkpt lat="45.82553" lon="4.24029">
        <ele>554.035</ele>
        <time>2018-09-10T13:42:30Z</time>
      </trkpt>
      <trkpt lat="45.82549" lon="4.24029">
        <ele>553.973</ele>
        <time>2018-09-10T13:42:36Z</time>
      </trkpt>
      <trkpt lat="45.82544" lon="4.24031">
        <ele>554.041</ele>
        <time>2018-09-10T13:42:43Z</time>
      </trkpt>
      <trkpt lat="45.82543" lon="4.2404">
        <ele>554.34</ele>
        <time>2018-09-10T13:42:48Z</time>
      </trkpt>
      <trkpt lat="45.82541" lon="4.24045">
        <ele>554.363</ele>
        <time>2018-09-10T13:42:54Z</time>
      </trkpt>
      <trkpt lat="45.82542" lon="4.24052">
        <ele>554.38</ele>
        <time>2018-09-10T13:43:00Z</time>
      </trkpt>
      <trkpt lat="45.82542" lon="4.24056">
        <ele>554.599</ele>
        <time>2018-09-10T13:43:05Z</time>
      </trkpt>
      <trkpt lat="45.82541" lon="4.24057">
        <ele>554.697</ele>
        <time>2018-09-10T13:43:10Z</time>
      </trkpt>
      <trkpt lat="45.82539" lon="4.24055">
        <ele>555.28</ele>
        <time>2018-09-10T13:43:17Z</time>
      </trkpt>
      <trkpt lat="45.82538" lon="4.24054">
        <ele>555.018</ele>
        <time>2018-09-10T13:43:22Z</time>
      </trkpt>
      <trkpt lat="45.82538" lon="4.24055">
        <ele>554.845</ele>
        <time>2018-09-10T13:43:27Z</time>
      </trkpt>
      <trkpt lat="45.82539" lon="4.24056">
        <ele>555.021</ele>
        <time>2018-09-10T13:43:33Z</time>
      </trkpt>
      <trkpt lat="45.8254" lon="4.24058">
        <ele>554.688</ele>
        <time>2018-09-10T13:43:38Z</time>
      </trkpt>
      <trkpt lat="45.82541" lon="4.24057">
        <ele>554.548</ele>
        <time>2018-09-10T13:43:44Z</time>
      </trkpt>
      <trkpt lat="45.82541" lon="4.24056">
        <ele>554.543</ele>
        <time>2018-09-10T13:43:49Z</time>
      </trkpt>
      <trkpt lat="45.8254" lon="4.24056">
        <ele>554.589</ele>
        <time>2018-09-10T13:43:54Z</time>
      </trkpt>
      <trkpt lat="45.82539" lon="4.24055">
        <ele>554.344</ele>
        <time>2018-09-10T13:44:00Z</time>
      </trkpt>
      <trkpt lat="45.82538" lon="4.24055">
        <ele>554.449</ele>
        <time>2018-09-10T13:44:05Z</time>
      </trkpt>
      <trkpt lat="45.82539" lon="4.24054">
        <ele>554.359</ele>
        <time>2018-09-10T13:44:11Z</time>
      </trkpt>
      <trkpt lat="45.8254" lon="4.24055">
        <ele>554.474</ele>
        <time>2018-09-10T13:44:17Z</time>
      </trkpt>
      <trkpt lat="45.8254" lon="4.24055">
        <ele>554.312</ele>
        <time>2018-09-10T13:44:22Z</time>
      </trkpt>
      <trkpt lat="45.8254" lon="4.24055">
        <ele>554.429</ele>
        <time>2018-09-10T13:44:27Z</time>
      </trkpt>
      <trkpt lat="45.8254" lon="4.24057">
        <ele>554.274</ele>
        <time>2018-09-10T13:44:33Z</time>
      </trkpt>
      <trkpt lat="45.82539" lon="4.24057">
        <ele>554.424</ele>
        <time>2018-09-10T13:44:39Z</time>
      </trkpt>
      <trkpt lat="45.82539" lon="4.24057">
        <ele>554.453</ele>
        <time>2018-09-10T13:44:44Z</time>
      </trkpt>
      <trkpt lat="45.82539" lon="4.24055">
        <ele>554.487</ele>
        <time>2018-09-10T13:44:50Z</time>
      </trkpt>
      <trkpt lat="45.82539" lon="4.24057">
        <ele>554.308</ele>
        <time>2018-09-10T13:44:56Z</time>
      </trkpt>
      <trkpt lat="45.8254" lon="4.24057">
        <ele>554.323</ele>
        <time>2018-09-10T13:45:01Z</time>
      </trkpt>
      <trkpt lat="45.8254" lon="4.2406">
        <ele>554.468</ele>
        <time>2018-09-10T13:45:07Z</time>
      </trkpt>
      <trkpt lat="45.8254" lon="4.24058">
        <ele>554.663</ele>
        <time>2018-09-10T13:45:12Z</time>
      </trkpt>
      <trkpt lat="45.8254" lon="4.24058">
        <ele>554.471</ele>
        <time>2018-09-10T13:45:18Z</time>
      </trkpt>
      <trkpt lat="45.82539" lon="4.2406">
        <ele>554.321</ele>
        <time>2018-09-10T13:45:24Z</time>
      </trkpt>
      <trkpt lat="45.82539" lon="4.24062">
        <ele>554.003</ele>
        <time>2018-09-10T13:45:30Z</time>
      </trkpt>
      <trkpt lat="45.8254" lon="4.24062">
        <ele>554.045</ele>
        <time>2018-09-10T13:45:35Z</time>
      </trkpt>
      <trkpt lat="45.8254" lon="4.2406">
        <ele>553.972</ele>
        <time>2018-09-10T13:45:41Z</time>
      </trkpt>
      <trkpt lat="45.82541" lon="4.24059">
        <ele>554.491</ele>
        <time>2018-09-10T13:45:47Z</time>
      </trkpt>
      <trkpt lat="45.82541" lon="4.24058">
        <ele>554.62</ele>
        <time>2018-09-10T13:45:53Z</time>
      </trkpt>
      <trkpt lat="45.8254" lon="4.24056">
        <ele>554.833</ele>
        <time>2018-09-10T13:45:59Z</time>
      </trkpt>
      <trkpt lat="45.8254" lon="4.24055">
        <ele>554.98</ele>
        <time>2018-09-10T13:46:04Z</time>
      </trkpt>
      <trkpt lat="45.8254" lon="4.24054">
        <ele>555.173</ele>
        <time>2018-09-10T13:46:10Z</time>
      </trkpt>
      <trkpt lat="45.82539" lon="4.24054">
        <ele>555.892</ele>
        <time>2018-09-10T13:46:16Z</time>
      </trkpt>
      <trkpt lat="45.82538" lon="4.24052">
        <ele>556.279</ele>
        <time>2018-09-10T13:46:22Z</time>
      </trkpt>
      <trkpt lat="45.82539" lon="4.24055">
        <ele>556.457</ele>
        <time>2018-09-10T13:46:27Z</time>
      </trkpt>
      <trkpt lat="45.82539" lon="4.24056">
        <ele>556.064</ele>
        <time>2018-09-10T13:46:33Z</time>
      </trkpt>
      <trkpt lat="45.82539" lon="4.24057">
        <ele>555.813</ele>
        <time>2018-09-10T13:46:39Z</time>
      </trkpt>
      <trkpt lat="45.82539" lon="4.24056">
        <ele>555.772</ele>
        <time>2018-09-10T13:46:45Z</time>
      </trkpt>
      <trkpt lat="45.82539" lon="4.24054">
        <ele>555.901</ele>
        <time>2018-09-10T13:46:51Z</time>
      </trkpt>
      <trkpt lat="45.8254" lon="4.24053">
        <ele>556.284</ele>
        <time>2018-09-10T13:46:56Z</time>
      </trkpt>
      <trkpt lat="45.82541" lon="4.24054">
        <ele>556.434</ele>
        <time>2018-09-10T13:47:01Z</time>
      </trkpt>
      <trkpt lat="45.82541" lon="4.24054">
        <ele>556.656</ele>
        <time>2018-09-10T13:47:07Z</time>
      </trkpt>
      <trkpt lat="45.82541" lon="4.24055">
        <ele>556.681</ele>
        <time>2018-09-10T13:47:13Z</time>
      </trkpt>
      <trkpt lat="45.82542" lon="4.24056">
        <ele>556.899</ele>
        <time>2018-09-10T13:47:19Z</time>
      </trkpt>
      <trkpt lat="45.82541" lon="4.24056">
        <ele>557.012</ele>
        <time>2018-09-10T13:47:25Z</time>
      </trkpt>
      <trkpt lat="45.82542" lon="4.24056">
        <ele>557.13</ele>
        <time>2018-09-10T13:47:31Z</time>
      </trkpt>
      <trkpt lat="45.82541" lon="4.24057">
        <ele>557.363</ele>
        <time>2018-09-10T13:47:36Z</time>
      </trkpt>
      <trkpt lat="45.82541" lon="4.24057">
        <ele>557.732</ele>
        <time>2018-09-10T13:47:42Z</time>
      </trkpt>
      <trkpt lat="45.82542" lon="4.24056">
        <ele>557.975</ele>
        <time>2018-09-10T13:47:48Z</time>
      </trkpt>
      <trkpt lat="45.82542" lon="4.24056">
        <ele>558.331</ele>
        <time>2018-09-10T13:47:54Z</time>
      </trkpt>
      <trkpt lat="45.82543" lon="4.24056">
        <ele>558.281</ele>
        <time>2018-09-10T13:47:59Z</time>
      </trkpt>
      <trkpt lat="45.82542" lon="4.24055">
        <ele>558.634</ele>
        <time>2018-09-10T13:48:04Z</time>
      </trkpt>
      <trkpt lat="45.82542" lon="4.24054">
        <ele>559.29</ele>
        <time>2018-09-10T13:48:09Z</time>
      </trkpt>
      <trkpt lat="45.82542" lon="4.24054">
        <ele>559.594</ele>
        <time>2018-09-10T13:48:15Z</time>
      </trkpt>
      <trkpt lat="45.82541" lon="4.24054">
        <ele>559.811</ele>
        <time>2018-09-10T13:48:20Z</time>
      </trkpt>
      <trkpt lat="45.82542" lon="4.24055">
        <ele>559.574</ele>
        <time>2018-09-10T13:48:26Z</time>
      </trkpt>
      <trkpt lat="45.82542" lon="4.24055">
        <ele>559.66</ele>
        <time>2018-09-10T13:48:32Z</time>
      </trkpt>
      <trkpt lat="45.82543" lon="4.24055">
        <ele>559.763</ele>
        <time>2018-09-10T13:48:38Z</time>
      </trkpt>
      <trkpt lat="45.82543" lon="4.24056">
        <ele>559.606</ele>
        <time>2018-09-10T13:48:44Z</time>
      </trkpt>
      <trkpt lat="45.82544" lon="4.24056">
        <ele>559.399</ele>
        <time>2018-09-10T13:48:50Z</time>
      </trkpt>
      <trkpt lat="45.82543" lon="4.24056">
        <ele>559.157</ele>
        <time>2018-09-10T13:48:55Z</time>
      </trkpt>
      <trkpt lat="45.82543" lon="4.24054">
        <ele>558.974</ele>
        <time>2018-09-10T13:49:01Z</time>
      </trkpt>
      <trkpt lat="45.82542" lon="4.24056">
        <ele>558.711</ele>
        <time>2018-09-10T13:49:07Z</time>
      </trkpt>
      <trkpt lat="45.82543" lon="4.24058">
        <ele>558.56</ele>
        <time>2018-09-10T13:49:12Z</time>
      </trkpt>
      <trkpt lat="45.82543" lon="4.24058">
        <ele>558.563</ele>
        <time>2018-09-10T13:49:17Z</time>
      </trkpt>
      <trkpt lat="45.82542" lon="4.24057">
        <ele>558.675</ele>
        <time>2018-09-10T13:49:23Z</time>
      </trkpt>
      <trkpt lat="45.82542" lon="4.24057">
        <ele>558.569</ele>
        <time>2018-09-10T13:49:29Z</time>
      </trkpt>
      <trkpt lat="45.82542" lon="4.24056">
        <ele>558.444</ele>
        <time>2018-09-10T13:49:34Z</time>
      </trkpt>
      <trkpt lat="45.82541" lon="4.24056">
        <ele>558.431</ele>
        <time>2018-09-10T13:49:40Z</time>
      </trkpt>
      <trkpt lat="45.82541" lon="4.24056">
        <ele>558.313</ele>
        <time>2018-09-10T13:49:45Z</time>
      </trkpt>
      <trkpt lat="45.8254" lon="4.24063">
        <ele>558.317</ele>
        <time>2018-09-10T13:49:51Z</time>
      </trkpt>
      <trkpt lat="45.8254" lon="4.2407">
        <ele>558.075</ele>
        <time>2018-09-10T13:49:57Z</time>
      </trkpt>
      <trkpt lat="45.82539" lon="4.24074">
        <ele>558.271</ele>
        <time>2018-09-10T13:50:03Z</time>
      </trkpt>
      <trkpt lat="45.82538" lon="4.24083">
        <ele>558.675</ele>
        <time>2018-09-10T13:50:09Z</time>
      </trkpt>
      <trkpt lat="45.82537" lon="4.2409">
        <ele>558.974</ele>
        <time>2018-09-10T13:50:14Z</time>
      </trkpt>
      <trkpt lat="45.82534" lon="4.24097">
        <ele>559.041</ele>
        <time>2018-09-10T13:50:20Z</time>
      </trkpt>
      <trkpt lat="45.82532" lon="4.24108">
        <ele>559.207</ele>
        <time>2018-09-10T13:50:26Z</time>
      </trkpt>
      <trkpt lat="45.8253" lon="4.24117">
        <ele>559.232</ele>
        <time>2018-09-10T13:50:32Z</time>
      </trkpt>
      <trkpt lat="45.82528" lon="4.24127">
        <ele>559.143</ele>
        <time>2018-09-10T13:50:38Z</time>
      </trkpt>
      <trkpt lat="45.82528" lon="4.24136">
        <ele>558.948</ele>
        <time>2018-09-10T13:50:44Z</time>
      </trkpt>
      <trkpt lat="45.82526" lon="4.24146">
        <ele>558.743</ele>
        <time>2018-09-10T13:50:50Z</time>
      </trkpt>
      <trkpt lat="45.82525" lon="4.24153">
        <ele>558.62</ele>
        <time>2018-09-10T13:50:55Z</time>
      </trkpt>
      <trkpt lat="45.82525" lon="4.24162">
        <ele>558.565</ele>
        <time>2018-09-10T13:51:02Z</time>
      </trkpt>
      <trkpt lat="45.82524" lon="4.2417">
        <ele>558.687</ele>
        <time>2018-09-10T13:51:07Z</time>
      </trkpt>
      <trkpt lat="45.82523" lon="4.24177">
        <ele>558.735</ele>
        <time>2018-09-10T13:51:13Z</time>
      </trkpt>
      <trkpt lat="45.82521" lon="4.24187">
        <ele>558.772</ele>
        <time>2018-09-10T13:51:18Z</time>
      </trkpt>
      <trkpt lat="45.82521" lon="4.24196">
        <ele>558.867</ele>
        <time>2018-09-10T13:51:24Z</time>
      </trkpt>
      <trkpt lat="45.82521" lon="4.24207">
        <ele>558.989</ele>
        <time>2018-09-10T13:51:30Z</time>
      </trkpt>
      <trkpt lat="45.8252" lon="4.24216">
        <ele>559.126</ele>
        <time>2018-09-10T13:51:36Z</time>
      </trkpt>
      <trkpt lat="45.82519" lon="4.24227">
        <ele>559.208</ele>
        <time>2018-09-10T13:51:42Z</time>
      </trkpt>
      <trkpt lat="45.82519" lon="4.24233">
        <ele>559.282</ele>
        <time>2018-09-10T13:51:47Z</time>
      </trkpt>
      <trkpt lat="45.8252" lon="4.24244">
        <ele>559.737</ele>
        <time>2018-09-10T13:51:53Z</time>
      </trkpt>
      <trkpt lat="45.82518" lon="4.24253">
        <ele>560.07</ele>
        <time>2018-09-10T13:51:59Z</time>
      </trkpt>
      <trkpt lat="45.82518" lon="4.24264">
        <ele>560.298</ele>
        <time>2018-09-10T13:52:04Z</time>
      </trkpt>
      <trkpt lat="45.82518" lon="4.24271">
        <ele>560.592</ele>
        <time>2018-09-10T13:52:10Z</time>
      </trkpt>
      <trkpt lat="45.82518" lon="4.24279">
        <ele>560.97</ele>
        <time>2018-09-10T13:52:15Z</time>
      </trkpt>
      <trkpt lat="45.82518" lon="4.24289">
        <ele>561.474</ele>
        <time>2018-09-10T13:52:21Z</time>
      </trkpt>
      <trkpt lat="45.82517" lon="4.243">
        <ele>561.754</ele>
        <time>2018-09-10T13:52:27Z</time>
      </trkpt>
      <trkpt lat="45.82517" lon="4.24311">
        <ele>562.051</ele>
        <time>2018-09-10T13:52:32Z</time>
      </trkpt>
      <trkpt lat="45.82517" lon="4.24319">
        <ele>562.209</ele>
        <time>2018-09-10T13:52:37Z</time>
      </trkpt>
      <trkpt lat="45.82516" lon="4.24325">
        <ele>562.479</ele>
        <time>2018-09-10T13:52:42Z</time>
      </trkpt>
      <trkpt lat="45.82515" lon="4.24337">
        <ele>562.781</ele>
        <time>2018-09-10T13:52:48Z</time>
      </trkpt>
      <trkpt lat="45.82516" lon="4.24344">
        <ele>563.026</ele>
        <time>2018-09-10T13:52:53Z</time>
      </trkpt>
      <trkpt lat="45.82515" lon="4.24347">
        <ele>563.275</ele>
        <time>2018-09-10T13:52:59Z</time>
      </trkpt>
      <trkpt lat="45.82516" lon="4.24346">
        <ele>563.561</ele>
        <time>2018-09-10T13:53:05Z</time>
      </trkpt>
      <trkpt lat="45.82517" lon="4.24346">
        <ele>563.923</ele>
        <time>2018-09-10T13:53:10Z</time>
      </trkpt>
      <trkpt lat="45.82517" lon="4.24346">
        <ele>564.19</ele>
        <time>2018-09-10T13:53:16Z</time>
      </trkpt>
      <trkpt lat="45.82518" lon="4.24347">
        <ele>564.12</ele>
        <time>2018-09-10T13:53:21Z</time>
      </trkpt>
      <trkpt lat="45.82518" lon="4.24348">
        <ele>564.457</ele>
        <time>2018-09-10T13:53:26Z</time>
      </trkpt>
      <trkpt lat="45.82517" lon="4.24349">
        <ele>565.155</ele>
        <time>2018-09-10T13:53:32Z</time>
      </trkpt>
      <trkpt lat="45.82519" lon="4.2435">
        <ele>565.462</ele>
        <time>2018-09-10T13:53:38Z</time>
      </trkpt>
      <trkpt lat="45.82518" lon="4.2435">
        <ele>565.571</ele>
        <time>2018-09-10T13:53:44Z</time>
      </trkpt>
      <trkpt lat="45.82516" lon="4.24352">
        <ele>565.915</ele>
        <time>2018-09-10T13:53:50Z</time>
      </trkpt>
      <trkpt lat="45.82516" lon="4.24355">
        <ele>566.62</ele>
        <time>2018-09-10T13:53:56Z</time>
      </trkpt>
      <trkpt lat="45.82516" lon="4.24359">
        <ele>566.712</ele>
        <time>2018-09-10T13:54:01Z</time>
      </trkpt>
      <trkpt lat="45.82515" lon="4.24359">
        <ele>566.663</ele>
        <time>2018-09-10T13:54:07Z</time>
      </trkpt>
      <trkpt lat="45.82515" lon="4.24359">
        <ele>566.605</ele>
        <time>2018-09-10T13:54:13Z</time>
      </trkpt>
      <trkpt lat="45.82516" lon="4.2436">
        <ele>566.501</ele>
        <time>2018-09-10T13:54:18Z</time>
      </trkpt>
      <trkpt lat="45.82515" lon="4.24365">
        <ele>566.393</ele>
        <time>2018-09-10T13:54:23Z</time>
      </trkpt>
      <trkpt lat="45.82514" lon="4.24371">
        <ele>566.343</ele>
        <time>2018-09-10T13:54:28Z</time>
      </trkpt>
      <trkpt lat="45.82513" lon="4.24377">
        <ele>566.305</ele>
        <time>2018-09-10T13:54:33Z</time>
      </trkpt>
      <trkpt lat="45.82513" lon="4.24384">
        <ele>566.357</ele>
        <time>2018-09-10T13:54:39Z</time>
      </trkpt>
      <trkpt lat="45.82513" lon="4.24393">
        <ele>566.54</ele>
        <time>2018-09-10T13:54:45Z</time>
      </trkpt>
      <trkpt lat="45.82511" lon="4.24402">
        <ele>566.687</ele>
        <time>2018-09-10T13:54:50Z</time>
      </trkpt>
      <trkpt lat="45.8251" lon="4.24411">
        <ele>566.792</ele>
        <time>2018-09-10T13:54:55Z</time>
      </trkpt>
      <trkpt lat="45.82508" lon="4.24415">
        <ele>567.109</ele>
        <time>2018-09-10T13:55:01Z</time>
      </trkpt>
      <trkpt lat="45.82505" lon="4.24423">
        <ele>567.661</ele>
        <time>2018-09-10T13:55:07Z</time>
      </trkpt>
      <trkpt lat="45.82504" lon="4.24428">
        <ele>567.55</ele>
        <time>2018-09-10T13:55:12Z</time>
      </trkpt>
      <trkpt lat="45.82505" lon="4.24439">
        <ele>567.103</ele>
        <time>2018-09-10T13:55:18Z</time>
      </trkpt>
      <trkpt lat="45.82508" lon="4.24447">
        <ele>566.606</ele>
        <time>2018-09-10T13:55:24Z</time>
      </trkpt>
      <trkpt lat="45.8251" lon="4.24455">
        <ele>566.939</ele>
        <time>2018-09-10T13:55:30Z</time>
      </trkpt>
      <trkpt lat="45.8251" lon="4.24464">
        <ele>567.264</ele>
        <time>2018-09-10T13:55:36Z</time>
      </trkpt>
      <trkpt lat="45.8251" lon="4.24473">
        <ele>567.393</ele>
        <time>2018-09-10T13:55:41Z</time>
      </trkpt>
      <trkpt lat="45.82509" lon="4.24484">
        <ele>567.175</ele>
        <time>2018-09-10T13:55:47Z</time>
      </trkpt>
      <trkpt lat="45.82509" lon="4.24489">
        <ele>567.1</ele>
        <time>2018-09-10T13:55:52Z</time>
      </trkpt>
      <trkpt lat="45.82509" lon="4.24495">
        <ele>567.021</ele>
        <time>2018-09-10T13:55:58Z</time>
      </trkpt>
      <trkpt lat="45.8251" lon="4.24501">
        <ele>566.413</ele>
        <time>2018-09-10T13:56:03Z</time>
      </trkpt>
      <trkpt lat="45.82511" lon="4.24512">
        <ele>565.578</ele>
        <time>2018-09-10T13:56:09Z</time>
      </trkpt>
      <trkpt lat="45.82512" lon="4.24522">
        <ele>564.943</ele>
        <time>2018-09-10T13:56:15Z</time>
      </trkpt>
      <trkpt lat="45.82513" lon="4.2453">
        <ele>564.377</ele>
        <time>2018-09-10T13:56:21Z</time>
      </trkpt>
      <trkpt lat="45.82514" lon="4.2454">
        <ele>564.184</ele>
        <time>2018-09-10T13:56:27Z</time>
      </trkpt>
      <trkpt lat="45.82515" lon="4.24548">
        <ele>563.754</ele>
        <time>2018-09-10T13:56:32Z</time>
      </trkpt>
      <trkpt lat="45.82517" lon="4.24556">
        <ele>563.614</ele>
        <time>2018-09-10T13:56:38Z</time>
      </trkpt>
      <trkpt lat="45.82518" lon="4.24563">
        <ele>563.491</ele>
        <time>2018-09-10T13:56:43Z</time>
      </trkpt>
      <trkpt lat="45.82518" lon="4.24562">
        <ele>563.111</ele>
        <time>2018-09-10T13:56:49Z</time>
      </trkpt>
      <trkpt lat="45.82518" lon="4.24568">
        <ele>562.38</ele>
        <time>2018-09-10T13:56:55Z</time>
      </trkpt>
      <trkpt lat="45.8252" lon="4.24577">
        <ele>561.705</ele>
        <time>2018-09-10T13:57:00Z</time>
      </trkpt>
      <trkpt lat="45.8252" lon="4.24585">
        <ele>561.42</ele>
        <time>2018-09-10T13:57:06Z</time>
      </trkpt>
      <trkpt lat="45.82522" lon="4.24598">
        <ele>560.838</ele>
        <time>2018-09-10T13:57:12Z</time>
      </trkpt>
      <trkpt lat="45.82522" lon="4.24606">
        <ele>560.919</ele>
        <time>2018-09-10T13:57:17Z</time>
      </trkpt>
      <trkpt lat="45.82522" lon="4.24611">
        <ele>561.299</ele>
        <time>2018-09-10T13:57:22Z</time>
      </trkpt>
      <trkpt lat="45.82522" lon="4.24614">
        <ele>561.421</ele>
        <time>2018-09-10T13:57:28Z</time>
      </trkpt>
      <trkpt lat="45.82522" lon="4.24616">
        <ele>561.517</ele>
        <time>2018-09-10T13:57:33Z</time>
      </trkpt>
      <trkpt lat="45.82519" lon="4.24621">
        <ele>561.538</ele>
        <time>2018-09-10T13:57:39Z</time>
      </trkpt>
      <trkpt lat="45.82516" lon="4.24627">
        <ele>561.664</ele>
        <time>2018-09-10T13:57:45Z</time>
      </trkpt>
      <trkpt lat="45.82512" lon="4.24631">
        <ele>561.724</ele>
        <time>2018-09-10T13:57:51Z</time>
      </trkpt>
      <trkpt lat="45.82507" lon="4.24639">
        <ele>561.841</ele>
        <time>2018-09-10T13:57:57Z</time>
      </trkpt>
      <trkpt lat="45.82503" lon="4.24646">
        <ele>562.208</ele>
        <time>2018-09-10T13:58:03Z</time>
      </trkpt>
      <trkpt lat="45.82497" lon="4.24652">
        <ele>562.871</ele>
        <time>2018-09-10T13:58:09Z</time>
      </trkpt>
      <trkpt lat="45.82493" lon="4.24656">
        <ele>562.963</ele>
        <time>2018-09-10T13:58:15Z</time>
      </trkpt>
      <trkpt lat="45.82489" lon="4.24662">
        <ele>563.041</ele>
        <time>2018-09-10T13:58:21Z</time>
      </trkpt>
      <trkpt lat="45.82484" lon="4.24667">
        <ele>563.314</ele>
        <time>2018-09-10T13:58:26Z</time>
      </trkpt>
      <trkpt lat="45.82482" lon="4.24668">
        <ele>563.66</ele>
        <time>2018-09-10T13:58:31Z</time>
      </trkpt>
      <trkpt lat="45.82481" lon="4.24668">
        <ele>563.807</ele>
        <time>2018-09-10T13:58:37Z</time>
      </trkpt>
      <trkpt lat="45.8248" lon="4.24666">
        <ele>564.056</ele>
        <time>2018-09-10T13:58:43Z</time>
      </trkpt>
      <trkpt lat="45.82481" lon="4.24666">
        <ele>564.337</ele>
        <time>2018-09-10T13:58:49Z</time>
      </trkpt>
      <trkpt lat="45.82481" lon="4.24666">
        <ele>564.419</ele>
        <time>2018-09-10T13:58:55Z</time>
      </trkpt>
      <trkpt lat="45.82481" lon="4.24665">
        <ele>564.507</ele>
        <time>2018-09-10T13:59:00Z</time>
      </trkpt>
      <trkpt lat="45.8248" lon="4.24665">
        <ele>564.433</ele>
        <time>2018-09-10T13:59:06Z</time>
      </trkpt>
      <trkpt lat="45.82481" lon="4.24663">
        <ele>564.803</ele>
        <time>2018-09-10T13:59:11Z</time>
      </trkpt>
      <trkpt lat="45.82482" lon="4.24663">
        <ele>565.133</ele>
        <time>2018-09-10T13:59:17Z</time>
      </trkpt>
      <trkpt lat="45.82485" lon="4.24662">
        <ele>564.998</ele>
        <time>2018-09-10T13:59:22Z</time>
      </trkpt>
      <trkpt lat="45.8249" lon="4.2466">
        <ele>564.426</ele>
        <time>2018-09-10T13:59:28Z</time>
      </trkpt>
      <trkpt lat="45.82492" lon="4.24658">
        <ele>563.94</ele>
        <time>2018-09-10T13:59:34Z</time>
      </trkpt>
      <trkpt lat="45.82496" lon="4.2465">
        <ele>563.856</ele>
        <time>2018-09-10T13:59:40Z</time>
      </trkpt>
      <trkpt lat="45.82501" lon="4.24643">
        <ele>563.49</ele>
        <time>2018-09-10T13:59:46Z</time>
      </trkpt>
      <trkpt lat="45.82506" lon="4.2464">
        <ele>562.767</ele>
        <time>2018-09-10T13:59:52Z</time>
      </trkpt>
      <trkpt lat="45.82508" lon="4.24637">
        <ele>562.598</ele>
        <time>2018-09-10T13:59:57Z</time>
      </trkpt>
      <trkpt lat="45.82509" lon="4.24637">
        <ele>562.548</ele>
        <time>2018-09-10T14:00:03Z</time>
      </trkpt>
      <trkpt lat="45.82508" lon="4.24638">
        <ele>562.632</ele>
        <time>2018-09-10T14:00:08Z</time>
      </trkpt>
      <trkpt lat="45.82509" lon="4.24641">
        <ele>562.756</ele>
        <time>2018-09-10T14:00:14Z</time>
      </trkpt>
      <trkpt lat="45.82508" lon="4.24642">
        <ele>563.313</ele>
        <time>2018-09-10T14:00:19Z</time>
      </trkpt>
      <trkpt lat="45.82505" lon="4.24644">
        <ele>563.55</ele>
        <time>2018-09-10T14:00:25Z</time>
      </trkpt>
      <trkpt lat="45.82501" lon="4.24648">
        <ele>563.915</ele>
        <time>2018-09-10T14:00:31Z</time>
      </trkpt>
      <trkpt lat="45.82497" lon="4.24655">
        <ele>563.991</ele>
        <time>2018-09-10T14:00:37Z</time>
      </trkpt>
      <trkpt lat="45.82492" lon="4.24658">
        <ele>564.068</ele>
        <time>2018-09-10T14:00:43Z</time>
      </trkpt>
      <trkpt lat="45.82489" lon="4.2466">
        <ele>564.013</ele>
        <time>2018-09-10T14:00:48Z</time>
      </trkpt>
      <trkpt lat="45.82485" lon="4.24664">
        <ele>563.779</ele>
        <time>2018-09-10T14:00:54Z</time>
      </trkpt>
      <trkpt lat="45.82483" lon="4.24668">
        <ele>563.951</ele>
        <time>2018-09-10T14:00:59Z</time>
      </trkpt>
      <trkpt lat="45.82484" lon="4.24665">
        <ele>564.146</ele>
        <time>2018-09-10T14:01:05Z</time>
      </trkpt>
      <trkpt lat="45.82482" lon="4.24662">
        <ele>564.185</ele>
        <time>2018-09-10T14:01:10Z</time>
      </trkpt>
      <trkpt lat="45.82482" lon="4.24663">
        <ele>563.951</ele>
        <time>2018-09-10T14:01:15Z</time>
      </trkpt>
      <trkpt lat="45.82483" lon="4.24664">
        <ele>563.949</ele>
        <time>2018-09-10T14:01:21Z</time>
      </trkpt>
      <trkpt lat="45.82482" lon="4.24665">
        <ele>564.321</ele>
        <time>2018-09-10T14:01:26Z</time>
      </trkpt>
      <trkpt lat="45.82479" lon="4.24667">
        <ele>564.356</ele>
        <time>2018-09-10T14:01:31Z</time>
      </trkpt>
      <trkpt lat="45.82475" lon="4.24672">
        <ele>564.369</ele>
        <time>2018-09-10T14:01:37Z</time>
      </trkpt>
      <trkpt lat="45.82471" lon="4.24678">
        <ele>564.495</ele>
        <time>2018-09-10T14:01:42Z</time>
      </trkpt>
      <trkpt lat="45.82466" lon="4.24683">
        <ele>564.711</ele>
        <time>2018-09-10T14:01:48Z</time>
      </trkpt>
      <trkpt lat="45.82461" lon="4.24689">
        <ele>564.839</ele>
        <time>2018-09-10T14:01:54Z</time>
      </trkpt>
      <trkpt lat="45.82454" lon="4.24694">
        <ele>564.945</ele>
        <time>2018-09-10T14:02:00Z</time>
      </trkpt>
      <trkpt lat="45.8245" lon="4.24696">
        <ele>565.065</ele>
        <time>2018-09-10T14:02:06Z</time>
      </trkpt>
      <trkpt lat="45.82445" lon="4.24698">
        <ele>565.334</ele>
        <time>2018-09-10T14:02:11Z</time>
      </trkpt>
      <trkpt lat="45.82438" lon="4.24696">
        <ele>565.594</ele>
        <time>2018-09-10T14:02:17Z</time>
      </trkpt>
      <trkpt lat="45.82434" lon="4.24692">
        <ele>565.682</ele>
        <time>2018-09-10T14:02:23Z</time>
      </trkpt>
      <trkpt lat="45.82429" lon="4.24686">
        <ele>565.888</ele>
        <time>2018-09-10T14:02:29Z</time>
      </trkpt>
      <trkpt lat="45.82428" lon="4.24686">
        <ele>565.946</ele>
        <time>2018-09-10T14:02:34Z</time>
      </trkpt>
      <trkpt lat="45.82427" lon="4.24687">
        <ele>565.868</ele>
        <time>2018-09-10T14:02:40Z</time>
      </trkpt>
      <trkpt lat="45.82423" lon="4.24682">
        <ele>565.675</ele>
        <time>2018-09-10T14:02:46Z</time>
      </trkpt>
      <trkpt lat="45.82414" lon="4.24679">
        <ele>565.465</ele>
        <time>2018-09-10T14:02:53Z</time>
      </trkpt>
      <trkpt lat="45.82409" lon="4.24678">
        <ele>565.186</ele>
        <time>2018-09-10T14:02:58Z</time>
      </trkpt>
      <trkpt lat="45.82403" lon="4.24678">
        <ele>565.069</ele>
        <time>2018-09-10T14:03:04Z</time>
      </trkpt>
      <trkpt lat="45.82394" lon="4.2468">
        <ele>565.173</ele>
        <time>2018-09-10T14:03:10Z</time>
      </trkpt>
      <trkpt lat="45.82388" lon="4.24679">
        <ele>565.166</ele>
        <time>2018-09-10T14:03:15Z</time>
      </trkpt>
      <trkpt lat="45.8238" lon="4.24678">
        <ele>565.072</ele>
        <time>2018-09-10T14:03:20Z</time>
      </trkpt>
      <trkpt lat="45.82374" lon="4.24677">
        <ele>565.001</ele>
        <time>2018-09-10T14:03:26Z</time>
      </trkpt>
      <trkpt lat="45.82371" lon="4.24676">
        <ele>565.117</ele>
        <time>2018-09-10T14:03:31Z</time>
      </trkpt>
      <trkpt lat="45.82367" lon="4.24677">
        <ele>565.082</ele>
        <time>2018-09-10T14:03:37Z</time>
      </trkpt>
      <trkpt lat="45.82363" lon="4.24677">
        <ele>564.983</ele>
        <time>2018-09-10T14:03:43Z</time>
      </trkpt>
      <trkpt lat="45.82356" lon="4.24678">
        <ele>564.726</ele>
        <time>2018-09-10T14:03:48Z</time>
      </trkpt>
      <trkpt lat="45.82349" lon="4.24681">
        <ele>564.689</ele>
        <time>2018-09-10T14:03:53Z</time>
      </trkpt>
      <trkpt lat="45.82341" lon="4.24684">
        <ele>564.985</ele>
        <time>2018-09-10T14:03:59Z</time>
      </trkpt>
      <trkpt lat="45.82333" lon="4.24688">
        <ele>565.089</ele>
        <time>2018-09-10T14:04:04Z</time>
      </trkpt>
      <trkpt lat="45.82326" lon="4.24692">
        <ele>565.263</ele>
        <time>2018-09-10T14:04:10Z</time>
      </trkpt>
      <trkpt lat="45.82321" lon="4.24694">
        <ele>565.18</ele>
        <time>2018-09-10T14:04:15Z</time>
      </trkpt>
      <trkpt lat="45.82315" lon="4.24697">
        <ele>565.117</ele>
        <time>2018-09-10T14:04:21Z</time>
      </trkpt>
      <trkpt lat="45.82308" lon="4.24703">
        <ele>564.988</ele>
        <time>2018-09-10T14:04:26Z</time>
      </trkpt>
      <trkpt lat="45.82302" lon="4.24707">
        <ele>564.997</ele>
        <time>2018-09-10T14:04:32Z</time>
      </trkpt>
      <trkpt lat="45.82298" lon="4.24708">
        <ele>565.322</ele>
        <time>2018-09-10T14:04:37Z</time>
      </trkpt>
      <trkpt lat="45.82291" lon="4.24711">
        <ele>565.751</ele>
        <time>2018-09-10T14:04:43Z</time>
      </trkpt>
      <trkpt lat="45.82285" lon="4.24712">
        <ele>566.108</ele>
        <time>2018-09-10T14:04:48Z</time>
      </trkpt>
      <trkpt lat="45.82279" lon="4.24714">
        <ele>566.337</ele>
        <time>2018-09-10T14:04:54Z</time>
      </trkpt>
      <trkpt lat="45.82272" lon="4.24715">
        <ele>566.601</ele>
        <time>2018-09-10T14:05:00Z</time>
      </trkpt>
      <trkpt lat="45.82265" lon="4.24716">
        <ele>566.781</ele>
        <time>2018-09-10T14:05:06Z</time>
      </trkpt>
      <trkpt lat="45.8226" lon="4.24716">
        <ele>566.925</ele>
        <time>2018-09-10T14:05:11Z</time>
      </trkpt>
      <trkpt lat="45.82252" lon="4.24716">
        <ele>566.927</ele>
        <time>2018-09-10T14:05:16Z</time>
      </trkpt>
      <trkpt lat="45.82246" lon="4.24716">
        <ele>567.076</ele>
        <time>2018-09-10T14:05:21Z</time>
      </trkpt>
      <trkpt lat="45.82242" lon="4.24716">
        <ele>567.543</ele>
        <time>2018-09-10T14:05:26Z</time>
      </trkpt>
      <trkpt lat="45.82235" lon="4.24714">
        <ele>568.019</ele>
        <time>2018-09-10T14:05:32Z</time>
      </trkpt>
      <trkpt lat="45.8223" lon="4.24712">
        <ele>568.415</ele>
        <time>2018-09-10T14:05:37Z</time>
      </trkpt>
      <trkpt lat="45.82222" lon="4.24708">
        <ele>568.978</ele>
        <time>2018-09-10T14:05:43Z</time>
      </trkpt>
      <trkpt lat="45.82217" lon="4.24704">
        <ele>569.362</ele>
        <time>2018-09-10T14:05:48Z</time>
      </trkpt>
      <trkpt lat="45.8221" lon="4.24701">
        <ele>570.085</ele>
        <time>2018-09-10T14:05:54Z</time>
      </trkpt>
      <trkpt lat="45.82206" lon="4.247">
        <ele>570.22</ele>
        <time>2018-09-10T14:05:59Z</time>
      </trkpt>
      <trkpt lat="45.82202" lon="4.24698">
        <ele>570.191</ele>
        <time>2018-09-10T14:06:05Z</time>
      </trkpt>
      <trkpt lat="45.822" lon="4.24702">
        <ele>570.505</ele>
        <time>2018-09-10T14:06:11Z</time>
      </trkpt>
      <trkpt lat="45.822" lon="4.24702">
        <ele>570.918</ele>
        <time>2018-09-10T14:06:17Z</time>
      </trkpt>
      <trkpt lat="45.82198" lon="4.24703">
        <ele>571.419</ele>
        <time>2018-09-10T14:06:23Z</time>
      </trkpt>
      <trkpt lat="45.82197" lon="4.24704">
        <ele>571.522</ele>
        <time>2018-09-10T14:06:28Z</time>
      </trkpt>
      <trkpt lat="45.82198" lon="4.24705">
        <ele>572.023</ele>
        <time>2018-09-10T14:06:33Z</time>
      </trkpt>
      <trkpt lat="45.82199" lon="4.24712">
        <ele>571.838</ele>
        <time>2018-09-10T14:06:39Z</time>
      </trkpt>
      <trkpt lat="45.822" lon="4.24724">
        <ele>571.888</ele>
        <time>2018-09-10T14:06:45Z</time>
      </trkpt>
      <trkpt lat="45.82201" lon="4.24732">
        <ele>571.741</ele>
        <time>2018-09-10T14:06:51Z</time>
      </trkpt>
      <trkpt lat="45.82202" lon="4.24742">
        <ele>571.441</ele>
        <time>2018-09-10T14:06:57Z</time>
      </trkpt>
      <trkpt lat="45.82201" lon="4.24751">
        <ele>570.854</ele>
        <time>2018-09-10T14:07:03Z</time>
      </trkpt>
      <trkpt lat="45.822" lon="4.2476">
        <ele>570.267</ele>
        <time>2018-09-10T14:07:09Z</time>
      </trkpt>
      <trkpt lat="45.82199" lon="4.24768">
        <ele>569.606</ele>
        <time>2018-09-10T14:07:15Z</time>
      </trkpt>
      <trkpt lat="45.82199" lon="4.24774">
        <ele>569.159</ele>
        <time>2018-09-10T14:07:20Z</time>
      </trkpt>
      <trkpt lat="45.82197" lon="4.24787">
        <ele>568.862</ele>
        <time>2018-09-10T14:07:25Z</time>
      </trkpt>
      <trkpt lat="45.82195" lon="4.24793">
        <ele>568.37</ele>
        <time>2018-09-10T14:07:30Z</time>
      </trkpt>
      <trkpt lat="45.82193" lon="4.24803">
        <ele>567.499</ele>
        <time>2018-09-10T14:07:36Z</time>
      </trkpt>
      <trkpt lat="45.82191" lon="4.2481">
        <ele>566.687</ele>
        <time>2018-09-10T14:07:41Z</time>
      </trkpt>
      <trkpt lat="45.8219" lon="4.24819">
        <ele>565.702</ele>
        <time>2018-09-10T14:07:47Z</time>
      </trkpt>
      <trkpt lat="45.82186" lon="4.24827">
        <ele>564.716</ele>
        <time>2018-09-10T14:07:52Z</time>
      </trkpt>
      <trkpt lat="45.82182" lon="4.24835">
        <ele>563.5</ele>
        <time>2018-09-10T14:07:58Z</time>
      </trkpt>
      <trkpt lat="45.82181" lon="4.24841">
        <ele>562.863</ele>
        <time>2018-09-10T14:08:03Z</time>
      </trkpt>
      <trkpt lat="45.8218" lon="4.24841">
        <ele>562.555</ele>
        <time>2018-09-10T14:08:09Z</time>
      </trkpt>
      <trkpt lat="45.82182" lon="4.24841">
        <ele>562.252</ele>
        <time>2018-09-10T14:08:15Z</time>
      </trkpt>
      <trkpt lat="45.82182" lon="4.2484">
        <ele>561.897</ele>
        <time>2018-09-10T14:08:20Z</time>
      </trkpt>
      <trkpt lat="45.82183" lon="4.2484">
        <ele>561.856</ele>
        <time>2018-09-10T14:08:26Z</time>
      </trkpt>
      <trkpt lat="45.82183" lon="4.24839">
        <ele>561.73</ele>
        <time>2018-09-10T14:08:31Z</time>
      </trkpt>
      <trkpt lat="45.82181" lon="4.24843">
        <ele>561.615</ele>
        <time>2018-09-10T14:08:36Z</time>
      </trkpt>
      <trkpt lat="45.8218" lon="4.24853">
        <ele>561.347</ele>
        <time>2018-09-10T14:08:42Z</time>
      </trkpt>
      <trkpt lat="45.8218" lon="4.24862">
        <ele>560.852</ele>
        <time>2018-09-10T14:08:48Z</time>
      </trkpt>
      <trkpt lat="45.82176" lon="4.24864">
        <ele>560.442</ele>
        <time>2018-09-10T14:08:54Z</time>
      </trkpt>
      <trkpt lat="45.82176" lon="4.24866">
        <ele>560.18</ele>
        <time>2018-09-10T14:08:59Z</time>
      </trkpt>
      <trkpt lat="45.82176" lon="4.24865">
        <ele>560.058</ele>
        <time>2018-09-10T14:09:04Z</time>
      </trkpt>
      <trkpt lat="45.82176" lon="4.24863">
        <ele>559.75</ele>
        <time>2018-09-10T14:09:10Z</time>
      </trkpt>
      <trkpt lat="45.82176" lon="4.2486">
        <ele>559.598</ele>
        <time>2018-09-10T14:09:16Z</time>
      </trkpt>
      <trkpt lat="45.82176" lon="4.24859">
        <ele>559.403</ele>
        <time>2018-09-10T14:09:21Z</time>
      </trkpt>
      <trkpt lat="45.82176" lon="4.2486">
        <ele>558.741</ele>
        <time>2018-09-10T14:09:27Z</time>
      </trkpt>
      <trkpt lat="45.82176" lon="4.2486">
        <ele>558.595</ele>
        <time>2018-09-10T14:09:32Z</time>
      </trkpt>
      <trkpt lat="45.82176" lon="4.24862">
        <ele>558.578</ele>
        <time>2018-09-10T14:09:37Z</time>
      </trkpt>
      <trkpt lat="45.82176" lon="4.24864">
        <ele>558.302</ele>
        <time>2018-09-10T14:09:43Z</time>
      </trkpt>
      <trkpt lat="45.82177" lon="4.24863">
        <ele>557.926</ele>
        <time>2018-09-10T14:09:48Z</time>
      </trkpt>
      <trkpt lat="45.82174" lon="4.24862">
        <ele>557.9</ele>
        <time>2018-09-10T14:09:54Z</time>
      </trkpt>
      <trkpt lat="45.82169" lon="4.24866">
        <ele>557.592</ele>
        <time>2018-09-10T14:10:00Z</time>
      </trkpt>
      <trkpt lat="45.82163" lon="4.24869">
        <ele>557.503</ele>
        <time>2018-09-10T14:10:06Z</time>
      </trkpt>
      <trkpt lat="45.82158" lon="4.24872">
        <ele>557.466</ele>
        <time>2018-09-10T14:10:11Z</time>
      </trkpt>
      <trkpt lat="45.82153" lon="4.24875">
        <ele>557.382</ele>
        <time>2018-09-10T14:10:16Z</time>
      </trkpt>
      <trkpt lat="45.82144" lon="4.24876">
        <ele>557.014</ele>
        <time>2018-09-10T14:10:22Z</time>
      </trkpt>
      <trkpt lat="45.82137" lon="4.24879">
        <ele>556.661</ele>
        <time>2018-09-10T14:10:28Z</time>
      </trkpt>
      <trkpt lat="45.82131" lon="4.24883">
        <ele>556.747</ele>
        <time>2018-09-10T14:10:33Z</time>
      </trkpt>
      <trkpt lat="45.82125" lon="4.24886">
        <ele>556.538</ele>
        <time>2018-09-10T14:10:39Z</time>
      </trkpt>
      <trkpt lat="45.82119" lon="4.2489">
        <ele>556.282</ele>
        <time>2018-09-10T14:10:44Z</time>
      </trkpt>
      <trkpt lat="45.8211" lon="4.24889">
        <ele>556.031</ele>
        <time>2018-09-10T14:10:50Z</time>
      </trkpt>
      <trkpt lat="45.82102" lon="4.24892">
        <ele>555.699</ele>
        <time>2018-09-10T14:10:56Z</time>
      </trkpt>
      <trkpt lat="45.82095" lon="4.24895">
        <ele>555.249</ele>
        <time>2018-09-10T14:11:02Z</time>
      </trkpt>
      <trkpt lat="45.82087" lon="4.24899">
        <ele>555.015</ele>
        <time>2018-09-10T14:11:08Z</time>
      </trkpt>
      <trkpt lat="45.82081" lon="4.24901">
        <ele>554.68</ele>
        <time>2018-09-10T14:11:13Z</time>
      </trkpt>
      <trkpt lat="45.82075" lon="4.24906">
        <ele>554.366</ele>
        <time>2018-09-10T14:11:19Z</time>
      </trkpt>
      <trkpt lat="45.8207" lon="4.24912">
        <ele>553.994</ele>
        <time>2018-09-10T14:11:24Z</time>
      </trkpt>
      <trkpt lat="45.82063" lon="4.24915">
        <ele>553.378</ele>
        <time>2018-09-10T14:11:30Z</time>
      </trkpt>
      <trkpt lat="45.82056" lon="4.24919">
        <ele>552.788</ele>
        <time>2018-09-10T14:11:36Z</time>
      </trkpt>
      <trkpt lat="45.82049" lon="4.24923">
        <ele>552.018</ele>
        <time>2018-09-10T14:11:42Z</time>
      </trkpt>
      <trkpt lat="45.82045" lon="4.24925">
        <ele>551.4</ele>
        <time>2018-09-10T14:11:47Z</time>
      </trkpt>
      <trkpt lat="45.8204" lon="4.24929">
        <ele>551.057</ele>
        <time>2018-09-10T14:11:52Z</time>
      </trkpt>
      <trkpt lat="45.82033" lon="4.24935">
        <ele>550.605</ele>
        <time>2018-09-10T14:11:58Z</time>
      </trkpt>
      <trkpt lat="45.82028" lon="4.24938">
        <ele>550.174</ele>
        <time>2018-09-10T14:12:03Z</time>
      </trkpt>
      <trkpt lat="45.82024" lon="4.24941">
        <ele>549.724</ele>
        <time>2018-09-10T14:12:08Z</time>
      </trkpt>
      <trkpt lat="45.82016" lon="4.24945">
        <ele>548.549</ele>
        <time>2018-09-10T14:12:14Z</time>
      </trkpt>
      <trkpt lat="45.82011" lon="4.2495">
        <ele>547.875</ele>
        <time>2018-09-10T14:12:19Z</time>
      </trkpt>
      <trkpt lat="45.82006" lon="4.24952">
        <ele>546.924</ele>
        <time>2018-09-10T14:12:25Z</time>
      </trkpt>
      <trkpt lat="45.81999" lon="4.24957">
        <ele>545.852</ele>
        <time>2018-09-10T14:12:31Z</time>
      </trkpt>
      <trkpt lat="45.81993" lon="4.24963">
        <ele>544.959</ele>
        <time>2018-09-10T14:12:37Z</time>
      </trkpt>
      <trkpt lat="45.81988" lon="4.24966">
        <ele>544.4</ele>
        <time>2018-09-10T14:12:43Z</time>
      </trkpt>
      <trkpt lat="45.81981" lon="4.24971">
        <ele>543.614</ele>
        <time>2018-09-10T14:12:49Z</time>
      </trkpt>
      <trkpt lat="45.81975" lon="4.24974">
        <ele>542.867</ele>
        <time>2018-09-10T14:12:55Z</time>
      </trkpt>
      <trkpt lat="45.81969" lon="4.24975">
        <ele>541.819</ele>
        <time>2018-09-10T14:13:01Z</time>
      </trkpt>
      <trkpt lat="45.81963" lon="4.24976">
        <ele>540.793</ele>
        <time>2018-09-10T14:13:07Z</time>
      </trkpt>
      <trkpt lat="45.81958" lon="4.24976">
        <ele>539.365</ele>
        <time>2018-09-10T14:13:13Z</time>
      </trkpt>
      <trkpt lat="45.8195" lon="4.24976">
        <ele>538.16</ele>
        <time>2018-09-10T14:13:19Z</time>
      </trkpt>
      <trkpt lat="45.81944" lon="4.24975">
        <ele>537.042</ele>
        <time>2018-09-10T14:13:25Z</time>
      </trkpt>
      <trkpt lat="45.81937" lon="4.24973">
        <ele>536.494</ele>
        <time>2018-09-10T14:13:30Z</time>
      </trkpt>
      <trkpt lat="45.81932" lon="4.24972">
        <ele>535.834</ele>
        <time>2018-09-10T14:13:35Z</time>
      </trkpt>
      <trkpt lat="45.81926" lon="4.24972">
        <ele>535.143</ele>
        <time>2018-09-10T14:13:41Z</time>
      </trkpt>
      <trkpt lat="45.8192" lon="4.24972">
        <ele>534.617</ele>
        <time>2018-09-10T14:13:46Z</time>
      </trkpt>
      <trkpt lat="45.81912" lon="4.24972">
        <ele>533.651</ele>
        <time>2018-09-10T14:13:52Z</time>
      </trkpt>
      <trkpt lat="45.81904" lon="4.24974">
        <ele>532.502</ele>
        <time>2018-09-10T14:13:58Z</time>
      </trkpt>
      <trkpt lat="45.819" lon="4.24978">
        <ele>532.133</ele>
        <time>2018-09-10T14:14:04Z</time>
      </trkpt>
      <trkpt lat="45.819" lon="4.24986">
        <ele>531.605</ele>
        <time>2018-09-10T14:14:09Z</time>
      </trkpt>
      <trkpt lat="45.81902" lon="4.24992">
        <ele>531.211</ele>
        <time>2018-09-10T14:14:14Z</time>
      </trkpt>
      <trkpt lat="45.81907" lon="4.24998">
        <ele>530.988</ele>
        <time>2018-09-10T14:14:20Z</time>
      </trkpt>
      <trkpt lat="45.81909" lon="4.25001">
        <ele>530.848</ele>
        <time>2018-09-10T14:14:25Z</time>
      </trkpt>
      <trkpt lat="45.81911" lon="4.25007">
        <ele>530.305</ele>
        <time>2018-09-10T14:14:30Z</time>
      </trkpt>
      <trkpt lat="45.81914" lon="4.25014">
        <ele>528.762</ele>
        <time>2018-09-10T14:14:36Z</time>
      </trkpt>
      <trkpt lat="45.8192" lon="4.25021">
        <ele>528.112</ele>
        <time>2018-09-10T14:14:41Z</time>
      </trkpt>
      <trkpt lat="45.81923" lon="4.25028">
        <ele>527.696</ele>
        <time>2018-09-10T14:14:46Z</time>
      </trkpt>
      <trkpt lat="45.81929" lon="4.25037">
        <ele>526.449</ele>
        <time>2018-09-10T14:14:52Z</time>
      </trkpt>
      <trkpt lat="45.81935" lon="4.25046">
        <ele>525.502</ele>
        <time>2018-09-10T14:14:58Z</time>
      </trkpt>
      <trkpt lat="45.81938" lon="4.25048">
        <ele>524.674</ele>
        <time>2018-09-10T14:15:04Z</time>
      </trkpt>
      <trkpt lat="45.81939" lon="4.25049">
        <ele>523.873</ele>
        <time>2018-09-10T14:15:10Z</time>
      </trkpt>
      <trkpt lat="45.81939" lon="4.25049">
        <ele>522.831</ele>
        <time>2018-09-10T14:15:16Z</time>
      </trkpt>
      <trkpt lat="45.81939" lon="4.25049">
        <ele>522.821</ele>
        <time>2018-09-10T14:15:22Z</time>
      </trkpt>
      <trkpt lat="45.81939" lon="4.25049">
        <ele>522.671</ele>
        <time>2018-09-10T14:15:27Z</time>
      </trkpt>
      <trkpt lat="45.81937" lon="4.25043">
        <ele>521.661</ele>
        <time>2018-09-10T14:15:33Z</time>
      </trkpt>
      <trkpt lat="45.81937" lon="4.25043">
        <ele>521.465</ele>
        <time>2018-09-10T14:15:38Z</time>
      </trkpt>
      <trkpt lat="45.81937" lon="4.25043">
        <ele>521.517</ele>
        <time>2018-09-10T14:15:44Z</time>
      </trkpt>
      <trkpt lat="45.81938" lon="4.25042">
        <ele>521.57</ele>
        <time>2018-09-10T14:15:49Z</time>
      </trkpt>
      <trkpt lat="45.81938" lon="4.25042">
        <ele>521.597</ele>
        <time>2018-09-10T14:15:55Z</time>
      </trkpt>
      <trkpt lat="45.81937" lon="4.25041">
        <ele>521.955</ele>
        <time>2018-09-10T14:16:00Z</time>
      </trkpt>
      <trkpt lat="45.81937" lon="4.25041">
        <ele>522.036</ele>
        <time>2018-09-10T14:16:06Z</time>
      </trkpt>
      <trkpt lat="45.81936" lon="4.25051">
        <ele>521.598</ele>
        <time>2018-09-10T14:16:12Z</time>
      </trkpt>
      <trkpt lat="45.81934" lon="4.25053">
        <ele>520.661</ele>
        <time>2018-09-10T14:16:18Z</time>
      </trkpt>
      <trkpt lat="45.81934" lon="4.25053">
        <ele>520.47</ele>
        <time>2018-09-10T14:16:23Z</time>
      </trkpt>
      <trkpt lat="45.81933" lon="4.25052">
        <ele>520.264</ele>
        <time>2018-09-10T14:16:29Z</time>
      </trkpt>
      <trkpt lat="45.81931" lon="4.25052">
        <ele>520.252</ele>
        <time>2018-09-10T14:16:35Z</time>
      </trkpt>
      <trkpt lat="45.81924" lon="4.25046">
        <ele>520.815</ele>
        <time>2018-09-10T14:16:41Z</time>
      </trkpt>
      <trkpt lat="45.81924" lon="4.25046">
        <ele>520.721</ele>
        <time>2018-09-10T14:16:47Z</time>
      </trkpt>
      <trkpt lat="45.81924" lon="4.25046">
        <ele>520.596</ele>
        <time>2018-09-10T14:16:52Z</time>
      </trkpt>
      <trkpt lat="45.81921" lon="4.25047">
        <ele>519.306</ele>
        <time>2018-09-10T14:16:58Z</time>
      </trkpt>
      <trkpt lat="45.81921" lon="4.25048">
        <ele>519.164</ele>
        <time>2018-09-10T14:17:04Z</time>
      </trkpt>
      <trkpt lat="45.81921" lon="4.25048">
        <ele>519.117</ele>
        <time>2018-09-10T14:17:09Z</time>
      </trkpt>
      <trkpt lat="45.81921" lon="4.25048">
        <ele>519.089</ele>
        <time>2018-09-10T14:17:15Z</time>
      </trkpt>
      <trkpt lat="45.81921" lon="4.25048">
        <ele>519.165</ele>
        <time>2018-09-10T14:17:21Z</time>
      </trkpt>
      <trkpt lat="45.81921" lon="4.25048">
        <ele>519.674</ele>
        <time>2018-09-10T14:17:27Z</time>
      </trkpt>
      <trkpt lat="45.81916" lon="4.25043">
        <ele>519.886</ele>
        <time>2018-09-10T14:17:33Z</time>
      </trkpt>
      <trkpt lat="45.8191" lon="4.25035">
        <ele>520.638</ele>
        <time>2018-09-10T14:17:39Z</time>
      </trkpt>
      <trkpt lat="45.81904" lon="4.25025">
        <ele>521.034</ele>
        <time>2018-09-10T14:17:45Z</time>
      </trkpt>
      <trkpt lat="45.81902" lon="4.25022">
        <ele>521.814</ele>
        <time>2018-09-10T14:17:51Z</time>
      </trkpt>
      <trkpt lat="45.81898" lon="4.25018">
        <ele>521.795</ele>
        <time>2018-09-10T14:17:56Z</time>
      </trkpt>
      <trkpt lat="45.81896" lon="4.25017">
        <ele>522.618</ele>
        <time>2018-09-10T14:18:01Z</time>
      </trkpt>
      <trkpt lat="45.81886" lon="4.2501">
        <ele>523.173</ele>
        <time>2018-09-10T14:18:06Z</time>
      </trkpt>
      <trkpt lat="45.81881" lon="4.25006">
        <ele>523.007</ele>
        <time>2018-09-10T14:18:12Z</time>
      </trkpt>
      <trkpt lat="45.81876" lon="4.25004">
        <ele>523.527</ele>
        <time>2018-09-10T14:18:17Z</time>
      </trkpt>
      <trkpt lat="45.8187" lon="4.24998">
        <ele>523.595</ele>
        <time>2018-09-10T14:18:23Z</time>
      </trkpt>
      <trkpt lat="45.81864" lon="4.24989">
        <ele>523.531</ele>
        <time>2018-09-10T14:18:29Z</time>
      </trkpt>
      <trkpt lat="45.8186" lon="4.24986">
        <ele>523.644</ele>
        <time>2018-09-10T14:18:35Z</time>
      </trkpt>
      <trkpt lat="45.81852" lon="4.24979">
        <ele>523.485</ele>
        <time>2018-09-10T14:18:41Z</time>
      </trkpt>
      <trkpt lat="45.81847" lon="4.24976">
        <ele>523.107</ele>
        <time>2018-09-10T14:18:47Z</time>
      </trkpt>
      <trkpt lat="45.81839" lon="4.2497">
        <ele>522.191</ele>
        <time>2018-09-10T14:18:53Z</time>
      </trkpt>
      <trkpt lat="45.81835" lon="4.24961">
        <ele>521.273</ele>
        <time>2018-09-10T14:18:59Z</time>
      </trkpt>
      <trkpt lat="45.81833" lon="4.24957">
        <ele>520.515</ele>
        <time>2018-09-10T14:19:05Z</time>
      </trkpt>
      <trkpt lat="45.81828" lon="4.24952">
        <ele>519.581</ele>
        <time>2018-09-10T14:19:11Z</time>
      </trkpt>
      <trkpt lat="45.81823" lon="4.24947">
        <ele>519.21</ele>
        <time>2018-09-10T14:19:16Z</time>
      </trkpt>
      <trkpt lat="45.81818" lon="4.24943">
        <ele>519.584</ele>
        <time>2018-09-10T14:19:22Z</time>
      </trkpt>
      <trkpt lat="45.81813" lon="4.24941">
        <ele>519.724</ele>
        <time>2018-09-10T14:19:27Z</time>
      </trkpt>
      <trkpt lat="45.81807" lon="4.24948">
        <ele>519.448</ele>
        <time>2018-09-10T14:19:33Z</time>
      </trkpt>
      <trkpt lat="45.81806" lon="4.24954">
        <ele>518.313</ele>
        <time>2018-09-10T14:19:39Z</time>
      </trkpt>
      <trkpt lat="45.81806" lon="4.24964">
        <ele>516.815</ele>
        <time>2018-09-10T14:19:45Z</time>
      </trkpt>
      <trkpt lat="45.81804" lon="4.24971">
        <ele>515.703</ele>
        <time>2018-09-10T14:19:50Z</time>
      </trkpt>
      <trkpt lat="45.81802" lon="4.24982">
        <ele>514.601</ele>
        <time>2018-09-10T14:19:56Z</time>
      </trkpt>
      <trkpt lat="45.81799" lon="4.24991">
        <ele>513.388</ele>
        <time>2018-09-10T14:20:02Z</time>
      </trkpt>
      <trkpt lat="45.81795" lon="4.24996">
        <ele>512.373</ele>
        <time>2018-09-10T14:20:07Z</time>
      </trkpt>
      <trkpt lat="45.81787" lon="4.24999">
        <ele>511.126</ele>
        <time>2018-09-10T14:20:13Z</time>
      </trkpt>
      <trkpt lat="45.81786" lon="4.24999">
        <ele>510.863</ele>
        <time>2018-09-10T14:20:21Z</time>
      </trkpt>
      <trkpt lat="45.81785" lon="4.25">
        <ele>510.348</ele>
        <time>2018-09-10T14:20:26Z</time>
      </trkpt>
      <trkpt lat="45.81786" lon="4.25002">
        <ele>510.274</ele>
        <time>2018-09-10T14:20:32Z</time>
      </trkpt>
      <trkpt lat="45.81787" lon="4.25002">
        <ele>510.372</ele>
        <time>2018-09-10T14:20:37Z</time>
      </trkpt>
      <trkpt lat="45.81786" lon="4.24997">
        <ele>510.729</ele>
        <time>2018-09-10T14:20:42Z</time>
      </trkpt>
      <trkpt lat="45.81786" lon="4.24997">
        <ele>510.772</ele>
        <time>2018-09-10T14:20:48Z</time>
      </trkpt>
      <trkpt lat="45.81787" lon="4.24996">
        <ele>510.881</ele>
        <time>2018-09-10T14:20:54Z</time>
      </trkpt>
      <trkpt lat="45.81787" lon="4.24995">
        <ele>510.8</ele>
        <time>2018-09-10T14:20:59Z</time>
      </trkpt>
      <trkpt lat="45.81786" lon="4.24995">
        <ele>510.876</ele>
        <time>2018-09-10T14:21:04Z</time>
      </trkpt>
      <trkpt lat="45.81786" lon="4.24995">
        <ele>510.887</ele>
        <time>2018-09-10T14:21:09Z</time>
      </trkpt>
      <trkpt lat="45.81786" lon="4.24994">
        <ele>510.836</ele>
        <time>2018-09-10T14:21:15Z</time>
      </trkpt>
      <trkpt lat="45.81786" lon="4.24994">
        <ele>510.818</ele>
        <time>2018-09-10T14:21:21Z</time>
      </trkpt>
      <trkpt lat="45.81775" lon="4.24985">
        <ele>510.502</ele>
        <time>2018-09-10T14:21:26Z</time>
      </trkpt>
      <trkpt lat="45.81773" lon="4.24983">
        <ele>510.354</ele>
        <time>2018-09-10T14:21:32Z</time>
      </trkpt>
      <trkpt lat="45.81769" lon="4.24984">
        <ele>509.797</ele>
        <time>2018-09-10T14:21:37Z</time>
      </trkpt>
      <trkpt lat="45.81763" lon="4.24981">
        <ele>509.265</ele>
        <time>2018-09-10T14:21:42Z</time>
      </trkpt>
      <trkpt lat="45.81759" lon="4.24976">
        <ele>508.515</ele>
        <time>2018-09-10T14:21:48Z</time>
      </trkpt>
      <trkpt lat="45.81754" lon="4.24971">
        <ele>508.021</ele>
        <time>2018-09-10T14:21:54Z</time>
      </trkpt>
      <trkpt lat="45.81751" lon="4.2497">
        <ele>507.927</ele>
        <time>2018-09-10T14:21:59Z</time>
      </trkpt>
      <trkpt lat="45.81748" lon="4.24966">
        <ele>507.557</ele>
        <time>2018-09-10T14:22:05Z</time>
      </trkpt>
      <trkpt lat="45.81743" lon="4.24963">
        <ele>507.15</ele>
        <time>2018-09-10T14:22:11Z</time>
      </trkpt>
      <trkpt lat="45.81739" lon="4.24959">
        <ele>507.055</ele>
        <time>2018-09-10T14:22:17Z</time>
      </trkpt>
      <trkpt lat="45.81732" lon="4.24954">
        <ele>506.727</ele>
        <time>2018-09-10T14:22:23Z</time>
      </trkpt>
      <trkpt lat="45.8173" lon="4.24951">
        <ele>506.436</ele>
        <time>2018-09-10T14:22:28Z</time>
      </trkpt>
      <trkpt lat="45.81728" lon="4.24949">
        <ele>506.251</ele>
        <time>2018-09-10T14:22:33Z</time>
      </trkpt>
      <trkpt lat="45.81725" lon="4.24947">
        <ele>506.138</ele>
        <time>2018-09-10T14:22:39Z</time>
      </trkpt>
      <trkpt lat="45.81723" lon="4.24948">
        <ele>506.225</ele>
        <time>2018-09-10T14:22:44Z</time>
      </trkpt>
      <trkpt lat="45.8172" lon="4.2494">
        <ele>506.962</ele>
        <time>2018-09-10T14:22:50Z</time>
      </trkpt>
      <trkpt lat="45.81717" lon="4.24931">
        <ele>508.027</ele>
        <time>2018-09-10T14:22:56Z</time>
      </trkpt>
      <trkpt lat="45.81713" lon="4.24921">
        <ele>508.676</ele>
        <time>2018-09-10T14:23:01Z</time>
      </trkpt>
      <trkpt lat="45.81709" lon="4.24913">
        <ele>509.736</ele>
        <time>2018-09-10T14:23:07Z</time>
      </trkpt>
      <trkpt lat="45.81704" lon="4.24906">
        <ele>510.352</ele>
        <time>2018-09-10T14:23:13Z</time>
      </trkpt>
      <trkpt lat="45.81699" lon="4.24899">
        <ele>511.006</ele>
        <time>2018-09-10T14:23:18Z</time>
      </trkpt>
      <trkpt lat="45.81694" lon="4.2489">
        <ele>511.83</ele>
        <time>2018-09-10T14:23:24Z</time>
      </trkpt>
      <trkpt lat="45.81694" lon="4.24888">
        <ele>512.326</ele>
        <time>2018-09-10T14:23:29Z</time>
      </trkpt>
      <trkpt lat="45.81694" lon="4.2488">
        <ele>513.192</ele>
        <time>2018-09-10T14:23:35Z</time>
      </trkpt>
      <trkpt lat="45.81691" lon="4.24871">
        <ele>514.66</ele>
        <time>2018-09-10T14:23:41Z</time>
      </trkpt>
      <trkpt lat="45.81688" lon="4.24864">
        <ele>515.485</ele>
        <time>2018-09-10T14:23:46Z</time>
      </trkpt>
      <trkpt lat="45.81686" lon="4.24855">
        <ele>516.686</ele>
        <time>2018-09-10T14:23:52Z</time>
      </trkpt>
      <trkpt lat="45.81684" lon="4.24848">
        <ele>517.628</ele>
        <time>2018-09-10T14:23:57Z</time>
      </trkpt>
      <trkpt lat="45.81683" lon="4.24841">
        <ele>518.322</ele>
        <time>2018-09-10T14:24:02Z</time>
      </trkpt>
      <trkpt lat="45.81679" lon="4.24831">
        <ele>518.872</ele>
        <time>2018-09-10T14:24:08Z</time>
      </trkpt>
      <trkpt lat="45.81675" lon="4.24824">
        <ele>519.284</ele>
        <time>2018-09-10T14:24:14Z</time>
      </trkpt>
      <trkpt lat="45.81676" lon="4.24816">
        <ele>520.336</ele>
        <time>2018-09-10T14:24:20Z</time>
      </trkpt>
      <trkpt lat="45.81674" lon="4.24811">
        <ele>521.298</ele>
        <time>2018-09-10T14:24:26Z</time>
      </trkpt>
      <trkpt lat="45.81672" lon="4.24807">
        <ele>522.595</ele>
        <time>2018-09-10T14:24:32Z</time>
      </trkpt>
      <trkpt lat="45.81667" lon="4.24807">
        <ele>523.654</ele>
        <time>2018-09-10T14:24:37Z</time>
      </trkpt>
      <trkpt lat="45.81665" lon="4.24808">
        <ele>524.358</ele>
        <time>2018-09-10T14:24:42Z</time>
      </trkpt>
      <trkpt lat="45.81667" lon="4.24805">
        <ele>524.307</ele>
        <time>2018-09-10T14:24:47Z</time>
      </trkpt>
      <trkpt lat="45.81667" lon="4.24806">
        <ele>524.769</ele>
        <time>2018-09-10T14:24:53Z</time>
      </trkpt>
      <trkpt lat="45.81667" lon="4.24809">
        <ele>525.346</ele>
        <time>2018-09-10T14:24:58Z</time>
      </trkpt>
      <trkpt lat="45.81666" lon="4.24815">
        <ele>525.664</ele>
        <time>2018-09-10T14:25:03Z</time>
      </trkpt>
      <trkpt lat="45.81665" lon="4.24826">
        <ele>526.379</ele>
        <time>2018-09-10T14:25:08Z</time>
      </trkpt>
      <trkpt lat="45.81664" lon="4.24831">
        <ele>526.784</ele>
        <time>2018-09-10T14:25:13Z</time>
      </trkpt>
      <trkpt lat="45.81664" lon="4.24844">
        <ele>527.254</ele>
        <time>2018-09-10T14:25:19Z</time>
      </trkpt>
      <trkpt lat="45.81661" lon="4.24852">
        <ele>527.89</ele>
        <time>2018-09-10T14:25:24Z</time>
      </trkpt>
      <trkpt lat="45.81659" lon="4.24857">
        <ele>528.71</ele>
        <time>2018-09-10T14:25:30Z</time>
      </trkpt>
      <trkpt lat="45.81659" lon="4.24864">
        <ele>529.605</ele>
        <time>2018-09-10T14:25:36Z</time>
      </trkpt>
      <trkpt lat="45.81658" lon="4.2487">
        <ele>530.063</ele>
        <time>2018-09-10T14:25:41Z</time>
      </trkpt>
      <trkpt lat="45.81659" lon="4.24874">
        <ele>530.197</ele>
        <time>2018-09-10T14:25:47Z</time>
      </trkpt>
      <trkpt lat="45.8166" lon="4.24875">
        <ele>530.198</ele>
        <time>2018-09-10T14:25:52Z</time>
      </trkpt>
      <trkpt lat="45.8166" lon="4.24873">
        <ele>530.323</ele>
        <time>2018-09-10T14:25:58Z</time>
      </trkpt>
      <trkpt lat="45.81662" lon="4.24873">
        <ele>530.466</ele>
        <time>2018-09-10T14:26:04Z</time>
      </trkpt>
      <trkpt lat="45.81663" lon="4.24879">
        <ele>530.504</ele>
        <time>2018-09-10T14:26:10Z</time>
      </trkpt>
      <trkpt lat="45.81664" lon="4.24886">
        <ele>530.469</ele>
        <time>2018-09-10T14:26:16Z</time>
      </trkpt>
      <trkpt lat="45.81663" lon="4.24888">
        <ele>530.431</ele>
        <time>2018-09-10T14:26:21Z</time>
      </trkpt>
      <trkpt lat="45.8166" lon="4.2489">
        <ele>530.512</ele>
        <time>2018-09-10T14:26:27Z</time>
      </trkpt>
      <trkpt lat="45.81661" lon="4.24891">
        <ele>530.575</ele>
        <time>2018-09-10T14:26:33Z</time>
      </trkpt>
      <trkpt lat="45.81659" lon="4.24892">
        <ele>530.691</ele>
        <time>2018-09-10T14:26:39Z</time>
      </trkpt>
      <trkpt lat="45.81658" lon="4.2489">
        <ele>530.78</ele>
        <time>2018-09-10T14:26:44Z</time>
      </trkpt>
      <trkpt lat="45.81657" lon="4.24886">
        <ele>530.889</ele>
        <time>2018-09-10T14:26:50Z</time>
      </trkpt>
      <trkpt lat="45.81653" lon="4.2488">
        <ele>531.104</ele>
        <time>2018-09-10T14:26:56Z</time>
      </trkpt>
      <trkpt lat="45.81648" lon="4.24876">
        <ele>532.717</ele>
        <time>2018-09-10T14:27:02Z</time>
      </trkpt>
      <trkpt lat="45.81648" lon="4.24879">
        <ele>533.939</ele>
        <time>2018-09-10T14:27:07Z</time>
      </trkpt>
      <trkpt lat="45.81646" lon="4.24883">
        <ele>534.992</ele>
        <time>2018-09-10T14:27:13Z</time>
      </trkpt>
      <trkpt lat="45.81642" lon="4.24896">
        <ele>535.031</ele>
        <time>2018-09-10T14:27:19Z</time>
      </trkpt>
      <trkpt lat="45.8164" lon="4.24904">
        <ele>535.469</ele>
        <time>2018-09-10T14:27:24Z</time>
      </trkpt>
      <trkpt lat="45.81639" lon="4.24914">
        <ele>535.985</ele>
        <time>2018-09-10T14:27:30Z</time>
      </trkpt>
      <trkpt lat="45.81639" lon="4.24923">
        <ele>536.182</ele>
        <time>2018-09-10T14:27:35Z</time>
      </trkpt>
      <trkpt lat="45.81635" lon="4.24935">
        <ele>536.671</ele>
        <time>2018-09-10T14:27:41Z</time>
      </trkpt>
      <trkpt lat="45.81631" lon="4.24946">
        <ele>537.152</ele>
        <time>2018-09-10T14:27:47Z</time>
      </trkpt>
      <trkpt lat="45.81627" lon="4.24952">
        <ele>537.115</ele>
        <time>2018-09-10T14:27:53Z</time>
      </trkpt>
      <trkpt lat="45.81625" lon="4.24956">
        <ele>537.134</ele>
        <time>2018-09-10T14:27:58Z</time>
      </trkpt>
      <trkpt lat="45.8162" lon="4.24966">
        <ele>537.23</ele>
        <time>2018-09-10T14:28:04Z</time>
      </trkpt>
      <trkpt lat="45.81617" lon="4.2497">
        <ele>537.194</ele>
        <time>2018-09-10T14:28:09Z</time>
      </trkpt>
      <trkpt lat="45.81613" lon="4.24971">
        <ele>537.584</ele>
        <time>2018-09-10T14:28:14Z</time>
      </trkpt>
      <trkpt lat="45.81609" lon="4.24977">
        <ele>538.206</ele>
        <time>2018-09-10T14:28:19Z</time>
      </trkpt>
      <trkpt lat="45.81607" lon="4.24979">
        <ele>539.028</ele>
        <time>2018-09-10T14:28:25Z</time>
      </trkpt>
      <trkpt lat="45.81603" lon="4.24983">
        <ele>539.586</ele>
        <time>2018-09-10T14:28:30Z</time>
      </trkpt>
      <trkpt lat="45.81597" lon="4.24989">
        <ele>539.795</ele>
        <time>2018-09-10T14:28:36Z</time>
      </trkpt>
      <trkpt lat="45.8159" lon="4.24996">
        <ele>540.417</ele>
        <time>2018-09-10T14:28:42Z</time>
      </trkpt>
      <trkpt lat="45.81583" lon="4.24997">
        <ele>541.132</ele>
        <time>2018-09-10T14:28:47Z</time>
      </trkpt>
      <trkpt lat="45.81579" lon="4.24997">
        <ele>541.663</ele>
        <time>2018-09-10T14:28:53Z</time>
      </trkpt>
      <trkpt lat="45.81572" lon="4.24999">
        <ele>542.077</ele>
        <time>2018-09-10T14:28:59Z</time>
      </trkpt>
      <trkpt lat="45.81567" lon="4.25004">
        <ele>542.303</ele>
        <time>2018-09-10T14:29:05Z</time>
      </trkpt>
      <trkpt lat="45.81561" lon="4.2501">
        <ele>542.606</ele>
        <time>2018-09-10T14:29:11Z</time>
      </trkpt>
      <trkpt lat="45.81557" lon="4.25013">
        <ele>543.233</ele>
        <time>2018-09-10T14:29:17Z</time>
      </trkpt>
      <trkpt lat="45.81552" lon="4.25019">
        <ele>544.061</ele>
        <time>2018-09-10T14:29:22Z</time>
      </trkpt>
      <trkpt lat="45.81545" lon="4.25024">
        <ele>545.155</ele>
        <time>2018-09-10T14:29:27Z</time>
      </trkpt>
      <trkpt lat="45.8154" lon="4.25027">
        <ele>546.346</ele>
        <time>2018-09-10T14:29:32Z</time>
      </trkpt>
      <trkpt lat="45.8153" lon="4.25029">
        <ele>547.221</ele>
        <time>2018-09-10T14:29:38Z</time>
      </trkpt>
      <trkpt lat="45.81527" lon="4.25033">
        <ele>547.815</ele>
        <time>2018-09-10T14:29:43Z</time>
      </trkpt>
      <trkpt lat="45.81526" lon="4.25037">
        <ele>548.512</ele>
        <time>2018-09-10T14:29:48Z</time>
      </trkpt>
      <trkpt lat="45.81527" lon="4.25048">
        <ele>549.195</ele>
        <time>2018-09-10T14:29:54Z</time>
      </trkpt>
      <trkpt lat="45.81527" lon="4.25053">
        <ele>549.67</ele>
        <time>2018-09-10T14:29:59Z</time>
      </trkpt>
      <trkpt lat="45.81527" lon="4.25058">
        <ele>550.258</ele>
        <time>2018-09-10T14:30:05Z</time>
      </trkpt>
      <trkpt lat="45.81528" lon="4.25066">
        <ele>550.825</ele>
        <time>2018-09-10T14:30:10Z</time>
      </trkpt>
      <trkpt lat="45.81529" lon="4.25073">
        <ele>551.392</ele>
        <time>2018-09-10T14:30:15Z</time>
      </trkpt>
      <trkpt lat="45.81533" lon="4.25079">
        <ele>551.855</ele>
        <time>2018-09-10T14:30:21Z</time>
      </trkpt>
      <trkpt lat="45.81539" lon="4.25084">
        <ele>552.617</ele>
        <time>2018-09-10T14:30:27Z</time>
      </trkpt>
      <trkpt lat="45.81541" lon="4.25089">
        <ele>552.677</ele>
        <time>2018-09-10T14:30:32Z</time>
      </trkpt>
      <trkpt lat="45.81542" lon="4.25094">
        <ele>552.981</ele>
        <time>2018-09-10T14:30:37Z</time>
      </trkpt>
      <trkpt lat="45.81541" lon="4.25095">
        <ele>553.056</ele>
        <time>2018-09-10T14:30:43Z</time>
      </trkpt>
      <trkpt lat="45.81538" lon="4.25098">
        <ele>552.77</ele>
        <time>2018-09-10T14:30:48Z</time>
      </trkpt>
      <trkpt lat="45.81538" lon="4.25099">
        <ele>552.767</ele>
        <time>2018-09-10T14:30:54Z</time>
      </trkpt>
      <trkpt lat="45.81541" lon="4.25099">
        <ele>553.09</ele>
        <time>2018-09-10T14:30:59Z</time>
      </trkpt>
      <trkpt lat="45.81544" lon="4.25098">
        <ele>553.126</ele>
        <time>2018-09-10T14:31:05Z</time>
      </trkpt>
      <trkpt lat="45.81544" lon="4.25098">
        <ele>552.178</ele>
        <time>2018-09-10T14:31:11Z</time>
      </trkpt>
      <trkpt lat="45.81542" lon="4.25101">
        <ele>551.493</ele>
        <time>2018-09-10T14:31:16Z</time>
      </trkpt>
      <trkpt lat="45.81543" lon="4.25106">
        <ele>551.307</ele>
        <time>2018-09-10T14:31:22Z</time>
      </trkpt>
      <trkpt lat="45.81543" lon="4.25108">
        <ele>551.796</ele>
        <time>2018-09-10T14:31:27Z</time>
      </trkpt>
      <trkpt lat="45.81542" lon="4.25109">
        <ele>552.806</ele>
        <time>2018-09-10T14:31:33Z</time>
      </trkpt>
      <trkpt lat="45.81542" lon="4.25108">
        <ele>553.4</ele>
        <time>2018-09-10T14:31:39Z</time>
      </trkpt>
      <trkpt lat="45.81543" lon="4.2511">
        <ele>553.483</ele>
        <time>2018-09-10T14:31:44Z</time>
      </trkpt>
      <trkpt lat="45.81543" lon="4.25112">
        <ele>554.273</ele>
        <time>2018-09-10T14:31:50Z</time>
      </trkpt>
      <trkpt lat="45.81544" lon="4.25109">
        <ele>554.285</ele>
        <time>2018-09-10T14:31:55Z</time>
      </trkpt>
      <trkpt lat="45.81542" lon="4.25106">
        <ele>554.122</ele>
        <time>2018-09-10T14:32:01Z</time>
      </trkpt>
      <trkpt lat="45.81539" lon="4.25105">
        <ele>553.182</ele>
        <time>2018-09-10T14:32:06Z</time>
      </trkpt>
      <trkpt lat="45.81539" lon="4.25104">
        <ele>553.157</ele>
        <time>2018-09-10T14:32:11Z</time>
      </trkpt>
      <trkpt lat="45.81537" lon="4.25106">
        <ele>553.199</ele>
        <time>2018-09-10T14:32:17Z</time>
      </trkpt>
      <trkpt lat="45.81534" lon="4.25108">
        <ele>553.009</ele>
        <time>2018-09-10T14:32:23Z</time>
      </trkpt>
      <trkpt lat="45.81535" lon="4.25106">
        <ele>553.457</ele>
        <time>2018-09-10T14:32:28Z</time>
      </trkpt>
      <trkpt lat="45.81535" lon="4.25101">
        <ele>553.696</ele>
        <time>2018-09-10T14:32:33Z</time>
      </trkpt>
      <trkpt lat="45.81534" lon="4.25101">
        <ele>554.246</ele>
        <time>2018-09-10T14:32:38Z</time>
      </trkpt>
      <trkpt lat="45.81533" lon="4.25101">
        <ele>554.342</ele>
        <time>2018-09-10T14:32:44Z</time>
      </trkpt>
      <trkpt lat="45.81533" lon="4.25101">
        <ele>554.428</ele>
        <time>2018-09-10T14:32:49Z</time>
      </trkpt>
      <trkpt lat="45.81533" lon="4.25101">
        <ele>554.597</ele>
        <time>2018-09-10T14:32:54Z</time>
      </trkpt>
      <trkpt lat="45.81534" lon="4.25101">
        <ele>554.805</ele>
        <time>2018-09-10T14:33:00Z</time>
      </trkpt>
      <trkpt lat="45.81534" lon="4.25101">
        <ele>554.671</ele>
        <time>2018-09-10T14:33:06Z</time>
      </trkpt>
      <trkpt lat="45.81534" lon="4.25101">
        <ele>554.763</ele>
        <time>2018-09-10T14:33:12Z</time>
      </trkpt>
      <trkpt lat="45.81534" lon="4.25101">
        <ele>554.787</ele>
        <time>2018-09-10T14:33:17Z</time>
      </trkpt>
      <trkpt lat="45.81534" lon="4.25101">
        <ele>554.649</ele>
        <time>2018-09-10T14:33:23Z</time>
      </trkpt>
      <trkpt lat="45.81535" lon="4.25105">
        <ele>554.458</ele>
        <time>2018-09-10T14:33:28Z</time>
      </trkpt>
      <trkpt lat="45.81535" lon="4.25105">
        <ele>554.52</ele>
        <time>2018-09-10T14:33:34Z</time>
      </trkpt>
      <trkpt lat="45.81535" lon="4.25105">
        <ele>554.474</ele>
        <time>2018-09-10T14:33:39Z</time>
      </trkpt>
      <trkpt lat="45.81535" lon="4.25105">
        <ele>554.346</ele>
        <time>2018-09-10T14:33:45Z</time>
      </trkpt>
      <trkpt lat="45.81535" lon="4.25105">
        <ele>554.304</ele>
        <time>2018-09-10T14:33:50Z</time>
      </trkpt>
      <trkpt lat="45.81535" lon="4.25105">
        <ele>554.376</ele>
        <time>2018-09-10T14:33:56Z</time>
      </trkpt>
      <trkpt lat="45.81535" lon="4.25105">
        <ele>554.409</ele>
        <time>2018-09-10T14:34:01Z</time>
      </trkpt>
      <trkpt lat="45.81537" lon="4.25106">
        <ele>554.179</ele>
        <time>2018-09-10T14:34:07Z</time>
      </trkpt>
      <trkpt lat="45.81537" lon="4.25106">
        <ele>553.859</ele>
        <time>2018-09-10T14:34:13Z</time>
      </trkpt>
      <trkpt lat="45.81537" lon="4.25106">
        <ele>553.095</ele>
        <time>2018-09-10T14:34:18Z</time>
      </trkpt>
      <trkpt lat="45.81537" lon="4.25106">
        <ele>552.874</ele>
        <time>2018-09-10T14:34:24Z</time>
      </trkpt>
      <trkpt lat="45.81537" lon="4.25106">
        <ele>552.721</ele>
        <time>2018-09-10T14:34:29Z</time>
      </trkpt>
      <trkpt lat="45.81537" lon="4.25106">
        <ele>552.756</ele>
        <time>2018-09-10T14:34:35Z</time>
      </trkpt>
      <trkpt lat="45.81537" lon="4.25106">
        <ele>552.835</ele>
        <time>2018-09-10T14:34:40Z</time>
      </trkpt>
      <trkpt lat="45.81537" lon="4.25106">
        <ele>552.832</ele>
        <time>2018-09-10T14:34:46Z</time>
      </trkpt>
      <trkpt lat="45.81537" lon="4.25106">
        <ele>552.838</ele>
        <time>2018-09-10T14:34:51Z</time>
      </trkpt>
      <trkpt lat="45.81537" lon="4.25106">
        <ele>552.851</ele>
        <time>2018-09-10T14:34:57Z</time>
      </trkpt>
      <trkpt lat="45.81537" lon="4.25106">
        <ele>552.801</ele>
        <time>2018-09-10T14:35:02Z</time>
      </trkpt>
      <trkpt lat="45.81537" lon="4.25106">
        <ele>552.758</ele>
        <time>2018-09-10T14:35:08Z</time>
      </trkpt>
      <trkpt lat="45.81537" lon="4.25106">
        <ele>552.709</ele>
        <time>2018-09-10T14:35:14Z</time>
      </trkpt>
      <trkpt lat="45.81537" lon="4.25106">
        <ele>552.699</ele>
        <time>2018-09-10T14:35:19Z</time>
      </trkpt>
      <trkpt lat="45.81537" lon="4.25106">
        <ele>552.742</ele>
        <time>2018-09-10T14:35:25Z</time>
      </trkpt>
      <trkpt lat="45.81537" lon="4.25106">
        <ele>552.83</ele>
        <time>2018-09-10T14:35:30Z</time>
      </trkpt>
      <trkpt lat="45.81537" lon="4.25106">
        <ele>553.022</ele>
        <time>2018-09-10T14:35:36Z</time>
      </trkpt>
      <trkpt lat="45.81537" lon="4.25106">
        <ele>553.243</ele>
        <time>2018-09-10T14:35:41Z</time>
      </trkpt>
      <trkpt lat="45.81537" lon="4.25106">
        <ele>553.565</ele>
        <time>2018-09-10T14:35:47Z</time>
      </trkpt>
      <trkpt lat="45.81537" lon="4.25106">
        <ele>553.934</ele>
        <time>2018-09-10T14:35:53Z</time>
      </trkpt>
      <trkpt lat="45.81537" lon="4.25106">
        <ele>554.084</ele>
        <time>2018-09-10T14:35:58Z</time>
      </trkpt>
      <trkpt lat="45.81537" lon="4.25106">
        <ele>554.375</ele>
        <time>2018-09-10T14:36:04Z</time>
      </trkpt>
      <trkpt lat="45.81537" lon="4.25106">
        <ele>554.711</ele>
        <time>2018-09-10T14:36:10Z</time>
      </trkpt>
      <trkpt lat="45.81537" lon="4.25106">
        <ele>554.987</ele>
        <time>2018-09-10T14:36:15Z</time>
      </trkpt>
      <trkpt lat="45.81537" lon="4.25106">
        <ele>555.337</ele>
        <time>2018-09-10T14:36:20Z</time>
      </trkpt>
      <trkpt lat="45.81537" lon="4.25106">
        <ele>555.811</ele>
        <time>2018-09-10T14:36:26Z</time>
      </trkpt>
      <trkpt lat="45.81537" lon="4.25106">
        <ele>556.021</ele>
        <time>2018-09-10T14:36:32Z</time>
      </trkpt>
      <trkpt lat="45.81537" lon="4.25106">
        <ele>556.04</ele>
        <time>2018-09-10T14:36:37Z</time>
      </trkpt>
      <trkpt lat="45.81537" lon="4.25106">
        <ele>556.064</ele>
        <time>2018-09-10T14:36:43Z</time>
      </trkpt>
      <trkpt lat="45.81537" lon="4.25106">
        <ele>556.167</ele>
        <time>2018-09-10T14:36:49Z</time>
      </trkpt>
      <trkpt lat="45.81537" lon="4.25106">
        <ele>556.197</ele>
        <time>2018-09-10T14:36:55Z</time>
      </trkpt>
      <trkpt lat="45.81537" lon="4.25106">
        <ele>556.096</ele>
        <time>2018-09-10T14:37:00Z</time>
      </trkpt>
      <trkpt lat="45.81537" lon="4.25106">
        <ele>556.057</ele>
        <time>2018-09-10T14:37:05Z</time>
      </trkpt>
      <trkpt lat="45.81537" lon="4.25106">
        <ele>555.888</ele>
        <time>2018-09-10T14:37:11Z</time>
      </trkpt>
      <trkpt lat="45.81537" lon="4.25106">
        <ele>555.317</ele>
        <time>2018-09-10T14:37:16Z</time>
      </trkpt>
      <trkpt lat="45.81537" lon="4.25106">
        <ele>554.54</ele>
        <time>2018-09-10T14:37:22Z</time>
      </trkpt>
      <trkpt lat="45.81537" lon="4.25106">
        <ele>552.953</ele>
        <time>2018-09-10T14:37:27Z</time>
      </trkpt>
      <trkpt lat="45.81537" lon="4.25106">
        <ele>552.391</ele>
        <time>2018-09-10T14:37:33Z</time>
      </trkpt>
      <trkpt lat="45.81537" lon="4.25105">
        <ele>550.874</ele>
        <time>2018-09-10T14:37:39Z</time>
      </trkpt>
      <trkpt lat="45.81537" lon="4.25105">
        <ele>550.58</ele>
        <time>2018-09-10T14:37:44Z</time>
      </trkpt>
      <trkpt lat="45.81537" lon="4.25105">
        <ele>550.326</ele>
        <time>2018-09-10T14:37:50Z</time>
      </trkpt>
      <trkpt lat="45.81537" lon="4.25105">
        <ele>549.98</ele>
        <time>2018-09-10T14:37:55Z</time>
      </trkpt>
      <trkpt lat="45.81537" lon="4.25105">
        <ele>549.471</ele>
        <time>2018-09-10T14:38:01Z</time>
      </trkpt>
      <trkpt lat="45.81537" lon="4.25105">
        <ele>548.18</ele>
        <time>2018-09-10T14:38:07Z</time>
      </trkpt>
      <trkpt lat="45.81538" lon="4.25105">
        <ele>547.2</ele>
        <time>2018-09-10T14:38:13Z</time>
      </trkpt>
      <trkpt lat="45.81538" lon="4.25105">
        <ele>546.938</ele>
        <time>2018-09-10T14:38:18Z</time>
      </trkpt>
      <trkpt lat="45.81538" lon="4.25105">
        <ele>546.685</ele>
        <time>2018-09-10T14:38:24Z</time>
      </trkpt>
      <trkpt lat="45.81539" lon="4.25105">
        <ele>544.714</ele>
        <time>2018-09-10T14:38:29Z</time>
      </trkpt>
      <trkpt lat="45.81541" lon="4.25105">
        <ele>544.149</ele>
        <time>2018-09-10T14:38:34Z</time>
      </trkpt>
      <trkpt lat="45.81548" lon="4.25111">
        <ele>544.884</ele>
        <time>2018-09-10T14:38:40Z</time>
      </trkpt>
      <trkpt lat="45.81555" lon="4.25117">
        <ele>546.182</ele>
        <time>2018-09-10T14:38:46Z</time>
      </trkpt>
      <trkpt lat="45.81558" lon="4.25121">
        <ele>546.977</ele>
        <time>2018-09-10T14:38:51Z</time>
      </trkpt>
      <trkpt lat="45.8156" lon="4.25124">
        <ele>548.281</ele>
        <time>2018-09-10T14:38:57Z</time>
      </trkpt>
      <trkpt lat="45.81563" lon="4.25129">
        <ele>549.601</ele>
        <time>2018-09-10T14:39:03Z</time>
      </trkpt>
      <trkpt lat="45.81568" lon="4.25133">
        <ele>550.759</ele>
        <time>2018-09-10T14:39:08Z</time>
      </trkpt>
      <trkpt lat="45.81574" lon="4.25143">
        <ele>551.884</ele>
        <time>2018-09-10T14:39:14Z</time>
      </trkpt>
      <trkpt lat="45.81579" lon="4.25152">
        <ele>553.185</ele>
        <time>2018-09-10T14:39:19Z</time>
      </trkpt>
      <trkpt lat="45.81585" lon="4.2516">
        <ele>554.228</ele>
        <time>2018-09-10T14:39:25Z</time>
      </trkpt>
      <trkpt lat="45.81588" lon="4.25165">
        <ele>555.358</ele>
        <time>2018-09-10T14:39:30Z</time>
      </trkpt>
      <trkpt lat="45.81593" lon="4.25172">
        <ele>556.377</ele>
        <time>2018-09-10T14:39:36Z</time>
      </trkpt>
      <trkpt lat="45.81596" lon="4.25182">
        <ele>556.967</ele>
        <time>2018-09-10T14:39:42Z</time>
      </trkpt>
      <trkpt lat="45.81599" lon="4.2519">
        <ele>557.375</ele>
        <time>2018-09-10T14:39:48Z</time>
      </trkpt>
      <trkpt lat="45.81601" lon="4.25197">
        <ele>558.19</ele>
        <time>2018-09-10T14:39:54Z</time>
      </trkpt>
      <trkpt lat="45.81603" lon="4.25201">
        <ele>558.92</ele>
        <time>2018-09-10T14:39:59Z</time>
      </trkpt>
      <trkpt lat="45.81606" lon="4.25204">
        <ele>559.28</ele>
        <time>2018-09-10T14:40:04Z</time>
      </trkpt>
      <trkpt lat="45.81609" lon="4.25209">
        <ele>560.196</ele>
        <time>2018-09-10T14:40:10Z</time>
      </trkpt>
      <trkpt lat="45.81617" lon="4.2522">
        <ele>561.155</ele>
        <time>2018-09-10T14:40:16Z</time>
      </trkpt>
      <trkpt lat="45.81621" lon="4.25226">
        <ele>562.113</ele>
        <time>2018-09-10T14:40:21Z</time>
      </trkpt>
      <trkpt lat="45.81624" lon="4.2523">
        <ele>562.764</ele>
        <time>2018-09-10T14:40:26Z</time>
      </trkpt>
      <trkpt lat="45.81627" lon="4.25235">
        <ele>563.483</ele>
        <time>2018-09-10T14:40:32Z</time>
      </trkpt>
      <trkpt lat="45.81634" lon="4.25243">
        <ele>564.05</ele>
        <time>2018-09-10T14:40:38Z</time>
      </trkpt>
      <trkpt lat="45.81638" lon="4.25249">
        <ele>564.221</ele>
        <time>2018-09-10T14:40:44Z</time>
      </trkpt>
      <trkpt lat="45.81643" lon="4.25256">
        <ele>564.37</ele>
        <time>2018-09-10T14:40:50Z</time>
      </trkpt>
      <trkpt lat="45.81648" lon="4.25263">
        <ele>564.105</ele>
        <time>2018-09-10T14:40:55Z</time>
      </trkpt>
      <trkpt lat="45.81653" lon="4.25271">
        <ele>564.015</ele>
        <time>2018-09-10T14:41:01Z</time>
      </trkpt>
      <trkpt lat="45.81658" lon="4.25278">
        <ele>563.776</ele>
        <time>2018-09-10T14:41:06Z</time>
      </trkpt>
      <trkpt lat="45.81663" lon="4.25284">
        <ele>563.738</ele>
        <time>2018-09-10T14:41:12Z</time>
      </trkpt>
      <trkpt lat="45.81668" lon="4.25289">
        <ele>563.94</ele>
        <time>2018-09-10T14:41:17Z</time>
      </trkpt>
      <trkpt lat="45.81674" lon="4.25297">
        <ele>563.81</ele>
        <time>2018-09-10T14:41:23Z</time>
      </trkpt>
      <trkpt lat="45.81678" lon="4.25307">
        <ele>563.555</ele>
        <time>2018-09-10T14:41:29Z</time>
      </trkpt>
      <trkpt lat="45.81681" lon="4.25312">
        <ele>563.6</ele>
        <time>2018-09-10T14:41:34Z</time>
      </trkpt>
      <trkpt lat="45.81685" lon="4.25322">
        <ele>563.698</ele>
        <time>2018-09-10T14:41:40Z</time>
      </trkpt>
      <trkpt lat="45.8169" lon="4.25329">
        <ele>563.792</ele>
        <time>2018-09-10T14:41:45Z</time>
      </trkpt>
      <trkpt lat="45.81696" lon="4.25336">
        <ele>563.493</ele>
        <time>2018-09-10T14:41:51Z</time>
      </trkpt>
      <trkpt lat="45.81702" lon="4.25345">
        <ele>562.818</ele>
        <time>2018-09-10T14:41:57Z</time>
      </trkpt>
      <trkpt lat="45.81706" lon="4.25352">
        <ele>562.238</ele>
        <time>2018-09-10T14:42:02Z</time>
      </trkpt>
      <trkpt lat="45.81711" lon="4.25358">
        <ele>561.775</ele>
        <time>2018-09-10T14:42:07Z</time>
      </trkpt>
      <trkpt lat="45.81716" lon="4.25363">
        <ele>561.084</ele>
        <time>2018-09-10T14:42:13Z</time>
      </trkpt>
      <trkpt lat="45.81721" lon="4.25369">
        <ele>560.277</ele>
        <time>2018-09-10T14:42:18Z</time>
      </trkpt>
      <trkpt lat="45.81725" lon="4.25374">
        <ele>559.8</ele>
        <time>2018-09-10T14:42:23Z</time>
      </trkpt>
      <trkpt lat="45.81729" lon="4.25381">
        <ele>559.4</ele>
        <time>2018-09-10T14:42:28Z</time>
      </trkpt>
      <trkpt lat="45.81735" lon="4.25388">
        <ele>559.125</ele>
        <time>2018-09-10T14:42:34Z</time>
      </trkpt>
      <trkpt lat="45.8174" lon="4.25394">
        <ele>558.659</ele>
        <time>2018-09-10T14:42:40Z</time>
      </trkpt>
      <trkpt lat="45.81745" lon="4.25403">
        <ele>558.426</ele>
        <time>2018-09-10T14:42:46Z</time>
      </trkpt>
      <trkpt lat="45.81749" lon="4.25413">
        <ele>558.448</ele>
        <time>2018-09-10T14:42:52Z</time>
      </trkpt>
      <trkpt lat="45.81754" lon="4.25421">
        <ele>558.515</ele>
        <time>2018-09-10T14:42:57Z</time>
      </trkpt>
      <trkpt lat="45.81758" lon="4.25425">
        <ele>558.264</ele>
        <time>2018-09-10T14:43:02Z</time>
      </trkpt>
      <trkpt lat="45.81765" lon="4.25432">
        <ele>558.193</ele>
        <time>2018-09-10T14:43:07Z</time>
      </trkpt>
      <trkpt lat="45.81769" lon="4.25437">
        <ele>558.217</ele>
        <time>2018-09-10T14:43:12Z</time>
      </trkpt>
      <trkpt lat="45.81775" lon="4.25441">
        <ele>558.024</ele>
        <time>2018-09-10T14:43:18Z</time>
      </trkpt>
      <trkpt lat="45.81781" lon="4.25444">
        <ele>558.004</ele>
        <time>2018-09-10T14:43:23Z</time>
      </trkpt>
      <trkpt lat="45.81787" lon="4.25447">
        <ele>558.579</ele>
        <time>2018-09-10T14:43:29Z</time>
      </trkpt>
      <trkpt lat="45.81793" lon="4.2545">
        <ele>558.811</ele>
        <time>2018-09-10T14:43:34Z</time>
      </trkpt>
      <trkpt lat="45.818" lon="4.25453">
        <ele>558.981</ele>
        <time>2018-09-10T14:43:40Z</time>
      </trkpt>
      <trkpt lat="45.81805" lon="4.25453">
        <ele>559.261</ele>
        <time>2018-09-10T14:43:45Z</time>
      </trkpt>
      <trkpt lat="45.81809" lon="4.25454">
        <ele>559.639</ele>
        <time>2018-09-10T14:43:50Z</time>
      </trkpt>
      <trkpt lat="45.81815" lon="4.25457">
        <ele>560.211</ele>
        <time>2018-09-10T14:43:55Z</time>
      </trkpt>
      <trkpt lat="45.8182" lon="4.25462">
        <ele>560.723</ele>
        <time>2018-09-10T14:44:00Z</time>
      </trkpt>
      <trkpt lat="45.81822" lon="4.25466">
        <ele>561.498</ele>
        <time>2018-09-10T14:44:06Z</time>
      </trkpt>
      <trkpt lat="45.81826" lon="4.25475">
        <ele>562.211</ele>
        <time>2018-09-10T14:44:11Z</time>
      </trkpt>
      <trkpt lat="45.81829" lon="4.25481">
        <ele>562.586</ele>
        <time>2018-09-10T14:44:16Z</time>
      </trkpt>
      <trkpt lat="45.81831" lon="4.25484">
        <ele>563.202</ele>
        <time>2018-09-10T14:44:22Z</time>
      </trkpt>
      <trkpt lat="45.81835" lon="4.25491">
        <ele>564.066</ele>
        <time>2018-09-10T14:44:28Z</time>
      </trkpt>
      <trkpt lat="45.81838" lon="4.25497">
        <ele>564.684</ele>
        <time>2018-09-10T14:44:33Z</time>
      </trkpt>
      <trkpt lat="45.8184" lon="4.25503">
        <ele>565.385</ele>
        <time>2018-09-10T14:44:39Z</time>
      </trkpt>
      <trkpt lat="45.81845" lon="4.25511">
        <ele>565.722</ele>
        <time>2018-09-10T14:44:45Z</time>
      </trkpt>
      <trkpt lat="45.8185" lon="4.25512">
        <ele>566.235</ele>
        <time>2018-09-10T14:44:51Z</time>
      </trkpt>
      <trkpt lat="45.81856" lon="4.25511">
        <ele>566.704</ele>
        <time>2018-09-10T14:44:57Z</time>
      </trkpt>
      <trkpt lat="45.81862" lon="4.25511">
        <ele>567.454</ele>
        <time>2018-09-10T14:45:03Z</time>
      </trkpt>
      <trkpt lat="45.81868" lon="4.2551">
        <ele>568.342</ele>
        <time>2018-09-10T14:45:09Z</time>
      </trkpt>
      <trkpt lat="45.81874" lon="4.2551">
        <ele>569.176</ele>
        <time>2018-09-10T14:45:15Z</time>
      </trkpt>
      <trkpt lat="45.81878" lon="4.25509">
        <ele>569.976</ele>
        <time>2018-09-10T14:45:21Z</time>
      </trkpt>
      <trkpt lat="45.81884" lon="4.25506">
        <ele>570.518</ele>
        <time>2018-09-10T14:45:27Z</time>
      </trkpt>
      <trkpt lat="45.8189" lon="4.25504">
        <ele>570.95</ele>
        <time>2018-09-10T14:45:33Z</time>
      </trkpt>
      <trkpt lat="45.81896" lon="4.25502">
        <ele>571.426</ele>
        <time>2018-09-10T14:45:38Z</time>
      </trkpt>
      <trkpt lat="45.81902" lon="4.255">
        <ele>571.565</ele>
        <time>2018-09-10T14:45:44Z</time>
      </trkpt>
      <trkpt lat="45.81906" lon="4.25498">
        <ele>571.709</ele>
        <time>2018-09-10T14:45:49Z</time>
      </trkpt>
      <trkpt lat="45.81914" lon="4.25498">
        <ele>572.076</ele>
        <time>2018-09-10T14:45:55Z</time>
      </trkpt>
      <trkpt lat="45.81919" lon="4.25497">
        <ele>572.544</ele>
        <time>2018-09-10T14:46:00Z</time>
      </trkpt>
      <trkpt lat="45.81926" lon="4.255">
        <ele>573.201</ele>
        <time>2018-09-10T14:46:06Z</time>
      </trkpt>
      <trkpt lat="45.81932" lon="4.25502">
        <ele>573.59</ele>
        <time>2018-09-10T14:46:11Z</time>
      </trkpt>
      <trkpt lat="45.81939" lon="4.25505">
        <ele>573.791</ele>
        <time>2018-09-10T14:46:17Z</time>
      </trkpt>
      <trkpt lat="45.81944" lon="4.25508">
        <ele>574.237</ele>
        <time>2018-09-10T14:46:22Z</time>
      </trkpt>
      <trkpt lat="45.8195" lon="4.2551">
        <ele>574.66</ele>
        <time>2018-09-10T14:46:27Z</time>
      </trkpt>
      <trkpt lat="45.81956" lon="4.25513">
        <ele>574.949</ele>
        <time>2018-09-10T14:46:32Z</time>
      </trkpt>
      <trkpt lat="45.8196" lon="4.25517">
        <ele>574.916</ele>
        <time>2018-09-10T14:46:37Z</time>
      </trkpt>
      <trkpt lat="45.81967" lon="4.25523">
        <ele>574.556</ele>
        <time>2018-09-10T14:46:43Z</time>
      </trkpt>
      <trkpt lat="45.81971" lon="4.25528">
        <ele>574.676</ele>
        <time>2018-09-10T14:46:48Z</time>
      </trkpt>
      <trkpt lat="45.81976" lon="4.25533">
        <ele>575.004</ele>
        <time>2018-09-10T14:46:54Z</time>
      </trkpt>
      <trkpt lat="45.81983" lon="4.25537">
        <ele>575.74</ele>
        <time>2018-09-10T14:47:00Z</time>
      </trkpt>
      <trkpt lat="45.81989" lon="4.25541">
        <ele>576.434</ele>
        <time>2018-09-10T14:47:06Z</time>
      </trkpt>
      <trkpt lat="45.81994" lon="4.25544">
        <ele>576.956</ele>
        <time>2018-09-10T14:47:11Z</time>
      </trkpt>
      <trkpt lat="45.82001" lon="4.25547">
        <ele>577.579</ele>
        <time>2018-09-10T14:47:17Z</time>
      </trkpt>
      <trkpt lat="45.82006" lon="4.25552">
        <ele>577.935</ele>
        <time>2018-09-10T14:47:23Z</time>
      </trkpt>
      <trkpt lat="45.82014" lon="4.25557">
        <ele>578.141</ele>
        <time>2018-09-10T14:47:29Z</time>
      </trkpt>
      <trkpt lat="45.82019" lon="4.25559">
        <ele>578.449</ele>
        <time>2018-09-10T14:47:35Z</time>
      </trkpt>
      <trkpt lat="45.82026" lon="4.25565">
        <ele>578.699</ele>
        <time>2018-09-10T14:47:41Z</time>
      </trkpt>
      <trkpt lat="45.82032" lon="4.25569">
        <ele>578.938</ele>
        <time>2018-09-10T14:47:47Z</time>
      </trkpt>
      <trkpt lat="45.82038" lon="4.25573">
        <ele>579.193</ele>
        <time>2018-09-10T14:47:52Z</time>
      </trkpt>
      <trkpt lat="45.82043" lon="4.25578">
        <ele>579.423</ele>
        <time>2018-09-10T14:47:58Z</time>
      </trkpt>
      <trkpt lat="45.82048" lon="4.25583">
        <ele>579.475</ele>
        <time>2018-09-10T14:48:03Z</time>
      </trkpt>
      <trkpt lat="45.82054" lon="4.25587">
        <ele>579.557</ele>
        <time>2018-09-10T14:48:08Z</time>
      </trkpt>
      <trkpt lat="45.8206" lon="4.25591">
        <ele>579.945</ele>
        <time>2018-09-10T14:48:13Z</time>
      </trkpt>
      <trkpt lat="45.82064" lon="4.25596">
        <ele>580.657</ele>
        <time>2018-09-10T14:48:19Z</time>
      </trkpt>
      <trkpt lat="45.82069" lon="4.25602">
        <ele>580.935</ele>
        <time>2018-09-10T14:48:24Z</time>
      </trkpt>
      <trkpt lat="45.82076" lon="4.25609">
        <ele>581.303</ele>
        <time>2018-09-10T14:48:30Z</time>
      </trkpt>
      <trkpt lat="45.8208" lon="4.25612">
        <ele>581.527</ele>
        <time>2018-09-10T14:48:35Z</time>
      </trkpt>
      <trkpt lat="45.82083" lon="4.25615">
        <ele>581.819</ele>
        <time>2018-09-10T14:48:40Z</time>
      </trkpt>
      <trkpt lat="45.82085" lon="4.25618">
        <ele>581.916</ele>
        <time>2018-09-10T14:48:46Z</time>
      </trkpt>
      <trkpt lat="45.82086" lon="4.25617">
        <ele>581.889</ele>
        <time>2018-09-10T14:48:51Z</time>
      </trkpt>
      <trkpt lat="45.82086" lon="4.25617">
        <ele>582.077</ele>
        <time>2018-09-10T14:48:56Z</time>
      </trkpt>
      <trkpt lat="45.82086" lon="4.25617">
        <ele>582.425</ele>
        <time>2018-09-10T14:49:02Z</time>
      </trkpt>
      <trkpt lat="45.82087" lon="4.25618">
        <ele>582.73</ele>
        <time>2018-09-10T14:49:07Z</time>
      </trkpt>
      <trkpt lat="45.82086" lon="4.25619">
        <ele>582.841</ele>
        <time>2018-09-10T14:49:12Z</time>
      </trkpt>
      <trkpt lat="45.82086" lon="4.25618">
        <ele>583.078</ele>
        <time>2018-09-10T14:49:18Z</time>
      </trkpt>
      <trkpt lat="45.82085" lon="4.25616">
        <ele>583.275</ele>
        <time>2018-09-10T14:49:24Z</time>
      </trkpt>
      <trkpt lat="45.82085" lon="4.25616">
        <ele>583.278</ele>
        <time>2018-09-10T14:49:30Z</time>
      </trkpt>
      <trkpt lat="45.82084" lon="4.25617">
        <ele>583.479</ele>
        <time>2018-09-10T14:49:36Z</time>
      </trkpt>
      <trkpt lat="45.82084" lon="4.25619">
        <ele>583.834</ele>
        <time>2018-09-10T14:49:41Z</time>
      </trkpt>
      <trkpt lat="45.82082" lon="4.25619">
        <ele>583.842</ele>
        <time>2018-09-10T14:49:47Z</time>
      </trkpt>
      <trkpt lat="45.82082" lon="4.25619">
        <ele>583.657</ele>
        <time>2018-09-10T14:49:52Z</time>
      </trkpt>
      <trkpt lat="45.82082" lon="4.25619">
        <ele>583.082</ele>
        <time>2018-09-10T14:49:58Z</time>
      </trkpt>
      <trkpt lat="45.82082" lon="4.25619">
        <ele>582.904</ele>
        <time>2018-09-10T14:50:03Z</time>
      </trkpt>
      <trkpt lat="45.82082" lon="4.2562">
        <ele>582.746</ele>
        <time>2018-09-10T14:50:09Z</time>
      </trkpt>
      <trkpt lat="45.82081" lon="4.25621">
        <ele>582.705</ele>
        <time>2018-09-10T14:50:14Z</time>
      </trkpt>
      <trkpt lat="45.82082" lon="4.25621">
        <ele>582.613</ele>
        <time>2018-09-10T14:50:20Z</time>
      </trkpt>
      <trkpt lat="45.82081" lon="4.2562">
        <ele>582.603</ele>
        <time>2018-09-10T14:50:26Z</time>
      </trkpt>
      <trkpt lat="45.82081" lon="4.25622">
        <ele>582.595</ele>
        <time>2018-09-10T14:50:32Z</time>
      </trkpt>
      <trkpt lat="45.82081" lon="4.25621">
        <ele>582.694</ele>
        <time>2018-09-10T14:50:38Z</time>
      </trkpt>
      <trkpt lat="45.82081" lon="4.25622">
        <ele>582.754</ele>
        <time>2018-09-10T14:50:44Z</time>
      </trkpt>
      <trkpt lat="45.82081" lon="4.25621">
        <ele>582.746</ele>
        <time>2018-09-10T14:50:50Z</time>
      </trkpt>
      <trkpt lat="45.82081" lon="4.25619">
        <ele>582.477</ele>
        <time>2018-09-10T14:50:56Z</time>
      </trkpt>
      <trkpt lat="45.82081" lon="4.25618">
        <ele>582.6</ele>
        <time>2018-09-10T14:51:01Z</time>
      </trkpt>
      <trkpt lat="45.82081" lon="4.25619">
        <ele>583.097</ele>
        <time>2018-09-10T14:51:07Z</time>
      </trkpt>
      <trkpt lat="45.82081" lon="4.25619">
        <ele>583.406</ele>
        <time>2018-09-10T14:51:13Z</time>
      </trkpt>
      <trkpt lat="45.82081" lon="4.25619">
        <ele>583.392</ele>
        <time>2018-09-10T14:51:18Z</time>
      </trkpt>
      <trkpt lat="45.82081" lon="4.25619">
        <ele>583.126</ele>
        <time>2018-09-10T14:51:24Z</time>
      </trkpt>
      <trkpt lat="45.8208" lon="4.2562">
        <ele>583.14</ele>
        <time>2018-09-10T14:51:29Z</time>
      </trkpt>
      <trkpt lat="45.8208" lon="4.2562">
        <ele>583.133</ele>
        <time>2018-09-10T14:51:34Z</time>
      </trkpt>
      <trkpt lat="45.82079" lon="4.25619">
        <ele>583.103</ele>
        <time>2018-09-10T14:51:39Z</time>
      </trkpt>
      <trkpt lat="45.82078" lon="4.25618">
        <ele>583.076</ele>
        <time>2018-09-10T14:51:45Z</time>
      </trkpt>
      <trkpt lat="45.82078" lon="4.25618">
        <ele>582.959</ele>
        <time>2018-09-10T14:51:51Z</time>
      </trkpt>
      <trkpt lat="45.82077" lon="4.25619">
        <ele>582.742</ele>
        <time>2018-09-10T14:51:57Z</time>
      </trkpt>
      <trkpt lat="45.82076" lon="4.25618">
        <ele>582.687</ele>
        <time>2018-09-10T14:52:03Z</time>
      </trkpt>
      <trkpt lat="45.82075" lon="4.25618">
        <ele>582.572</ele>
        <time>2018-09-10T14:52:08Z</time>
      </trkpt>
      <trkpt lat="45.82076" lon="4.25618">
        <ele>582.097</ele>
        <time>2018-09-10T14:52:14Z</time>
      </trkpt>
      <trkpt lat="45.82086" lon="4.2562">
        <ele>582.069</ele>
        <time>2018-09-10T14:52:20Z</time>
      </trkpt>
      <trkpt lat="45.82093" lon="4.25624">
        <ele>582.818</ele>
        <time>2018-09-10T14:52:26Z</time>
      </trkpt>
      <trkpt lat="45.821" lon="4.2563">
        <ele>583.209</ele>
        <time>2018-09-10T14:52:32Z</time>
      </trkpt>
      <trkpt lat="45.82104" lon="4.25633">
        <ele>583.386</ele>
        <time>2018-09-10T14:52:37Z</time>
      </trkpt>
      <trkpt lat="45.82109" lon="4.25638">
        <ele>583.725</ele>
        <time>2018-09-10T14:52:43Z</time>
      </trkpt>
      <trkpt lat="45.82116" lon="4.25644">
        <ele>584.191</ele>
        <time>2018-09-10T14:52:49Z</time>
      </trkpt>
      <trkpt lat="45.82119" lon="4.25648">
        <ele>584.729</ele>
        <time>2018-09-10T14:52:54Z</time>
      </trkpt>
      <trkpt lat="45.82125" lon="4.25653">
        <ele>585.119</ele>
        <time>2018-09-10T14:53:00Z</time>
      </trkpt>
      <trkpt lat="45.82129" lon="4.25658">
        <ele>585.746</ele>
        <time>2018-09-10T14:53:06Z</time>
      </trkpt>
      <trkpt lat="45.82134" lon="4.25664">
        <ele>586.313</ele>
        <time>2018-09-10T14:53:12Z</time>
      </trkpt>
      <trkpt lat="45.82138" lon="4.25668">
        <ele>586.696</ele>
        <time>2018-09-10T14:53:17Z</time>
      </trkpt>
      <trkpt lat="45.82144" lon="4.25676">
        <ele>587.008</ele>
        <time>2018-09-10T14:53:23Z</time>
      </trkpt>
      <trkpt lat="45.82148" lon="4.2568">
        <ele>587.054</ele>
        <time>2018-09-10T14:53:29Z</time>
      </trkpt>
      <trkpt lat="45.82154" lon="4.25687">
        <ele>587.064</ele>
        <time>2018-09-10T14:53:35Z</time>
      </trkpt>
      <trkpt lat="45.82157" lon="4.25692">
        <ele>587.265</ele>
        <time>2018-09-10T14:53:40Z</time>
      </trkpt>
      <trkpt lat="45.82161" lon="4.25695">
        <ele>587.611</ele>
        <time>2018-09-10T14:53:45Z</time>
      </trkpt>
      <trkpt lat="45.82166" lon="4.25699">
        <ele>587.933</ele>
        <time>2018-09-10T14:53:50Z</time>
      </trkpt>
      <trkpt lat="45.82169" lon="4.25704">
        <ele>587.851</ele>
        <time>2018-09-10T14:53:55Z</time>
      </trkpt>
      <trkpt lat="45.82174" lon="4.25709">
        <ele>587.66</ele>
        <time>2018-09-10T14:54:00Z</time>
      </trkpt>
      <trkpt lat="45.82179" lon="4.25718">
        <ele>587.9</ele>
        <time>2018-09-10T14:54:06Z</time>
      </trkpt>
      <trkpt lat="45.82182" lon="4.25722">
        <ele>588.232</ele>
        <time>2018-09-10T14:54:11Z</time>
      </trkpt>
      <trkpt lat="45.82187" lon="4.25729">
        <ele>588.526</ele>
        <time>2018-09-10T14:54:17Z</time>
      </trkpt>
      <trkpt lat="45.82192" lon="4.25733">
        <ele>588.656</ele>
        <time>2018-09-10T14:54:22Z</time>
      </trkpt>
      <trkpt lat="45.82195" lon="4.25737">
        <ele>588.792</ele>
        <time>2018-09-10T14:54:27Z</time>
      </trkpt>
      <trkpt lat="45.822" lon="4.25744">
        <ele>589.162</ele>
        <time>2018-09-10T14:54:33Z</time>
      </trkpt>
      <trkpt lat="45.82205" lon="4.25752">
        <ele>589.197</ele>
        <time>2018-09-10T14:54:39Z</time>
      </trkpt>
      <trkpt lat="45.82209" lon="4.25759">
        <ele>589.361</ele>
        <time>2018-09-10T14:54:45Z</time>
      </trkpt>
      <trkpt lat="45.82212" lon="4.25764">
        <ele>589.706</ele>
        <time>2018-09-10T14:54:50Z</time>
      </trkpt>
      <trkpt lat="45.82216" lon="4.25771">
        <ele>589.822</ele>
        <time>2018-09-10T14:54:56Z</time>
      </trkpt>
      <trkpt lat="45.82218" lon="4.2578">
        <ele>589.905</ele>
        <time>2018-09-10T14:55:02Z</time>
      </trkpt>
      <trkpt lat="45.8222" lon="4.25785">
        <ele>590.253</ele>
        <time>2018-09-10T14:55:07Z</time>
      </trkpt>
      <trkpt lat="45.82226" lon="4.25791">
        <ele>590.824</ele>
        <time>2018-09-10T14:55:13Z</time>
      </trkpt>
      <trkpt lat="45.82231" lon="4.25797">
        <ele>591.027</ele>
        <time>2018-09-10T14:55:18Z</time>
      </trkpt>
      <trkpt lat="45.82237" lon="4.25801">
        <ele>591.337</ele>
        <time>2018-09-10T14:55:24Z</time>
      </trkpt>
      <trkpt lat="45.82241" lon="4.25807">
        <ele>591.789</ele>
        <time>2018-09-10T14:55:29Z</time>
      </trkpt>
      <trkpt lat="45.82246" lon="4.25814">
        <ele>592.057</ele>
        <time>2018-09-10T14:55:35Z</time>
      </trkpt>
      <trkpt lat="45.8225" lon="4.25822">
        <ele>592.291</ele>
        <time>2018-09-10T14:55:41Z</time>
      </trkpt>
      <trkpt lat="45.82255" lon="4.25828">
        <ele>592.626</ele>
        <time>2018-09-10T14:55:47Z</time>
      </trkpt>
      <trkpt lat="45.82258" lon="4.25834">
        <ele>592.832</ele>
        <time>2018-09-10T14:55:52Z</time>
      </trkpt>
      <trkpt lat="45.82263" lon="4.2584">
        <ele>593.172</ele>
        <time>2018-09-10T14:55:58Z</time>
      </trkpt>
      <trkpt lat="45.82269" lon="4.25847">
        <ele>593.273</ele>
        <time>2018-09-10T14:56:04Z</time>
      </trkpt>
      <trkpt lat="45.82273" lon="4.25854">
        <ele>593.479</ele>
        <time>2018-09-10T14:56:09Z</time>
      </trkpt>
      <trkpt lat="45.82278" lon="4.25861">
        <ele>593.804</ele>
        <time>2018-09-10T14:56:15Z</time>
      </trkpt>
      <trkpt lat="45.82281" lon="4.25865">
        <ele>594.194</ele>
        <time>2018-09-10T14:56:20Z</time>
      </trkpt>
      <trkpt lat="45.82286" lon="4.25868">
        <ele>594.373</ele>
        <time>2018-09-10T14:56:25Z</time>
      </trkpt>
      <trkpt lat="45.82292" lon="4.25874">
        <ele>594.537</ele>
        <time>2018-09-10T14:56:31Z</time>
      </trkpt>
      <trkpt lat="45.82298" lon="4.25881">
        <ele>595.12</ele>
        <time>2018-09-10T14:56:37Z</time>
      </trkpt>
      <trkpt lat="45.82302" lon="4.25885">
        <ele>595.777</ele>
        <time>2018-09-10T14:56:42Z</time>
      </trkpt>
      <trkpt lat="45.82306" lon="4.25891">
        <ele>595.814</ele>
        <time>2018-09-10T14:56:47Z</time>
      </trkpt>
      <trkpt lat="45.82314" lon="4.25896">
        <ele>595.784</ele>
        <time>2018-09-10T14:56:53Z</time>
      </trkpt>
      <trkpt lat="45.8232" lon="4.25901">
        <ele>596.116</ele>
        <time>2018-09-10T14:56:59Z</time>
      </trkpt>
      <trkpt lat="45.82324" lon="4.25905">
        <ele>596.6</ele>
        <time>2018-09-10T14:57:04Z</time>
      </trkpt>
      <trkpt lat="45.82328" lon="4.2591">
        <ele>596.875</ele>
        <time>2018-09-10T14:57:09Z</time>
      </trkpt>
      <trkpt lat="45.82334" lon="4.25914">
        <ele>596.906</ele>
        <time>2018-09-10T14:57:15Z</time>
      </trkpt>
      <trkpt lat="45.8234" lon="4.25918">
        <ele>597.491</ele>
        <time>2018-09-10T14:57:21Z</time>
      </trkpt>
      <trkpt lat="45.82345" lon="4.2592">
        <ele>597.759</ele>
        <time>2018-09-10T14:57:26Z</time>
      </trkpt>
      <trkpt lat="45.82352" lon="4.25924">
        <ele>598.201</ele>
        <time>2018-09-10T14:57:32Z</time>
      </trkpt>
      <trkpt lat="45.82358" lon="4.25928">
        <ele>598.699</ele>
        <time>2018-09-10T14:57:38Z</time>
      </trkpt>
      <trkpt lat="45.82363" lon="4.25932">
        <ele>599.046</ele>
        <time>2018-09-10T14:57:44Z</time>
      </trkpt>
      <trkpt lat="45.8237" lon="4.25937">
        <ele>599.355</ele>
        <time>2018-09-10T14:57:50Z</time>
      </trkpt>
      <trkpt lat="45.82376" lon="4.25943">
        <ele>599.571</ele>
        <time>2018-09-10T14:57:56Z</time>
      </trkpt>
      <trkpt lat="45.82381" lon="4.25947">
        <ele>600.001</ele>
        <time>2018-09-10T14:58:02Z</time>
      </trkpt>
      <trkpt lat="45.82386" lon="4.25953">
        <ele>600.537</ele>
        <time>2018-09-10T14:58:08Z</time>
      </trkpt>
      <trkpt lat="45.82389" lon="4.2596">
        <ele>600.823</ele>
        <time>2018-09-10T14:58:13Z</time>
      </trkpt>
      <trkpt lat="45.82392" lon="4.25964">
        <ele>601.108</ele>
        <time>2018-09-10T14:58:18Z</time>
      </trkpt>
      <trkpt lat="45.82397" lon="4.25973">
        <ele>601.573</ele>
        <time>2018-09-10T14:58:24Z</time>
      </trkpt>
      <trkpt lat="45.824" lon="4.25981">
        <ele>602.021</ele>
        <time>2018-09-10T14:58:30Z</time>
      </trkpt>
      <trkpt lat="45.82403" lon="4.25986">
        <ele>602.498</ele>
        <time>2018-09-10T14:58:35Z</time>
      </trkpt>
      <trkpt lat="45.82406" lon="4.25996">
        <ele>602.803</ele>
        <time>2018-09-10T14:58:41Z</time>
      </trkpt>
      <trkpt lat="45.82407" lon="4.26002">
        <ele>603.004</ele>
        <time>2018-09-10T14:58:46Z</time>
      </trkpt>
      <trkpt lat="45.8241" lon="4.26009">
        <ele>603.311</ele>
        <time>2018-09-10T14:58:52Z</time>
      </trkpt>
      <trkpt lat="45.82414" lon="4.26018">
        <ele>603.618</ele>
        <time>2018-09-10T14:58:57Z</time>
      </trkpt>
      <trkpt lat="45.82417" lon="4.26026">
        <ele>603.509</ele>
        <time>2018-09-10T14:59:03Z</time>
      </trkpt>
      <trkpt lat="45.8242" lon="4.26035">
        <ele>603.533</ele>
        <time>2018-09-10T14:59:09Z</time>
      </trkpt>
      <trkpt lat="45.82422" lon="4.26043">
        <ele>603.743</ele>
        <time>2018-09-10T14:59:15Z</time>
      </trkpt>
      <trkpt lat="45.82424" lon="4.26051">
        <ele>603.966</ele>
        <time>2018-09-10T14:59:20Z</time>
      </trkpt>
      <trkpt lat="45.82428" lon="4.26058">
        <ele>604.485</ele>
        <time>2018-09-10T14:59:26Z</time>
      </trkpt>
      <trkpt lat="45.82433" lon="4.26068">
        <ele>604.716</ele>
        <time>2018-09-10T14:59:32Z</time>
      </trkpt>
      <trkpt lat="45.82437" lon="4.26076">
        <ele>604.828</ele>
        <time>2018-09-10T14:59:37Z</time>
      </trkpt>
      <trkpt lat="45.8244" lon="4.26082">
        <ele>605.071</ele>
        <time>2018-09-10T14:59:43Z</time>
      </trkpt>
      <trkpt lat="45.82445" lon="4.26089">
        <ele>605.55</ele>
        <time>2018-09-10T14:59:49Z</time>
      </trkpt>
      <trkpt lat="45.8245" lon="4.26095">
        <ele>605.834</ele>
        <time>2018-09-10T14:59:54Z</time>
      </trkpt>
      <trkpt lat="45.82454" lon="4.26103">
        <ele>606.358</ele>
        <time>2018-09-10T15:00:00Z</time>
      </trkpt>
      <trkpt lat="45.82457" lon="4.26109">
        <ele>606.738</ele>
        <time>2018-09-10T15:00:05Z</time>
      </trkpt>
      <trkpt lat="45.82461" lon="4.26114">
        <ele>607.402</ele>
        <time>2018-09-10T15:00:11Z</time>
      </trkpt>
      <trkpt lat="45.82465" lon="4.2612">
        <ele>607.978</ele>
        <time>2018-09-10T15:00:17Z</time>
      </trkpt>
      <trkpt lat="45.82469" lon="4.26125">
        <ele>608.68</ele>
        <time>2018-09-10T15:00:22Z</time>
      </trkpt>
      <trkpt lat="45.82473" lon="4.26136">
        <ele>609.433</ele>
        <time>2018-09-10T15:00:28Z</time>
      </trkpt>
      <trkpt lat="45.82474" lon="4.26145">
        <ele>610.067</ele>
        <time>2018-09-10T15:00:34Z</time>
      </trkpt>
      <trkpt lat="45.82476" lon="4.26154">
        <ele>610.526</ele>
        <time>2018-09-10T15:00:39Z</time>
      </trkpt>
      <trkpt lat="45.82476" lon="4.26157">
        <ele>611.078</ele>
        <time>2018-09-10T15:00:44Z</time>
      </trkpt>
      <trkpt lat="45.82476" lon="4.26161">
        <ele>611.778</ele>
        <time>2018-09-10T15:00:50Z</time>
      </trkpt>
      <trkpt lat="45.82476" lon="4.26167">
        <ele>612.073</ele>
        <time>2018-09-10T15:00:55Z</time>
      </trkpt>
      <trkpt lat="45.82476" lon="4.26175">
        <ele>612.263</ele>
        <time>2018-09-10T15:01:01Z</time>
      </trkpt>
      <trkpt lat="45.82476" lon="4.26181">
        <ele>612.345</ele>
        <time>2018-09-10T15:01:07Z</time>
      </trkpt>
      <trkpt lat="45.82476" lon="4.26184">
        <ele>612.367</ele>
        <time>2018-09-10T15:01:12Z</time>
      </trkpt>
      <trkpt lat="45.82476" lon="4.26189">
        <ele>612.351</ele>
        <time>2018-09-10T15:01:18Z</time>
      </trkpt>
      <trkpt lat="45.82473" lon="4.26188">
        <ele>611.783</ele>
        <time>2018-09-10T15:01:23Z</time>
      </trkpt>
      <trkpt lat="45.82473" lon="4.26195">
        <ele>611.7</ele>
        <time>2018-09-10T15:01:29Z</time>
      </trkpt>
      <trkpt lat="45.82474" lon="4.262">
        <ele>611.714</ele>
        <time>2018-09-10T15:01:35Z</time>
      </trkpt>
      <trkpt lat="45.82475" lon="4.26206">
        <ele>611.98</ele>
        <time>2018-09-10T15:01:41Z</time>
      </trkpt>
      <trkpt lat="45.82475" lon="4.26206">
        <ele>612.024</ele>
        <time>2018-09-10T15:01:47Z</time>
      </trkpt>
      <trkpt lat="45.82476" lon="4.26207">
        <ele>612.281</ele>
        <time>2018-09-10T15:01:53Z</time>
      </trkpt>
      <trkpt lat="45.82476" lon="4.26208">
        <ele>612.333</ele>
        <time>2018-09-10T15:01:59Z</time>
      </trkpt>
      <trkpt lat="45.8248" lon="4.26213">
        <ele>612.371</ele>
        <time>2018-09-10T15:02:04Z</time>
      </trkpt>
      <trkpt lat="45.82483" lon="4.26218">
        <ele>612.413</ele>
        <time>2018-09-10T15:02:10Z</time>
      </trkpt>
      <trkpt lat="45.82482" lon="4.26217">
        <ele>612.396</ele>
        <time>2018-09-10T15:02:16Z</time>
      </trkpt>
      <trkpt lat="45.82483" lon="4.26216">
        <ele>612.156</ele>
        <time>2018-09-10T15:02:21Z</time>
      </trkpt>
      <trkpt lat="45.82484" lon="4.26217">
        <ele>611.921</ele>
        <time>2018-09-10T15:02:27Z</time>
      </trkpt>
      <trkpt lat="45.82484" lon="4.26217">
        <ele>611.909</ele>
        <time>2018-09-10T15:02:32Z</time>
      </trkpt>
      <trkpt lat="45.82486" lon="4.26217">
        <ele>611.866</ele>
        <time>2018-09-10T15:02:38Z</time>
      </trkpt>
      <trkpt lat="45.82485" lon="4.26221">
        <ele>611.963</ele>
        <time>2018-09-10T15:02:44Z</time>
      </trkpt>
      <trkpt lat="45.82484" lon="4.26226">
        <ele>611.852</ele>
        <time>2018-09-10T15:02:49Z</time>
      </trkpt>
      <trkpt lat="45.82483" lon="4.26232">
        <ele>612.053</ele>
        <time>2018-09-10T15:02:54Z</time>
      </trkpt>
      <trkpt lat="45.8248" lon="4.26239">
        <ele>612.654</ele>
        <time>2018-09-10T15:03:00Z</time>
      </trkpt>
      <trkpt lat="45.82478" lon="4.26247">
        <ele>613.266</ele>
        <time>2018-09-10T15:03:06Z</time>
      </trkpt>
      <trkpt lat="45.82477" lon="4.26252">
        <ele>613.602</ele>
        <time>2018-09-10T15:03:12Z</time>
      </trkpt>
      <trkpt lat="45.82479" lon="4.2626">
        <ele>613.863</ele>
        <time>2018-09-10T15:03:17Z</time>
      </trkpt>
      <trkpt lat="45.82481" lon="4.26265">
        <ele>614.192</ele>
        <time>2018-09-10T15:03:22Z</time>
      </trkpt>
      <trkpt lat="45.82483" lon="4.26272">
        <ele>614.398</ele>
        <time>2018-09-10T15:03:28Z</time>
      </trkpt>
      <trkpt lat="45.82487" lon="4.26279">
        <ele>614.003</ele>
        <time>2018-09-10T15:03:34Z</time>
      </trkpt>
      <trkpt lat="45.82489" lon="4.26285">
        <ele>613.759</ele>
        <time>2018-09-10T15:03:39Z</time>
      </trkpt>
      <trkpt lat="45.82493" lon="4.26293">
        <ele>614.339</ele>
        <time>2018-09-10T15:03:45Z</time>
      </trkpt>
      <trkpt lat="45.82494" lon="4.26304">
        <ele>615.111</ele>
        <time>2018-09-10T15:03:51Z</time>
      </trkpt>
      <trkpt lat="45.82495" lon="4.26311">
        <ele>615.474</ele>
        <time>2018-09-10T15:03:56Z</time>
      </trkpt>
      <trkpt lat="45.82498" lon="4.2632">
        <ele>615.731</ele>
        <time>2018-09-10T15:04:02Z</time>
      </trkpt>
      <trkpt lat="45.825" lon="4.26328">
        <ele>615.635</ele>
        <time>2018-09-10T15:04:08Z</time>
      </trkpt>
      <trkpt lat="45.82503" lon="4.26336">
        <ele>615.688</ele>
        <time>2018-09-10T15:04:13Z</time>
      </trkpt>
      <trkpt lat="45.82505" lon="4.26344">
        <ele>615.857</ele>
        <time>2018-09-10T15:04:19Z</time>
      </trkpt>
      <trkpt lat="45.82508" lon="4.2635">
        <ele>615.881</ele>
        <time>2018-09-10T15:04:24Z</time>
      </trkpt>
      <trkpt lat="45.8251" lon="4.26361">
        <ele>615.749</ele>
        <time>2018-09-10T15:04:30Z</time>
      </trkpt>
      <trkpt lat="45.82511" lon="4.26366">
        <ele>615.967</ele>
        <time>2018-09-10T15:04:35Z</time>
      </trkpt>
      <trkpt lat="45.82515" lon="4.26372">
        <ele>616.135</ele>
        <time>2018-09-10T15:04:40Z</time>
      </trkpt>
      <trkpt lat="45.82518" lon="4.2638">
        <ele>616.235</ele>
        <time>2018-09-10T15:04:46Z</time>
      </trkpt>
      <trkpt lat="45.82521" lon="4.26389">
        <ele>616.181</ele>
        <time>2018-09-10T15:04:52Z</time>
      </trkpt>
      <trkpt lat="45.82523" lon="4.26396">
        <ele>616.406</ele>
        <time>2018-09-10T15:04:57Z</time>
      </trkpt>
      <trkpt lat="45.82525" lon="4.26402">
        <ele>616.785</ele>
        <time>2018-09-10T15:05:02Z</time>
      </trkpt>
      <trkpt lat="45.82529" lon="4.2641">
        <ele>617.257</ele>
        <time>2018-09-10T15:05:08Z</time>
      </trkpt>
      <trkpt lat="45.82532" lon="4.2642">
        <ele>617.537</ele>
        <time>2018-09-10T15:05:14Z</time>
      </trkpt>
      <trkpt lat="45.82535" lon="4.26428">
        <ele>617.862</ele>
        <time>2018-09-10T15:05:20Z</time>
      </trkpt>
      <trkpt lat="45.82537" lon="4.26435">
        <ele>618.539</ele>
        <time>2018-09-10T15:05:26Z</time>
      </trkpt>
      <trkpt lat="45.8254" lon="4.26442">
        <ele>619.048</ele>
        <time>2018-09-10T15:05:32Z</time>
      </trkpt>
      <trkpt lat="45.82543" lon="4.2645">
        <ele>619.024</ele>
        <time>2018-09-10T15:05:38Z</time>
      </trkpt>
      <trkpt lat="45.82545" lon="4.26459">
        <ele>619.289</ele>
        <time>2018-09-10T15:05:44Z</time>
      </trkpt>
      <trkpt lat="45.82548" lon="4.26466">
        <ele>619.339</ele>
        <time>2018-09-10T15:05:49Z</time>
      </trkpt>
      <trkpt lat="45.82552" lon="4.26474">
        <ele>619.488</ele>
        <time>2018-09-10T15:05:55Z</time>
      </trkpt>
      <trkpt lat="45.82555" lon="4.26481">
        <ele>619.717</ele>
        <time>2018-09-10T15:06:00Z</time>
      </trkpt>
      <trkpt lat="45.82559" lon="4.2649">
        <ele>620.159</ele>
        <time>2018-09-10T15:06:06Z</time>
      </trkpt>
      <trkpt lat="45.82562" lon="4.26498">
        <ele>620.427</ele>
        <time>2018-09-10T15:06:12Z</time>
      </trkpt>
      <trkpt lat="45.82566" lon="4.26507">
        <ele>620.569</ele>
        <time>2018-09-10T15:06:18Z</time>
      </trkpt>
      <trkpt lat="45.82571" lon="4.26514">
        <ele>620.992</ele>
        <time>2018-09-10T15:06:24Z</time>
      </trkpt>
      <trkpt lat="45.82575" lon="4.26522">
        <ele>621.384</ele>
        <time>2018-09-10T15:06:30Z</time>
      </trkpt>
      <trkpt lat="45.82579" lon="4.26526">
        <ele>621.783</ele>
        <time>2018-09-10T15:06:35Z</time>
      </trkpt>
      <trkpt lat="45.82582" lon="4.2653">
        <ele>622.632</ele>
        <time>2018-09-10T15:06:41Z</time>
      </trkpt>
      <trkpt lat="45.82587" lon="4.26535">
        <ele>623.456</ele>
        <time>2018-09-10T15:06:47Z</time>
      </trkpt>
      <trkpt lat="45.82592" lon="4.26539">
        <ele>624.198</ele>
        <time>2018-09-10T15:06:53Z</time>
      </trkpt>
      <trkpt lat="45.82596" lon="4.26543">
        <ele>624.883</ele>
        <time>2018-09-10T15:06:59Z</time>
      </trkpt>
      <trkpt lat="45.826" lon="4.26546">
        <ele>625.271</ele>
        <time>2018-09-10T15:07:05Z</time>
      </trkpt>
      <trkpt lat="45.82605" lon="4.26551">
        <ele>625.695</ele>
        <time>2018-09-10T15:07:10Z</time>
      </trkpt>
      <trkpt lat="45.8261" lon="4.26556">
        <ele>626.105</ele>
        <time>2018-09-10T15:07:15Z</time>
      </trkpt>
      <trkpt lat="45.82615" lon="4.26557">
        <ele>626.484</ele>
        <time>2018-09-10T15:07:20Z</time>
      </trkpt>
      <trkpt lat="45.8262" lon="4.26561">
        <ele>626.838</ele>
        <time>2018-09-10T15:07:26Z</time>
      </trkpt>
      <trkpt lat="45.82624" lon="4.26565">
        <ele>627.295</ele>
        <time>2018-09-10T15:07:31Z</time>
      </trkpt>
      <trkpt lat="45.82628" lon="4.2657">
        <ele>627.492</ele>
        <time>2018-09-10T15:07:36Z</time>
      </trkpt>
      <trkpt lat="45.82631" lon="4.26574">
        <ele>627.853</ele>
        <time>2018-09-10T15:07:41Z</time>
      </trkpt>
      <trkpt lat="45.82636" lon="4.26577">
        <ele>628.484</ele>
        <time>2018-09-10T15:07:47Z</time>
      </trkpt>
      <trkpt lat="45.8264" lon="4.26583">
        <ele>629.081</ele>
        <time>2018-09-10T15:07:53Z</time>
      </trkpt>
      <trkpt lat="45.82644" lon="4.26587">
        <ele>629.368</ele>
        <time>2018-09-10T15:07:58Z</time>
      </trkpt>
      <trkpt lat="45.82648" lon="4.2659">
        <ele>629.616</ele>
        <time>2018-09-10T15:08:04Z</time>
      </trkpt>
      <trkpt lat="45.82651" lon="4.26595">
        <ele>629.93</ele>
        <time>2018-09-10T15:08:09Z</time>
      </trkpt>
      <trkpt lat="45.82653" lon="4.266">
        <ele>629.807</ele>
        <time>2018-09-10T15:08:15Z</time>
      </trkpt>
      <trkpt lat="45.82655" lon="4.26602">
        <ele>629.762</ele>
        <time>2018-09-10T15:08:21Z</time>
      </trkpt>
      <trkpt lat="45.82659" lon="4.26606">
        <ele>629.73</ele>
        <time>2018-09-10T15:08:27Z</time>
      </trkpt>
      <trkpt lat="45.82663" lon="4.26612">
        <ele>629.804</ele>
        <time>2018-09-10T15:08:32Z</time>
      </trkpt>
      <trkpt lat="45.82669" lon="4.26617">
        <ele>630.284</ele>
        <time>2018-09-10T15:08:38Z</time>
      </trkpt>
      <trkpt lat="45.82673" lon="4.26623">
        <ele>630.631</ele>
        <time>2018-09-10T15:08:44Z</time>
      </trkpt>
      <trkpt lat="45.82677" lon="4.26628">
        <ele>630.819</ele>
        <time>2018-09-10T15:08:50Z</time>
      </trkpt>
      <trkpt lat="45.82681" lon="4.26632">
        <ele>630.92</ele>
        <time>2018-09-10T15:08:55Z</time>
      </trkpt>
      <trkpt lat="45.82686" lon="4.26638">
        <ele>631.41</ele>
        <time>2018-09-10T15:09:01Z</time>
      </trkpt>
      <trkpt lat="45.8269" lon="4.26643">
        <ele>631.79</ele>
        <time>2018-09-10T15:09:06Z</time>
      </trkpt>
      <trkpt lat="45.82695" lon="4.26648">
        <ele>632.218</ele>
        <time>2018-09-10T15:09:12Z</time>
      </trkpt>
      <trkpt lat="45.82699" lon="4.26655">
        <ele>632.666</ele>
        <time>2018-09-10T15:09:18Z</time>
      </trkpt>
      <trkpt lat="45.82702" lon="4.26661">
        <ele>632.79</ele>
        <time>2018-09-10T15:09:24Z</time>
      </trkpt>
      <trkpt lat="45.82706" lon="4.26666">
        <ele>633.23</ele>
        <time>2018-09-10T15:09:29Z</time>
      </trkpt>
      <trkpt lat="45.8271" lon="4.26673">
        <ele>633.814</ele>
        <time>2018-09-10T15:09:35Z</time>
      </trkpt>
      <trkpt lat="45.82712" lon="4.26679">
        <ele>634.314</ele>
        <time>2018-09-10T15:09:41Z</time>
      </trkpt>
      <trkpt lat="45.82714" lon="4.26686">
        <ele>634.756</ele>
        <time>2018-09-10T15:09:47Z</time>
      </trkpt>
      <trkpt lat="45.82718" lon="4.26692">
        <ele>634.971</ele>
        <time>2018-09-10T15:09:53Z</time>
      </trkpt>
      <trkpt lat="45.82721" lon="4.26702">
        <ele>635.468</ele>
        <time>2018-09-10T15:10:00Z</time>
      </trkpt>
      <trkpt lat="45.82725" lon="4.26711">
        <ele>635.656</ele>
        <time>2018-09-10T15:10:05Z</time>
      </trkpt>
      <trkpt lat="45.82728" lon="4.26717">
        <ele>635.846</ele>
        <time>2018-09-10T15:10:11Z</time>
      </trkpt>
      <trkpt lat="45.82731" lon="4.26723">
        <ele>636.303</ele>
        <time>2018-09-10T15:10:16Z</time>
      </trkpt>
      <trkpt lat="45.82734" lon="4.26732">
        <ele>636.419</ele>
        <time>2018-09-10T15:10:22Z</time>
      </trkpt>
      <trkpt lat="45.82737" lon="4.26743">
        <ele>636.288</ele>
        <time>2018-09-10T15:10:27Z</time>
      </trkpt>
      <trkpt lat="45.82739" lon="4.26753">
        <ele>636.308</ele>
        <time>2018-09-10T15:10:33Z</time>
      </trkpt>
      <trkpt lat="45.82741" lon="4.26763">
        <ele>636.419</ele>
        <time>2018-09-10T15:10:39Z</time>
      </trkpt>
      <trkpt lat="45.82744" lon="4.26774">
        <ele>636.782</ele>
        <time>2018-09-10T15:10:45Z</time>
      </trkpt>
      <trkpt lat="45.82746" lon="4.26783">
        <ele>637.766</ele>
        <time>2018-09-10T15:10:51Z</time>
      </trkpt>
      <trkpt lat="45.82748" lon="4.26789">
        <ele>638.603</ele>
        <time>2018-09-10T15:10:56Z</time>
      </trkpt>
      <trkpt lat="45.82751" lon="4.26798">
        <ele>639.519</ele>
        <time>2018-09-10T15:11:02Z</time>
      </trkpt>
      <trkpt lat="45.82754" lon="4.26803">
        <ele>640.376</ele>
        <time>2018-09-10T15:11:07Z</time>
      </trkpt>
      <trkpt lat="45.82756" lon="4.2681">
        <ele>641.316</ele>
        <time>2018-09-10T15:11:13Z</time>
      </trkpt>
      <trkpt lat="45.82759" lon="4.26818">
        <ele>642.044</ele>
        <time>2018-09-10T15:11:18Z</time>
      </trkpt>
      <trkpt lat="45.82761" lon="4.26826">
        <ele>643.052</ele>
        <time>2018-09-10T15:11:24Z</time>
      </trkpt>
      <trkpt lat="45.82764" lon="4.26834">
        <ele>643.933</ele>
        <time>2018-09-10T15:11:29Z</time>
      </trkpt>
      <trkpt lat="45.82769" lon="4.26842">
        <ele>644.597</ele>
        <time>2018-09-10T15:11:35Z</time>
      </trkpt>
      <trkpt lat="45.82771" lon="4.26851">
        <ele>645.582</ele>
        <time>2018-09-10T15:11:41Z</time>
      </trkpt>
      <trkpt lat="45.82771" lon="4.26857">
        <ele>646.071</ele>
        <time>2018-09-10T15:11:46Z</time>
      </trkpt>
      <trkpt lat="45.82772" lon="4.26865">
        <ele>646.685</ele>
        <time>2018-09-10T15:11:52Z</time>
      </trkpt>
      <trkpt lat="45.82774" lon="4.26871">
        <ele>647.143</ele>
        <time>2018-09-10T15:11:57Z</time>
      </trkpt>
      <trkpt lat="45.82777" lon="4.26876">
        <ele>647.547</ele>
        <time>2018-09-10T15:12:02Z</time>
      </trkpt>
      <trkpt lat="45.82779" lon="4.26884">
        <ele>647.9</ele>
        <time>2018-09-10T15:12:07Z</time>
      </trkpt>
      <trkpt lat="45.8278" lon="4.26892">
        <ele>648.187</ele>
        <time>2018-09-10T15:12:13Z</time>
      </trkpt>
      <trkpt lat="45.82781" lon="4.26893">
        <ele>648.318</ele>
        <time>2018-09-10T15:12:19Z</time>
      </trkpt>
      <trkpt lat="45.82781" lon="4.26893">
        <ele>648.404</ele>
        <time>2018-09-10T15:12:24Z</time>
      </trkpt>
      <trkpt lat="45.82781" lon="4.26894">
        <ele>648.285</ele>
        <time>2018-09-10T15:12:30Z</time>
      </trkpt>
      <trkpt lat="45.82782" lon="4.26894">
        <ele>648.074</ele>
        <time>2018-09-10T15:12:35Z</time>
      </trkpt>
      <trkpt lat="45.82782" lon="4.26894">
        <ele>647.652</ele>
        <time>2018-09-10T15:12:40Z</time>
      </trkpt>
      <trkpt lat="45.82781" lon="4.26894">
        <ele>647.366</ele>
        <time>2018-09-10T15:12:46Z</time>
      </trkpt>
      <trkpt lat="45.8278" lon="4.26895">
        <ele>647.262</ele>
        <time>2018-09-10T15:12:52Z</time>
      </trkpt>
      <trkpt lat="45.82781" lon="4.26895">
        <ele>647.208</ele>
        <time>2018-09-10T15:12:58Z</time>
      </trkpt>
      <trkpt lat="45.82784" lon="4.26894">
        <ele>647.024</ele>
        <time>2018-09-10T15:13:04Z</time>
      </trkpt>
      <trkpt lat="45.82785" lon="4.26894">
        <ele>646.798</ele>
        <time>2018-09-10T15:13:10Z</time>
      </trkpt>
      <trkpt lat="45.82785" lon="4.26895">
        <ele>646.485</ele>
        <time>2018-09-10T15:13:16Z</time>
      </trkpt>
      <trkpt lat="45.82785" lon="4.26897">
        <ele>646.572</ele>
        <time>2018-09-10T15:13:22Z</time>
      </trkpt>
      <trkpt lat="45.82784" lon="4.26893">
        <ele>647.075</ele>
        <time>2018-09-10T15:13:28Z</time>
      </trkpt>
      <trkpt lat="45.82783" lon="4.26893">
        <ele>647.132</ele>
        <time>2018-09-10T15:13:33Z</time>
      </trkpt>
      <trkpt lat="45.82783" lon="4.2689">
        <ele>647.286</ele>
        <time>2018-09-10T15:13:39Z</time>
      </trkpt>
      <trkpt lat="45.82784" lon="4.26888">
        <ele>647.451</ele>
        <time>2018-09-10T15:13:45Z</time>
      </trkpt>
      <trkpt lat="45.82783" lon="4.26887">
        <ele>647.622</ele>
        <time>2018-09-10T15:13:50Z</time>
      </trkpt>
      <trkpt lat="45.82783" lon="4.26885">
        <ele>648.222</ele>
        <time>2018-09-10T15:13:55Z</time>
      </trkpt>
      <trkpt lat="45.82781" lon="4.26884">
        <ele>648.828</ele>
        <time>2018-09-10T15:14:01Z</time>
      </trkpt>
      <trkpt lat="45.8278" lon="4.26886">
        <ele>649.105</ele>
        <time>2018-09-10T15:14:06Z</time>
      </trkpt>
      <trkpt lat="45.82779" lon="4.26887">
        <ele>649.612</ele>
        <time>2018-09-10T15:14:12Z</time>
      </trkpt>
      <trkpt lat="45.82779" lon="4.26885">
        <ele>649.753</ele>
        <time>2018-09-10T15:14:18Z</time>
      </trkpt>
      <trkpt lat="45.82778" lon="4.26885">
        <ele>649.859</ele>
        <time>2018-09-10T15:14:23Z</time>
      </trkpt>
      <trkpt lat="45.82778" lon="4.26886">
        <ele>649.801</ele>
        <time>2018-09-10T15:14:29Z</time>
      </trkpt>
      <trkpt lat="45.82778" lon="4.26886">
        <ele>649.712</ele>
        <time>2018-09-10T15:14:35Z</time>
      </trkpt>
      <trkpt lat="45.82778" lon="4.26887">
        <ele>649.532</ele>
        <time>2018-09-10T15:14:40Z</time>
      </trkpt>
      <trkpt lat="45.82779" lon="4.26887">
        <ele>649.306</ele>
        <time>2018-09-10T15:14:45Z</time>
      </trkpt>
      <trkpt lat="45.8278" lon="4.26888">
        <ele>649.266</ele>
        <time>2018-09-10T15:14:50Z</time>
      </trkpt>
      <trkpt lat="45.82779" lon="4.26889">
        <ele>649.39</ele>
        <time>2018-09-10T15:14:55Z</time>
      </trkpt>
      <trkpt lat="45.82777" lon="4.2689">
        <ele>649.446</ele>
        <time>2018-09-10T15:15:01Z</time>
      </trkpt>
      <trkpt lat="45.82777" lon="4.2689">
        <ele>649.331</ele>
        <time>2018-09-10T15:15:07Z</time>
      </trkpt>
      <trkpt lat="45.82778" lon="4.26889">
        <ele>649.781</ele>
        <time>2018-09-10T15:15:12Z</time>
      </trkpt>
      <trkpt lat="45.82779" lon="4.26889">
        <ele>650.064</ele>
        <time>2018-09-10T15:15:18Z</time>
      </trkpt>
      <trkpt lat="45.82779" lon="4.26889">
        <ele>650.067</ele>
        <time>2018-09-10T15:15:23Z</time>
      </trkpt>
      <trkpt lat="45.8278" lon="4.26887">
        <ele>650.42</ele>
        <time>2018-09-10T15:15:29Z</time>
      </trkpt>
      <trkpt lat="45.82779" lon="4.26888">
        <ele>650.583</ele>
        <time>2018-09-10T15:15:35Z</time>
      </trkpt>
      <trkpt lat="45.8278" lon="4.26889">
        <ele>650.561</ele>
        <time>2018-09-10T15:15:40Z</time>
      </trkpt>
      <trkpt lat="45.82782" lon="4.26895">
        <ele>650.818</ele>
        <time>2018-09-10T15:15:45Z</time>
      </trkpt>
      <trkpt lat="45.82784" lon="4.26905">
        <ele>651.023</ele>
        <time>2018-09-10T15:15:51Z</time>
      </trkpt>
      <trkpt lat="45.82784" lon="4.26911">
        <ele>651.09</ele>
        <time>2018-09-10T15:15:56Z</time>
      </trkpt>
      <trkpt lat="45.82785" lon="4.26915">
        <ele>651.228</ele>
        <time>2018-09-10T15:16:01Z</time>
      </trkpt>
      <trkpt lat="45.82786" lon="4.26921">
        <ele>651.2</ele>
        <time>2018-09-10T15:16:06Z</time>
      </trkpt>
      <trkpt lat="45.82788" lon="4.26926">
        <ele>651.29</ele>
        <time>2018-09-10T15:16:12Z</time>
      </trkpt>
      <trkpt lat="45.8279" lon="4.26934">
        <ele>651.375</ele>
        <time>2018-09-10T15:16:18Z</time>
      </trkpt>
      <trkpt lat="45.82792" lon="4.26943">
        <ele>651.714</ele>
        <time>2018-09-10T15:16:23Z</time>
      </trkpt>
      <trkpt lat="45.82794" lon="4.26953">
        <ele>652.086</ele>
        <time>2018-09-10T15:16:28Z</time>
      </trkpt>
      <trkpt lat="45.82795" lon="4.2696">
        <ele>652.591</ele>
        <time>2018-09-10T15:16:34Z</time>
      </trkpt>
      <trkpt lat="45.82796" lon="4.26966">
        <ele>652.806</ele>
        <time>2018-09-10T15:16:39Z</time>
      </trkpt>
      <trkpt lat="45.82797" lon="4.26975">
        <ele>653.141</ele>
        <time>2018-09-10T15:16:44Z</time>
      </trkpt>
      <trkpt lat="45.82797" lon="4.26986">
        <ele>653.609</ele>
        <time>2018-09-10T15:16:50Z</time>
      </trkpt>
      <trkpt lat="45.82798" lon="4.26993">
        <ele>654.034</ele>
        <time>2018-09-10T15:16:55Z</time>
      </trkpt>
      <trkpt lat="45.82802" lon="4.27003">
        <ele>654.394</ele>
        <time>2018-09-10T15:17:01Z</time>
      </trkpt>
      <trkpt lat="45.82804" lon="4.27012">
        <ele>654.787</ele>
        <time>2018-09-10T15:17:07Z</time>
      </trkpt>
      <trkpt lat="45.82806" lon="4.27019">
        <ele>655.032</ele>
        <time>2018-09-10T15:17:12Z</time>
      </trkpt>
      <trkpt lat="45.82808" lon="4.2703">
        <ele>655.609</ele>
        <time>2018-09-10T15:17:18Z</time>
      </trkpt>
      <trkpt lat="45.82811" lon="4.27037">
        <ele>655.999</ele>
        <time>2018-09-10T15:17:23Z</time>
      </trkpt>
      <trkpt lat="45.82813" lon="4.27047">
        <ele>656.426</ele>
        <time>2018-09-10T15:17:29Z</time>
      </trkpt>
      <trkpt lat="45.82814" lon="4.27057">
        <ele>656.514</ele>
        <time>2018-09-10T15:17:35Z</time>
      </trkpt>
      <trkpt lat="45.82816" lon="4.27065">
        <ele>656.698</ele>
        <time>2018-09-10T15:17:40Z</time>
      </trkpt>
      <trkpt lat="45.82816" lon="4.27073">
        <ele>656.677</ele>
        <time>2018-09-10T15:17:46Z</time>
      </trkpt>
      <trkpt lat="45.82818" lon="4.27085">
        <ele>656.802</ele>
        <time>2018-09-10T15:17:52Z</time>
      </trkpt>
      <trkpt lat="45.82818" lon="4.27092">
        <ele>656.504</ele>
        <time>2018-09-10T15:17:58Z</time>
      </trkpt>
      <trkpt lat="45.82821" lon="4.27101">
        <ele>656.559</ele>
        <time>2018-09-10T15:18:03Z</time>
      </trkpt>
      <trkpt lat="45.82822" lon="4.27108">
        <ele>656.636</ele>
        <time>2018-09-10T15:18:09Z</time>
      </trkpt>
      <trkpt lat="45.82826" lon="4.27116">
        <ele>656.843</ele>
        <time>2018-09-10T15:18:14Z</time>
      </trkpt>
      <trkpt lat="45.8283" lon="4.27125">
        <ele>657.137</ele>
        <time>2018-09-10T15:18:20Z</time>
      </trkpt>
      <trkpt lat="45.82833" lon="4.27136">
        <ele>657.2</ele>
        <time>2018-09-10T15:18:26Z</time>
      </trkpt>
      <trkpt lat="45.82836" lon="4.27143">
        <ele>657.353</ele>
        <time>2018-09-10T15:18:32Z</time>
      </trkpt>
      <trkpt lat="45.82841" lon="4.27149">
        <ele>657.551</ele>
        <time>2018-09-10T15:18:37Z</time>
      </trkpt>
      <trkpt lat="45.82845" lon="4.27153">
        <ele>657.828</ele>
        <time>2018-09-10T15:18:43Z</time>
      </trkpt>
      <trkpt lat="45.8285" lon="4.27159">
        <ele>657.997</ele>
        <time>2018-09-10T15:18:48Z</time>
      </trkpt>
      <trkpt lat="45.82855" lon="4.27165">
        <ele>658.43</ele>
        <time>2018-09-10T15:18:54Z</time>
      </trkpt>
      <trkpt lat="45.82861" lon="4.27172">
        <ele>658.797</ele>
        <time>2018-09-10T15:19:00Z</time>
      </trkpt>
      <trkpt lat="45.82864" lon="4.27178">
        <ele>658.948</ele>
        <time>2018-09-10T15:19:05Z</time>
      </trkpt>
      <trkpt lat="45.8287" lon="4.27186">
        <ele>658.893</ele>
        <time>2018-09-10T15:19:11Z</time>
      </trkpt>
      <trkpt lat="45.82878" lon="4.27193">
        <ele>658.876</ele>
        <time>2018-09-10T15:19:17Z</time>
      </trkpt>
      <trkpt lat="45.82881" lon="4.27198">
        <ele>658.722</ele>
        <time>2018-09-10T15:19:22Z</time>
      </trkpt>
      <trkpt lat="45.82886" lon="4.27204">
        <ele>658.773</ele>
        <time>2018-09-10T15:19:28Z</time>
      </trkpt>
      <trkpt lat="45.82889" lon="4.27209">
        <ele>658.738</ele>
        <time>2018-09-10T15:19:33Z</time>
      </trkpt>
      <trkpt lat="45.82894" lon="4.27216">
        <ele>659.013</ele>
        <time>2018-09-10T15:19:39Z</time>
      </trkpt>
      <trkpt lat="45.82898" lon="4.27222">
        <ele>659.124</ele>
        <time>2018-09-10T15:19:45Z</time>
      </trkpt>
      <trkpt lat="45.82903" lon="4.27229">
        <ele>659.443</ele>
        <time>2018-09-10T15:19:50Z</time>
      </trkpt>
      <trkpt lat="45.82907" lon="4.27235">
        <ele>659.678</ele>
        <time>2018-09-10T15:19:56Z</time>
      </trkpt>
      <trkpt lat="45.82912" lon="4.27241">
        <ele>660.034</ele>
        <time>2018-09-10T15:20:02Z</time>
      </trkpt>
      <trkpt lat="45.82918" lon="4.27246">
        <ele>660.494</ele>
        <time>2018-09-10T15:20:08Z</time>
      </trkpt>
      <trkpt lat="45.82923" lon="4.2725">
        <ele>660.95</ele>
        <time>2018-09-10T15:20:13Z</time>
      </trkpt>
      <trkpt lat="45.82928" lon="4.27258">
        <ele>661.258</ele>
        <time>2018-09-10T15:20:19Z</time>
      </trkpt>
      <trkpt lat="45.82933" lon="4.27264">
        <ele>661.404</ele>
        <time>2018-09-10T15:20:24Z</time>
      </trkpt>
      <trkpt lat="45.82937" lon="4.2727">
        <ele>661.779</ele>
        <time>2018-09-10T15:20:29Z</time>
      </trkpt>
      <trkpt lat="45.82943" lon="4.27275">
        <ele>662.212</ele>
        <time>2018-09-10T15:20:35Z</time>
      </trkpt>
      <trkpt lat="45.82948" lon="4.27282">
        <ele>662.554</ele>
        <time>2018-09-10T15:20:40Z</time>
      </trkpt>
      <trkpt lat="45.82954" lon="4.27287">
        <ele>662.769</ele>
        <time>2018-09-10T15:20:45Z</time>
      </trkpt>
      <trkpt lat="45.82959" lon="4.2729">
        <ele>663.324</ele>
        <time>2018-09-10T15:20:50Z</time>
      </trkpt>
      <trkpt lat="45.82965" lon="4.27296">
        <ele>663.944</ele>
        <time>2018-09-10T15:20:56Z</time>
      </trkpt>
      <trkpt lat="45.82971" lon="4.273">
        <ele>664.446</ele>
        <time>2018-09-10T15:21:02Z</time>
      </trkpt>
      <trkpt lat="45.82975" lon="4.27308">
        <ele>665.284</ele>
        <time>2018-09-10T15:21:08Z</time>
      </trkpt>
      <trkpt lat="45.8298" lon="4.27313">
        <ele>666.17</ele>
        <time>2018-09-10T15:21:14Z</time>
      </trkpt>
      <trkpt lat="45.82985" lon="4.2732">
        <ele>666.831</ele>
        <time>2018-09-10T15:21:20Z</time>
      </trkpt>
      <trkpt lat="45.8299" lon="4.27325">
        <ele>667.348</ele>
        <time>2018-09-10T15:21:25Z</time>
      </trkpt>
      <trkpt lat="45.82994" lon="4.27331">
        <ele>667.888</ele>
        <time>2018-09-10T15:21:31Z</time>
      </trkpt>
      <trkpt lat="45.82997" lon="4.27337">
        <ele>668.193</ele>
        <time>2018-09-10T15:21:36Z</time>
      </trkpt>
      <trkpt lat="45.83001" lon="4.27344">
        <ele>668.681</ele>
        <time>2018-09-10T15:21:42Z</time>
      </trkpt>
      <trkpt lat="45.83005" lon="4.27351">
        <ele>669.151</ele>
        <time>2018-09-10T15:21:47Z</time>
      </trkpt>
      <trkpt lat="45.83008" lon="4.27354">
        <ele>669.472</ele>
        <time>2018-09-10T15:21:52Z</time>
      </trkpt>
      <trkpt lat="45.83011" lon="4.27356">
        <ele>669.933</ele>
        <time>2018-09-10T15:21:58Z</time>
      </trkpt>
      <trkpt lat="45.83015" lon="4.2736">
        <ele>670.32</ele>
        <time>2018-09-10T15:22:03Z</time>
      </trkpt>
      <trkpt lat="45.8302" lon="4.27364">
        <ele>670.723</ele>
        <time>2018-09-10T15:22:09Z</time>
      </trkpt>
      <trkpt lat="45.83025" lon="4.27368">
        <ele>670.823</ele>
        <time>2018-09-10T15:22:14Z</time>
      </trkpt>
      <trkpt lat="45.83029" lon="4.27371">
        <ele>670.85</ele>
        <time>2018-09-10T15:22:19Z</time>
      </trkpt>
      <trkpt lat="45.83034" lon="4.27376">
        <ele>670.87</ele>
        <time>2018-09-10T15:22:25Z</time>
      </trkpt>
      <trkpt lat="45.83041" lon="4.27382">
        <ele>670.946</ele>
        <time>2018-09-10T15:22:31Z</time>
      </trkpt>
      <trkpt lat="45.83047" lon="4.27386">
        <ele>671.246</ele>
        <time>2018-09-10T15:22:36Z</time>
      </trkpt>
      <trkpt lat="45.83051" lon="4.27388">
        <ele>671.568</ele>
        <time>2018-09-10T15:22:41Z</time>
      </trkpt>
      <trkpt lat="45.83058" lon="4.27391">
        <ele>671.771</ele>
        <time>2018-09-10T15:22:47Z</time>
      </trkpt>
      <trkpt lat="45.83062" lon="4.27394">
        <ele>672.152</ele>
        <time>2018-09-10T15:22:52Z</time>
      </trkpt>
      <trkpt lat="45.83062" lon="4.27395">
        <ele>672.777</ele>
        <time>2018-09-10T15:22:58Z</time>
      </trkpt>
      <trkpt lat="45.83061" lon="4.27394">
        <ele>673.433</ele>
        <time>2018-09-10T15:23:04Z</time>
      </trkpt>
      <trkpt lat="45.83061" lon="4.27394">
        <ele>674.146</ele>
        <time>2018-09-10T15:23:10Z</time>
      </trkpt>
      <trkpt lat="45.83068" lon="4.27397">
        <ele>674.583</ele>
        <time>2018-09-10T15:23:15Z</time>
      </trkpt>
      <trkpt lat="45.83075" lon="4.274">
        <ele>675.232</ele>
        <time>2018-09-10T15:23:21Z</time>
      </trkpt>
      <trkpt lat="45.8308" lon="4.27403">
        <ele>675.75</ele>
        <time>2018-09-10T15:23:26Z</time>
      </trkpt>
      <trkpt lat="45.83085" lon="4.27408">
        <ele>676.714</ele>
        <time>2018-09-10T15:23:32Z</time>
      </trkpt>
      <trkpt lat="45.83091" lon="4.27411">
        <ele>677.3</ele>
        <time>2018-09-10T15:23:38Z</time>
      </trkpt>
      <trkpt lat="45.83096" lon="4.27416">
        <ele>678.138</ele>
        <time>2018-09-10T15:23:44Z</time>
      </trkpt>
      <trkpt lat="45.83102" lon="4.27422">
        <ele>679.025</ele>
        <time>2018-09-10T15:23:50Z</time>
      </trkpt>
      <trkpt lat="45.83109" lon="4.27428">
        <ele>679.341</ele>
        <time>2018-09-10T15:23:55Z</time>
      </trkpt>
      <trkpt lat="45.83114" lon="4.2743">
        <ele>679.84</ele>
        <time>2018-09-10T15:24:00Z</time>
      </trkpt>
      <trkpt lat="45.83119" lon="4.27433">
        <ele>680.463</ele>
        <time>2018-09-10T15:24:05Z</time>
      </trkpt>
      <trkpt lat="45.83125" lon="4.27438">
        <ele>680.919</ele>
        <time>2018-09-10T15:24:11Z</time>
      </trkpt>
      <trkpt lat="45.83129" lon="4.27441">
        <ele>680.73</ele>
        <time>2018-09-10T15:24:17Z</time>
      </trkpt>
      <trkpt lat="45.83135" lon="4.27445">
        <ele>680.677</ele>
        <time>2018-09-10T15:24:22Z</time>
      </trkpt>
      <trkpt lat="45.8314" lon="4.27449">
        <ele>680.826</ele>
        <time>2018-09-10T15:24:28Z</time>
      </trkpt>
      <trkpt lat="45.83146" lon="4.27454">
        <ele>680.998</ele>
        <time>2018-09-10T15:24:33Z</time>
      </trkpt>
      <trkpt lat="45.83153" lon="4.27456">
        <ele>681.072</ele>
        <time>2018-09-10T15:24:39Z</time>
      </trkpt>
      <trkpt lat="45.83157" lon="4.27456">
        <ele>681.225</ele>
        <time>2018-09-10T15:24:44Z</time>
      </trkpt>
      <trkpt lat="45.83164" lon="4.27458">
        <ele>681.136</ele>
        <time>2018-09-10T15:24:50Z</time>
      </trkpt>
      <trkpt lat="45.83169" lon="4.27461">
        <ele>681.046</ele>
        <time>2018-09-10T15:24:55Z</time>
      </trkpt>
      <trkpt lat="45.83172" lon="4.27462">
        <ele>681.014</ele>
        <time>2018-09-10T15:25:01Z</time>
      </trkpt>
      <trkpt lat="45.83169" lon="4.27462">
        <ele>680.226</ele>
        <time>2018-09-10T15:25:06Z</time>
      </trkpt>
      <trkpt lat="45.83167" lon="4.27462">
        <ele>680.15</ele>
        <time>2018-09-10T15:25:12Z</time>
      </trkpt>
      <trkpt lat="45.83167" lon="4.27461">
        <ele>679.964</ele>
        <time>2018-09-10T15:25:18Z</time>
      </trkpt>
      <trkpt lat="45.83167" lon="4.27461">
        <ele>679.882</ele>
        <time>2018-09-10T15:25:23Z</time>
      </trkpt>
      <trkpt lat="45.83167" lon="4.27459">
        <ele>679.092</ele>
        <time>2018-09-10T15:25:29Z</time>
      </trkpt>
      <trkpt lat="45.83167" lon="4.27458">
        <ele>678.256</ele>
        <time>2018-09-10T15:25:34Z</time>
      </trkpt>
      <trkpt lat="45.83166" lon="4.27455">
        <ele>677.404</ele>
        <time>2018-09-10T15:25:40Z</time>
      </trkpt>
      <trkpt lat="45.83166" lon="4.27455">
        <ele>676.418</ele>
        <time>2018-09-10T15:25:45Z</time>
      </trkpt>
      <trkpt lat="45.83168" lon="4.27456">
        <ele>676.357</ele>
        <time>2018-09-10T15:25:51Z</time>
      </trkpt>
      <trkpt lat="45.8317" lon="4.27457">
        <ele>676.326</ele>
        <time>2018-09-10T15:25:56Z</time>
      </trkpt>
      <trkpt lat="45.83171" lon="4.2746">
        <ele>676.298</ele>
        <time>2018-09-10T15:26:02Z</time>
      </trkpt>
      <trkpt lat="45.83171" lon="4.27462">
        <ele>676.364</ele>
        <time>2018-09-10T15:26:08Z</time>
      </trkpt>
      <trkpt lat="45.83171" lon="4.27462">
        <ele>676.458</ele>
        <time>2018-09-10T15:26:13Z</time>
      </trkpt>
      <trkpt lat="45.83172" lon="4.27462">
        <ele>676.479</ele>
        <time>2018-09-10T15:26:19Z</time>
      </trkpt>
      <trkpt lat="45.83172" lon="4.2746">
        <ele>676.601</ele>
        <time>2018-09-10T15:26:24Z</time>
      </trkpt>
      <trkpt lat="45.83174" lon="4.27461">
        <ele>676.354</ele>
        <time>2018-09-10T15:26:30Z</time>
      </trkpt>
      <trkpt lat="45.83175" lon="4.27463">
        <ele>675.792</ele>
        <time>2018-09-10T15:26:36Z</time>
      </trkpt>
      <trkpt lat="45.83181" lon="4.27466">
        <ele>675.687</ele>
        <time>2018-09-10T15:26:41Z</time>
      </trkpt>
      <trkpt lat="45.83185" lon="4.27467">
        <ele>676.092</ele>
        <time>2018-09-10T15:26:47Z</time>
      </trkpt>
      <trkpt lat="45.83188" lon="4.27467">
        <ele>676.43</ele>
        <time>2018-09-10T15:26:52Z</time>
      </trkpt>
      <trkpt lat="45.83192" lon="4.27469">
        <ele>676.349</ele>
        <time>2018-09-10T15:26:58Z</time>
      </trkpt>
      <trkpt lat="45.83196" lon="4.27469">
        <ele>676.386</ele>
        <time>2018-09-10T15:27:03Z</time>
      </trkpt>
      <trkpt lat="45.83201" lon="4.2747">
        <ele>676.476</ele>
        <time>2018-09-10T15:27:08Z</time>
      </trkpt>
      <trkpt lat="45.8321" lon="4.27472">
        <ele>676.89</ele>
        <time>2018-09-10T15:27:15Z</time>
      </trkpt>
      <trkpt lat="45.83216" lon="4.27473">
        <ele>677.184</ele>
        <time>2018-09-10T15:27:21Z</time>
      </trkpt>
      <trkpt lat="45.83222" lon="4.27474">
        <ele>677.018</ele>
        <time>2018-09-10T15:27:27Z</time>
      </trkpt>
      <trkpt lat="45.83228" lon="4.27474">
        <ele>678.095</ele>
        <time>2018-09-10T15:27:33Z</time>
      </trkpt>
      <trkpt lat="45.83233" lon="4.27474">
        <ele>679.091</ele>
        <time>2018-09-10T15:27:39Z</time>
      </trkpt>
      <trkpt lat="45.83238" lon="4.27475">
        <ele>679.229</ele>
        <time>2018-09-10T15:27:44Z</time>
      </trkpt>
      <trkpt lat="45.83241" lon="4.27476">
        <ele>679.689</ele>
        <time>2018-09-10T15:27:49Z</time>
      </trkpt>
      <trkpt lat="45.83245" lon="4.27477">
        <ele>680.419</ele>
        <time>2018-09-10T15:27:55Z</time>
      </trkpt>
      <trkpt lat="45.8325" lon="4.27478">
        <ele>680.821</ele>
        <time>2018-09-10T15:28:01Z</time>
      </trkpt>
      <trkpt lat="45.83255" lon="4.27479">
        <ele>680.903</ele>
        <time>2018-09-10T15:28:06Z</time>
      </trkpt>
      <trkpt lat="45.83261" lon="4.27481">
        <ele>681.273</ele>
        <time>2018-09-10T15:28:12Z</time>
      </trkpt>
      <trkpt lat="45.83264" lon="4.27483">
        <ele>681.452</ele>
        <time>2018-09-10T15:28:17Z</time>
      </trkpt>
      <trkpt lat="45.8327" lon="4.27486">
        <ele>681.633</ele>
        <time>2018-09-10T15:28:23Z</time>
      </trkpt>
      <trkpt lat="45.83273" lon="4.27486">
        <ele>682.256</ele>
        <time>2018-09-10T15:28:29Z</time>
      </trkpt>
      <trkpt lat="45.83276" lon="4.27481">
        <ele>682.319</ele>
        <time>2018-09-10T15:28:34Z</time>
      </trkpt>
      <trkpt lat="45.83278" lon="4.27475">
        <ele>682.18</ele>
        <time>2018-09-10T15:28:39Z</time>
      </trkpt>
      <trkpt lat="45.83281" lon="4.27468">
        <ele>682.077</ele>
        <time>2018-09-10T15:28:45Z</time>
      </trkpt>
      <trkpt lat="45.83285" lon="4.2746">
        <ele>682.145</ele>
        <time>2018-09-10T15:28:51Z</time>
      </trkpt>
      <trkpt lat="45.8329" lon="4.27454">
        <ele>682.644</ele>
        <time>2018-09-10T15:28:56Z</time>
      </trkpt>
      <trkpt lat="45.83295" lon="4.27452">
        <ele>683.092</ele>
        <time>2018-09-10T15:29:02Z</time>
      </trkpt>
      <trkpt lat="45.83299" lon="4.27449">
        <ele>683.593</ele>
        <time>2018-09-10T15:29:07Z</time>
      </trkpt>
      <trkpt lat="45.83302" lon="4.27446">
        <ele>684.08</ele>
        <time>2018-09-10T15:29:12Z</time>
      </trkpt>
      <trkpt lat="45.83305" lon="4.27442">
        <ele>684.557</ele>
        <time>2018-09-10T15:29:18Z</time>
      </trkpt>
      <trkpt lat="45.83311" lon="4.27434">
        <ele>684.929</ele>
        <time>2018-09-10T15:29:24Z</time>
      </trkpt>
      <trkpt lat="45.83314" lon="4.27431">
        <ele>685.295</ele>
        <time>2018-09-10T15:29:30Z</time>
      </trkpt>
      <trkpt lat="45.8332" lon="4.27425">
        <ele>685.636</ele>
        <time>2018-09-10T15:29:35Z</time>
      </trkpt>
      <trkpt lat="45.83325" lon="4.2742">
        <ele>686.048</ele>
        <time>2018-09-10T15:29:41Z</time>
      </trkpt>
      <trkpt lat="45.83331" lon="4.27416">
        <ele>685.945</ele>
        <time>2018-09-10T15:29:47Z</time>
      </trkpt>
      <trkpt lat="45.83335" lon="4.27413">
        <ele>685.51</ele>
        <time>2018-09-10T15:29:53Z</time>
      </trkpt>
      <trkpt lat="45.83341" lon="4.2741">
        <ele>685.432</ele>
        <time>2018-09-10T15:29:58Z</time>
      </trkpt>
      <trkpt lat="45.83346" lon="4.27406">
        <ele>685.724</ele>
        <time>2018-09-10T15:30:03Z</time>
      </trkpt>
      <trkpt lat="45.83351" lon="4.27403">
        <ele>685.55</ele>
        <time>2018-09-10T15:30:09Z</time>
      </trkpt>
      <trkpt lat="45.83356" lon="4.274">
        <ele>685.086</ele>
        <time>2018-09-10T15:30:14Z</time>
      </trkpt>
      <trkpt lat="45.8336" lon="4.27398">
        <ele>684.897</ele>
        <time>2018-09-10T15:30:19Z</time>
      </trkpt>
      <trkpt lat="45.83366" lon="4.27395">
        <ele>684.547</ele>
        <time>2018-09-10T15:30:25Z</time>
      </trkpt>
      <trkpt lat="45.83372" lon="4.27392">
        <ele>684.267</ele>
        <time>2018-09-10T15:30:30Z</time>
      </trkpt>
      <trkpt lat="45.83378" lon="4.27389">
        <ele>683.709</ele>
        <time>2018-09-10T15:30:36Z</time>
      </trkpt>
      <trkpt lat="45.83382" lon="4.27387">
        <ele>683.324</ele>
        <time>2018-09-10T15:30:42Z</time>
      </trkpt>
      <trkpt lat="45.83388" lon="4.27384">
        <ele>682.531</ele>
        <time>2018-09-10T15:30:48Z</time>
      </trkpt>
      <trkpt lat="45.83396" lon="4.27381">
        <ele>681.738</ele>
        <time>2018-09-10T15:30:54Z</time>
      </trkpt>
      <trkpt lat="45.83401" lon="4.27378">
        <ele>681.307</ele>
        <time>2018-09-10T15:31:00Z</time>
      </trkpt>
      <trkpt lat="45.83403" lon="4.27376">
        <ele>680.392</ele>
        <time>2018-09-10T15:31:05Z</time>
      </trkpt>
      <trkpt lat="45.8341" lon="4.27372">
        <ele>679.342</ele>
        <time>2018-09-10T15:31:11Z</time>
      </trkpt>
      <trkpt lat="45.83415" lon="4.27369">
        <ele>678.88</ele>
        <time>2018-09-10T15:31:17Z</time>
      </trkpt>
      <trkpt lat="45.83419" lon="4.27367">
        <ele>678.024</ele>
        <time>2018-09-10T15:31:22Z</time>
      </trkpt>
      <trkpt lat="45.83423" lon="4.27365">
        <ele>677.328</ele>
        <time>2018-09-10T15:31:27Z</time>
      </trkpt>
      <trkpt lat="45.83429" lon="4.27362">
        <ele>676.094</ele>
        <time>2018-09-10T15:31:33Z</time>
      </trkpt>
      <trkpt lat="45.83434" lon="4.27359">
        <ele>674.624</ele>
        <time>2018-09-10T15:31:39Z</time>
      </trkpt>
      <trkpt lat="45.83438" lon="4.27357">
        <ele>673.489</ele>
        <time>2018-09-10T15:31:44Z</time>
      </trkpt>
      <trkpt lat="45.83444" lon="4.2735">
        <ele>672.007</ele>
        <time>2018-09-10T15:31:50Z</time>
      </trkpt>
      <trkpt lat="45.83448" lon="4.27347">
        <ele>670.756</ele>
        <time>2018-09-10T15:31:56Z</time>
      </trkpt>
      <trkpt lat="45.83452" lon="4.27342">
        <ele>669.391</ele>
        <time>2018-09-10T15:32:02Z</time>
      </trkpt>
      <trkpt lat="45.83458" lon="4.27338">
        <ele>667.875</ele>
        <time>2018-09-10T15:32:08Z</time>
      </trkpt>
      <trkpt lat="45.83462" lon="4.27336">
        <ele>666.798</ele>
        <time>2018-09-10T15:32:13Z</time>
      </trkpt>
      <trkpt lat="45.83468" lon="4.27333">
        <ele>665.738</ele>
        <time>2018-09-10T15:32:18Z</time>
      </trkpt>
      <trkpt lat="45.83475" lon="4.2733">
        <ele>664.221</ele>
        <time>2018-09-10T15:32:24Z</time>
      </trkpt>
      <trkpt lat="45.83477" lon="4.27326">
        <ele>663.03</ele>
        <time>2018-09-10T15:32:29Z</time>
      </trkpt>
      <trkpt lat="45.83482" lon="4.27322">
        <ele>662.163</ele>
        <time>2018-09-10T15:32:34Z</time>
      </trkpt>
      <trkpt lat="45.83488" lon="4.27319">
        <ele>660.931</ele>
        <time>2018-09-10T15:32:40Z</time>
      </trkpt>
      <trkpt lat="45.83493" lon="4.27315">
        <ele>659.922</ele>
        <time>2018-09-10T15:32:45Z</time>
      </trkpt>
      <trkpt lat="45.83496" lon="4.27307">
        <ele>658.828</ele>
        <time>2018-09-10T15:32:50Z</time>
      </trkpt>
      <trkpt lat="45.835" lon="4.27301">
        <ele>658.004</ele>
        <time>2018-09-10T15:32:56Z</time>
      </trkpt>
      <trkpt lat="45.83502" lon="4.27294">
        <ele>657.681</ele>
        <time>2018-09-10T15:33:02Z</time>
      </trkpt>
      <trkpt lat="45.83502" lon="4.27286">
        <ele>657.109</ele>
        <time>2018-09-10T15:33:08Z</time>
      </trkpt>
      <trkpt lat="45.835" lon="4.27277">
        <ele>656.75</ele>
        <time>2018-09-10T15:33:13Z</time>
      </trkpt>
      <trkpt lat="45.83499" lon="4.27268">
        <ele>656.747</ele>
        <time>2018-09-10T15:33:19Z</time>
      </trkpt>
      <trkpt lat="45.83496" lon="4.27262">
        <ele>656.171</ele>
        <time>2018-09-10T15:33:25Z</time>
      </trkpt>
      <trkpt lat="45.83493" lon="4.27254">
        <ele>655.594</ele>
        <time>2018-09-10T15:33:31Z</time>
      </trkpt>
      <trkpt lat="45.83491" lon="4.2725">
        <ele>654.51</ele>
        <time>2018-09-10T15:33:37Z</time>
      </trkpt>
      <trkpt lat="45.83489" lon="4.27244">
        <ele>654.145</ele>
        <time>2018-09-10T15:33:42Z</time>
      </trkpt>
      <trkpt lat="45.83485" lon="4.27241">
        <ele>653.789</ele>
        <time>2018-09-10T15:33:47Z</time>
      </trkpt>
      <trkpt lat="45.83482" lon="4.2723">
        <ele>653.315</ele>
        <time>2018-09-10T15:33:53Z</time>
      </trkpt>
      <trkpt lat="45.83482" lon="4.27222">
        <ele>652.772</ele>
        <time>2018-09-10T15:33:58Z</time>
      </trkpt>
      <trkpt lat="45.83483" lon="4.2722">
        <ele>652.441</ele>
        <time>2018-09-10T15:34:04Z</time>
      </trkpt>
      <trkpt lat="45.83488" lon="4.27217">
        <ele>651.11</ele>
        <time>2018-09-10T15:34:10Z</time>
      </trkpt>
      <trkpt lat="45.83494" lon="4.27214">
        <ele>650.031</ele>
        <time>2018-09-10T15:34:15Z</time>
      </trkpt>
      <trkpt lat="45.835" lon="4.27213">
        <ele>649.267</ele>
        <time>2018-09-10T15:34:20Z</time>
      </trkpt>
      <trkpt lat="45.83505" lon="4.27212">
        <ele>648.855</ele>
        <time>2018-09-10T15:34:25Z</time>
      </trkpt>
      <trkpt lat="45.8351" lon="4.27207">
        <ele>648.023</ele>
        <time>2018-09-10T15:34:31Z</time>
      </trkpt>
      <trkpt lat="45.83515" lon="4.27202">
        <ele>647.274</ele>
        <time>2018-09-10T15:34:36Z</time>
      </trkpt>
      <trkpt lat="45.8352" lon="4.27196">
        <ele>646.274</ele>
        <time>2018-09-10T15:34:42Z</time>
      </trkpt>
      <trkpt lat="45.83523" lon="4.27193">
        <ele>645.544</ele>
        <time>2018-09-10T15:34:48Z</time>
      </trkpt>
      <trkpt lat="45.83528" lon="4.27186">
        <ele>644.794</ele>
        <time>2018-09-10T15:34:54Z</time>
      </trkpt>
      <trkpt lat="45.83532" lon="4.27178">
        <ele>644.163</ele>
        <time>2018-09-10T15:35:00Z</time>
      </trkpt>
      <trkpt lat="45.83535" lon="4.27172">
        <ele>643.113</ele>
        <time>2018-09-10T15:35:06Z</time>
      </trkpt>
      <trkpt lat="45.83538" lon="4.27166">
        <ele>642.248</ele>
        <time>2018-09-10T15:35:11Z</time>
      </trkpt>
      <trkpt lat="45.83544" lon="4.27165">
        <ele>641.566</ele>
        <time>2018-09-10T15:35:17Z</time>
      </trkpt>
      <trkpt lat="45.83548" lon="4.27163">
        <ele>641.222</ele>
        <time>2018-09-10T15:35:23Z</time>
      </trkpt>
      <trkpt lat="45.8355" lon="4.27158">
        <ele>640.863</ele>
        <time>2018-09-10T15:35:28Z</time>
      </trkpt>
      <trkpt lat="45.83553" lon="4.27151">
        <ele>640.627</ele>
        <time>2018-09-10T15:35:34Z</time>
      </trkpt>
      <trkpt lat="45.83558" lon="4.27148">
        <ele>640.834</ele>
        <time>2018-09-10T15:35:40Z</time>
      </trkpt>
      <trkpt lat="45.83562" lon="4.27146">
        <ele>641.4</ele>
        <time>2018-09-10T15:35:45Z</time>
      </trkpt>
      <trkpt lat="45.83564" lon="4.27146">
        <ele>641.876</ele>
        <time>2018-09-10T15:35:51Z</time>
      </trkpt>
      <trkpt lat="45.83563" lon="4.27146">
        <ele>642.142</ele>
        <time>2018-09-10T15:35:57Z</time>
      </trkpt>
      <trkpt lat="45.83558" lon="4.27145">
        <ele>642.117</ele>
        <time>2018-09-10T15:36:02Z</time>
      </trkpt>
      <trkpt lat="45.83555" lon="4.27146">
        <ele>642.163</ele>
        <time>2018-09-10T15:36:08Z</time>
      </trkpt>
      <trkpt lat="45.83551" lon="4.27147">
        <ele>642.437</ele>
        <time>2018-09-10T15:36:14Z</time>
      </trkpt>
      <trkpt lat="45.83548" lon="4.27142">
        <ele>642.868</ele>
        <time>2018-09-10T15:36:19Z</time>
      </trkpt>
      <trkpt lat="45.83548" lon="4.27131">
        <ele>642.414</ele>
        <time>2018-09-10T15:36:25Z</time>
      </trkpt>
      <trkpt lat="45.8355" lon="4.27125">
        <ele>641.532</ele>
        <time>2018-09-10T15:36:30Z</time>
      </trkpt>
      <trkpt lat="45.83551" lon="4.27117">
        <ele>640.787</ele>
        <time>2018-09-10T15:36:35Z</time>
      </trkpt>
      <trkpt lat="45.83551" lon="4.27109">
        <ele>640.392</ele>
        <time>2018-09-10T15:36:41Z</time>
      </trkpt>
      <trkpt lat="45.83551" lon="4.27102">
        <ele>639.964</ele>
        <time>2018-09-10T15:36:47Z</time>
      </trkpt>
      <trkpt lat="45.83552" lon="4.27093">
        <ele>639.287</ele>
        <time>2018-09-10T15:36:52Z</time>
      </trkpt>
      <trkpt lat="45.83554" lon="4.27087">
        <ele>638.478</ele>
        <time>2018-09-10T15:36:58Z</time>
      </trkpt>
      <trkpt lat="45.83555" lon="4.2708">
        <ele>637.949</ele>
        <time>2018-09-10T15:37:03Z</time>
      </trkpt>
      <trkpt lat="45.83554" lon="4.27072">
        <ele>637.657</ele>
        <time>2018-09-10T15:37:09Z</time>
      </trkpt>
      <trkpt lat="45.83554" lon="4.27065">
        <ele>637.641</ele>
        <time>2018-09-10T15:37:14Z</time>
      </trkpt>
      <trkpt lat="45.83553" lon="4.27055">
        <ele>637.46</ele>
        <time>2018-09-10T15:37:20Z</time>
      </trkpt>
      <trkpt lat="45.83554" lon="4.27049">
        <ele>637.264</ele>
        <time>2018-09-10T15:37:25Z</time>
      </trkpt>
      <trkpt lat="45.83555" lon="4.2704">
        <ele>637.121</ele>
        <time>2018-09-10T15:37:30Z</time>
      </trkpt>
      <trkpt lat="45.83558" lon="4.27035">
        <ele>637.142</ele>
        <time>2018-09-10T15:37:35Z</time>
      </trkpt>
      <trkpt lat="45.83561" lon="4.2703">
        <ele>637.167</ele>
        <time>2018-09-10T15:37:40Z</time>
      </trkpt>
      <trkpt lat="45.83563" lon="4.27026">
        <ele>637.2</ele>
        <time>2018-09-10T15:37:45Z</time>
      </trkpt>
      <trkpt lat="45.83564" lon="4.27018">
        <ele>637.34</ele>
        <time>2018-09-10T15:37:50Z</time>
      </trkpt>
      <trkpt lat="45.83567" lon="4.27012">
        <ele>637.161</ele>
        <time>2018-09-10T15:37:56Z</time>
      </trkpt>
      <trkpt lat="45.83566" lon="4.27011">
        <ele>637.162</ele>
        <time>2018-09-10T15:38:02Z</time>
      </trkpt>
      <trkpt lat="45.83565" lon="4.27009">
        <ele>637.374</ele>
        <time>2018-09-10T15:38:07Z</time>
      </trkpt>
      <trkpt lat="45.83563" lon="4.27006">
        <ele>637.6</ele>
        <time>2018-09-10T15:38:12Z</time>
      </trkpt>
      <trkpt lat="45.83563" lon="4.27006">
        <ele>637.522</ele>
        <time>2018-09-10T15:38:17Z</time>
      </trkpt>
      <trkpt lat="45.83563" lon="4.27008">
        <ele>636.927</ele>
        <time>2018-09-10T15:38:22Z</time>
      </trkpt>
      <trkpt lat="45.83565" lon="4.27008">
        <ele>636.549</ele>
        <time>2018-09-10T15:38:27Z</time>
      </trkpt>
      <trkpt lat="45.83566" lon="4.27007">
        <ele>636.316</ele>
        <time>2018-09-10T15:38:33Z</time>
      </trkpt>
      <trkpt lat="45.83566" lon="4.27007">
        <ele>635.642</ele>
        <time>2018-09-10T15:38:39Z</time>
      </trkpt>
      <trkpt lat="45.83566" lon="4.27004">
        <ele>635.311</ele>
        <time>2018-09-10T15:38:44Z</time>
      </trkpt>
      <trkpt lat="45.8357" lon="4.26997">
        <ele>635.162</ele>
        <time>2018-09-10T15:38:50Z</time>
      </trkpt>
      <trkpt lat="45.83573" lon="4.26991">
        <ele>635.33</ele>
        <time>2018-09-10T15:38:55Z</time>
      </trkpt>
      <trkpt lat="45.83577" lon="4.26983">
        <ele>635.333</ele>
        <time>2018-09-10T15:39:01Z</time>
      </trkpt>
      <trkpt lat="45.83579" lon="4.26975">
        <ele>635.054</ele>
        <time>2018-09-10T15:39:07Z</time>
      </trkpt>
      <trkpt lat="45.83579" lon="4.26966">
        <ele>634.896</ele>
        <time>2018-09-10T15:39:13Z</time>
      </trkpt>
      <trkpt lat="45.83583" lon="4.2696">
        <ele>635.207</ele>
        <time>2018-09-10T15:39:19Z</time>
      </trkpt>
      <trkpt lat="45.83588" lon="4.26956">
        <ele>635.539</ele>
        <time>2018-09-10T15:39:25Z</time>
      </trkpt>
      <trkpt lat="45.83595" lon="4.26953">
        <ele>636.182</ele>
        <time>2018-09-10T15:39:31Z</time>
      </trkpt>
      <trkpt lat="45.83599" lon="4.26951">
        <ele>636.809</ele>
        <time>2018-09-10T15:39:36Z</time>
      </trkpt>
      <trkpt lat="45.83602" lon="4.26947">
        <ele>637.334</ele>
        <time>2018-09-10T15:39:41Z</time>
      </trkpt>
      <trkpt lat="45.83606" lon="4.2694">
        <ele>637.547</ele>
        <time>2018-09-10T15:39:46Z</time>
      </trkpt>
      <trkpt lat="45.83609" lon="4.26935">
        <ele>637.72</ele>
        <time>2018-09-10T15:39:51Z</time>
      </trkpt>
      <trkpt lat="45.83615" lon="4.26932">
        <ele>637.455</ele>
        <time>2018-09-10T15:39:56Z</time>
      </trkpt>
      <trkpt lat="45.83622" lon="4.26926">
        <ele>637.25</ele>
        <time>2018-09-10T15:40:02Z</time>
      </trkpt>
      <trkpt lat="45.83627" lon="4.26925">
        <ele>637.026</ele>
        <time>2018-09-10T15:40:07Z</time>
      </trkpt>
      <trkpt lat="45.83628" lon="4.26928">
        <ele>636.986</ele>
        <time>2018-09-10T15:40:12Z</time>
      </trkpt>
      <trkpt lat="45.83633" lon="4.26926">
        <ele>637.26</ele>
        <time>2018-09-10T15:40:17Z</time>
      </trkpt>
      <trkpt lat="45.83638" lon="4.26923">
        <ele>637.465</ele>
        <time>2018-09-10T15:40:23Z</time>
      </trkpt>
      <trkpt lat="45.83646" lon="4.2692">
        <ele>637.74</ele>
        <time>2018-09-10T15:40:29Z</time>
      </trkpt>
      <trkpt lat="45.83651" lon="4.26918">
        <ele>638.276</ele>
        <time>2018-09-10T15:40:34Z</time>
      </trkpt>
      <trkpt lat="45.83659" lon="4.26915">
        <ele>639.565</ele>
        <time>2018-09-10T15:40:40Z</time>
      </trkpt>
      <trkpt lat="45.83662" lon="4.26913">
        <ele>640.236</ele>
        <time>2018-09-10T15:40:45Z</time>
      </trkpt>
      <trkpt lat="45.83665" lon="4.26916">
        <ele>641.12</ele>
        <time>2018-09-10T15:40:51Z</time>
      </trkpt>
      <trkpt lat="45.83668" lon="4.26914">
        <ele>641.714</ele>
        <time>2018-09-10T15:40:56Z</time>
      </trkpt>
      <trkpt lat="45.8367" lon="4.26912">
        <ele>641.9</ele>
        <time>2018-09-10T15:41:02Z</time>
      </trkpt>
      <trkpt lat="45.83673" lon="4.26907">
        <ele>642.351</ele>
        <time>2018-09-10T15:41:08Z</time>
      </trkpt>
      <trkpt lat="45.83675" lon="4.26899">
        <ele>642.855</ele>
        <time>2018-09-10T15:41:14Z</time>
      </trkpt>
      <trkpt lat="45.8368" lon="4.26893">
        <ele>642.694</ele>
        <time>2018-09-10T15:41:20Z</time>
      </trkpt>
      <trkpt lat="45.83687" lon="4.26893">
        <ele>642.596</ele>
        <time>2018-09-10T15:41:25Z</time>
      </trkpt>
      <trkpt lat="45.83692" lon="4.26886">
        <ele>642.58</ele>
        <time>2018-09-10T15:41:31Z</time>
      </trkpt>
      <trkpt lat="45.83694" lon="4.26879">
        <ele>642.566</ele>
        <time>2018-09-10T15:41:37Z</time>
      </trkpt>
      <trkpt lat="45.83696" lon="4.26873">
        <ele>642.4</ele>
        <time>2018-09-10T15:41:43Z</time>
      </trkpt>
      <trkpt lat="45.83697" lon="4.26866">
        <ele>642.231</ele>
        <time>2018-09-10T15:41:48Z</time>
      </trkpt>
      <trkpt lat="45.83698" lon="4.26861">
        <ele>641.663</ele>
        <time>2018-09-10T15:41:53Z</time>
      </trkpt>
      <trkpt lat="45.83698" lon="4.2685">
        <ele>640.546</ele>
        <time>2018-09-10T15:41:59Z</time>
      </trkpt>
      <trkpt lat="45.83696" lon="4.26842">
        <ele>639.472</ele>
        <time>2018-09-10T15:42:05Z</time>
      </trkpt>
      <trkpt lat="45.83694" lon="4.26832">
        <ele>638.536</ele>
        <time>2018-09-10T15:42:11Z</time>
      </trkpt>
      <trkpt lat="45.83694" lon="4.26824">
        <ele>638.621</ele>
        <time>2018-09-10T15:42:17Z</time>
      </trkpt>
      <trkpt lat="45.83694" lon="4.26823">
        <ele>638.639</ele>
        <time>2018-09-10T15:42:22Z</time>
      </trkpt>
      <trkpt lat="45.83695" lon="4.26822">
        <ele>638.307</ele>
        <time>2018-09-10T15:42:28Z</time>
      </trkpt>
      <trkpt lat="45.83694" lon="4.26818">
        <ele>637.712</ele>
        <time>2018-09-10T15:42:33Z</time>
      </trkpt>
      <trkpt lat="45.83695" lon="4.26811">
        <ele>637.398</ele>
        <time>2018-09-10T15:42:39Z</time>
      </trkpt>
      <trkpt lat="45.83694" lon="4.26807">
        <ele>636.849</ele>
        <time>2018-09-10T15:42:45Z</time>
      </trkpt>
      <trkpt lat="45.83693" lon="4.26802">
        <ele>636.563</ele>
        <time>2018-09-10T15:42:51Z</time>
      </trkpt>
      <trkpt lat="45.83695" lon="4.26795">
        <ele>636.433</ele>
        <time>2018-09-10T15:42:56Z</time>
      </trkpt>
      <trkpt lat="45.83696" lon="4.26783">
        <ele>635.871</ele>
        <time>2018-09-10T15:43:02Z</time>
      </trkpt>
      <trkpt lat="45.83695" lon="4.26777">
        <ele>634.94</ele>
        <time>2018-09-10T15:43:07Z</time>
      </trkpt>
      <trkpt lat="45.83695" lon="4.2677">
        <ele>634.245</ele>
        <time>2018-09-10T15:43:12Z</time>
      </trkpt>
      <trkpt lat="45.83696" lon="4.26761">
        <ele>634.042</ele>
        <time>2018-09-10T15:43:18Z</time>
      </trkpt>
      <trkpt lat="45.83698" lon="4.26754">
        <ele>633.886</ele>
        <time>2018-09-10T15:43:24Z</time>
      </trkpt>
      <trkpt lat="45.83701" lon="4.26751">
        <ele>633.556</ele>
        <time>2018-09-10T15:43:29Z</time>
      </trkpt>
      <trkpt lat="45.83707" lon="4.26747">
        <ele>633.37</ele>
        <time>2018-09-10T15:43:35Z</time>
      </trkpt>
      <trkpt lat="45.83712" lon="4.26746">
        <ele>633.493</ele>
        <time>2018-09-10T15:43:40Z</time>
      </trkpt>
      <trkpt lat="45.83716" lon="4.26744">
        <ele>633.496</ele>
        <time>2018-09-10T15:43:46Z</time>
      </trkpt>
      <trkpt lat="45.8372" lon="4.26742">
        <ele>633.014</ele>
        <time>2018-09-10T15:43:52Z</time>
      </trkpt>
      <trkpt lat="45.83724" lon="4.26742">
        <ele>632.944</ele>
        <time>2018-09-10T15:43:57Z</time>
      </trkpt>
      <trkpt lat="45.83725" lon="4.26744">
        <ele>632.826</ele>
        <time>2018-09-10T15:44:03Z</time>
      </trkpt>
      <trkpt lat="45.83726" lon="4.26744">
        <ele>633.054</ele>
        <time>2018-09-10T15:44:09Z</time>
      </trkpt>
      <trkpt lat="45.83729" lon="4.26738">
        <ele>633.594</ele>
        <time>2018-09-10T15:44:15Z</time>
      </trkpt>
      <trkpt lat="45.83731" lon="4.26735">
        <ele>633.956</ele>
        <time>2018-09-10T15:44:21Z</time>
      </trkpt>
      <trkpt lat="45.83732" lon="4.26731">
        <ele>634.421</ele>
        <time>2018-09-10T15:44:26Z</time>
      </trkpt>
    </trkseg>
  </trk>
</gpx>